[[{"header":{"parameterUnit":"m.s-1","parameterCategory":1,"la1":31.0,"la2":29.5877,"lo1":-88.7671,"lo2":-86.6584,"dy":0.0162,"dx":0.0185,"nx":115,"ny":88,"refTime":"2023-08-01T00:00:00:Z","depth":0,"parameterNumber":2,"parameterNumberName":"U-component_of_WINDS"},"data":[0.0,0.0,0.0,0.0,0.0,0.0,0.0,0.0,0.0,0.0,0.0,0.0,0.0,0.0,0.0,0.0,0.0,0.0,0.0,0.0,0.0,0.0,0.0,0.0,0.0,0.0,0.0,0.0,0.0,0.0,0.0,0.0,0.0,0.0,0.0,0.0,0.0,0.0,0.0,0.0,0.0,0.0,0.0,0.0,0.0,0.0,0.0,0.0,0.0,0.0,0.0,0.0,0.0,0.0,0.0,0.0,0.0,0.0,0.0,0.0,0.0,0.0,0.0,0.0,0.0,0.0,0.0,0.0,0.0,0.0,0.0,0.0,0.0,0.0,0.0,0.0,0.0,0.0,0.0,0.0,0.0,0.0,0.0,0.0,0.0,0.0,0.0,0.0,0.0,0.0,0.0,0.0,0.0,0.0,0.0,0.0,0.0,0.0,0.0,0.0,0.0,0.0,0.0,0.0,0.0,0.0,0.0,0.0,0.0,0.0,0.0,0.0,0.0,0.0,0.0,0.0,0.0,0.0,0.0,0.0,0.0,0.0,0.0,0.0,0.0,0.0,0.0,0.0,0.0,0.0,0.0,0.0,0.0,0.0,0.0,0.0,0.0,0.0,0.0,0.0,0.0,0.0,0.0,0.0,0.0,0.0,0.0,0.0,0.0,0.0,0.0,0.0,0.0,0.0,0.0,0.0,0.0,0.0,0.0,0.0,0.0,0.0,0.0,0.0,0.0,0.0,0.0,0.0,0.0,0.0,0.0,0.0,0.0,0.0,0.0,0.0,0.0,0.0,0.0,0.0,0.0,0.0,0.0,0.0,0.0,0.0,0.0,0.0,0.0,0.0,0.0,0.0,0.0,0.0,0.0,0.0,0.0,0.0,0.0,0.0,0.0,0.0,0.0,0.0,0.0,0.0,0.0,0.0,0.0,0.0,0.0,0.0,0.0,0.0,0.0,0.0,0.0,0.0,0.0,0.0,0.0,0.0,0.0,0.0,0.0,0.0,0.0,0.0,0.0,0.0,0.0,0.0,0.0,0.0,0.0,0.0,0.0,0.0,0.0,0.0,0.0,0.0,0.0,0.0,0.0,0.0,0.0,0.0,0.0,0.0,0.0,0.0,0.0,0.0,0.0,0.0,0.0,0.0,0.0,0.0,0.0,0.0,0.0,0.0,0.0,0.0,0.0,0.0,0.0,0.0,0.0,0.0,0.0,0.0,0.0,0.0,0.0,0.0,0.0,0.0,0.0,0.0,0.0,0.0,0.0,0.0,0.0,0.0,0.0,0.0,0.0,0.0,0.0,0.0,0.0,0.0,0.0,0.0,0.0,0.0,0.0,0.0,0.0,0.0,0.0,0.0,0.0,0.0,0.0,0.0,0.0,0.0,0.0,0.0,0.0,0.0,0.0,0.0,0.0,0.0,0.0,0.0,0.0,0.0,0.0,0.0,0.0,0.0,0.0,0.0,0.0,0.0,0.0,0.0,0.0,0.0,0.0,0.0,0.0,0.0,0.0,0.0,0.0,0.0,0.0,0.0,0.0,0.0,0.0,0.0,0.0,0.0,0.0,0.0,0.0,0.0,0.0,0.0,0.0,0.0,0.0,0.0,0.0,0.0,0.0,0.0,0.0,0.0,0.0,0.0,0.0,0.0,0.0,0.0,0.0,0.0,0.0,0.0,0.0,0.0,0.0,0.0,0.0,0.0,0.0,0.0,0.0,0.0,0.0,0.0,0.0,0.0,0.0,0.0,0.0,0.0,0.0,0.0,0.0,0.0,0.0,0.0,0.0,0.0,0.0,0.0,0.0,0.0,0.0,0.0,0.0,0.0,0.0,0.0,0.0,0.0,0.0,0.0,0.0,0.0,0.0,0.0,0.0,0.0,0.0,0.0,0.0,0.0,0.0,0.0,0.0,0.0,0.0,0.0,0.0,0.0,0.0,0.0,0.0,0.0,0.0,0.0,0.0,0.0,0.0,0.0,0.0,0.0,0.0,0.0,0.0,0.0,0.0,0.0,0.0,0.0,0.0,0.0,0.0,0.0,0.0,0.0,0.0,0.0,0.0,0.0,0.0,0.0,0.0,0.0,0.0,0.0,0.0,0.0,0.0,0.0,0.0,0.0,0.0,0.0,0.0,0.0,0.0,0.0,0.0,0.0,0.0,0.0,0.0,0.0,0.0,0.0,0.0,0.0,0.0,0.0,0.0,0.0,0.0,0.0,0.0,0.0,0.0,0.0,0.0,0.0,0.0,0.0,0.0,0.0,0.0,0.0,0.0,0.0,0.0,0.0,0.0,0.0,0.0,0.0,0.0,0.0,0.0,0.0,0.0,0.0,0.0,0.0,0.0,0.0,0.0,0.0,0.0,0.0,0.0,0.0,0.0,0.0,0.0,0.0,0.0,0.0,0.0,0.0,0.0,0.0,0.0,0.0,0.0,0.0,0.0,0.0,0.0,0.0,0.0,0.0,0.0,0.0,0.0,0.0,0.0,0.0,0.0,0.0,0.0,0.0,0.0,0.0,0.0,0.0,0.0,0.0,0.0,0.0,0.0,0.0,0.0,0.0,0.0,0.0,0.0,0.0,0.0,0.0,0.0,0.0,0.0,0.0,0.0,0.0,0.0,0.0,0.0,0.0,0.0,0.0,0.0,0.0,0.0,0.0,0.0,0.0,0.0,0.0,0.0,0.0,0.0,0.0,0.0,0.0,0.0,0.0,0.0,0.0,0.0,0.0,0.0,0.0,0.0,0.0,0.0,0.0,0.0,0.0,0.0,0.0,0.0,0.0,0.0,0.0,0.0,0.0,0.0,0.0,0.0,0.0,0.0,0.0,0.0,0.0,0.0,0.0,0.0,0.0,0.0,0.0,0.0,0.0,0.0,0.0,0.0,0.0,0.0,0.0,0.0,0.0,0.0,0.0,0.0,0.0,0.0,0.0,0.0,0.0,0.0,0.0,0.0,0.0,0.0,0.0,0.0,0.0,0.0,0.0,0.0,0.0,0.0,0.0,0.0,0.0,0.0,0.0,0.0,0.0,0.0,0.0,0.0,0.0,0.0,0.0,0.0,0.0,0.0,0.0,0.0,0.0,0.0,0.0,0.0,0.0,0.0,0.0,0.0,0.0,0.0,0.0,0.0,0.0,0.0,0.0,0.0,0.0,0.0,0.0,0.0,0.0,0.0,0.0,0.0,0.0,0.0,0.0,0.0,0.0,0.0,0.0,0.0,0.0,0.0,0.0,0.0,0.0,0.0,0.0,0.0,0.0,0.0,0.0,0.0,0.0,0.0,0.0,0.0,0.0,0.0,0.0,0.0,0.0,0.0,0.0,0.0,0.0,0.0,0.0,0.0,0.0,0.0,0.0,0.0,0.0,0.0,0.0,0.0,0.0,0.0,0.0,0.0,0.0,0.0,0.0,0.0,0.0,0.0,0.0,0.0,0.0,0.0,0.0,0.0,0.0,0.0,0.0,0.0,0.0,0.0,0.0,0.0,0.0,0.0,0.0,0.0,0.0,0.0,0.0,0.0,0.0,0.0,0.0,0.0,0.0,0.0,0.0,0.0,0.0,0.0,0.0,0.0,0.0,0.0,0.0,0.0,0.0,0.0,0.0,0.0,0.0,0.0,0.0,0.0,0.0,0.0,0.0,0.0,0.0,0.0,0.0,0.0,0.0,0.0,0.0,0.0,0.0,0.0,0.0,0.0,0.0,0.0,0.0,0.0,0.0,0.0,0.0,0.0,0.0,0.0,0.0,0.0,0.0,0.0,0.0,0.0,0.0,0.0,0.0,0.0,0.0,0.0,0.0,0.0,0.0,0.0,0.0,0.0,0.0,0.0,0.0,0.0,0.0,0.0,0.0,0.0,0.0,0.0,0.0,0.0,0.0,0.0,0.0,0.0,0.0,0.0,0.0,0.0,0.0,0.0,0.0,0.0,0.0,0.0,0.0,0.0,0.0,0.0,0.0,0.0,0.0,0.0,0.0,0.0,0.0,0.0,0.0,0.0,0.0,0.0,0.0,0.0,0.0,0.0,0.0,0.0,0.0,0.0,0.0,0.0,0.0,0.0,0.0,0.0,0.0,0.0,0.0,0.0,0.0,0.0,0.0,0.0,0.0,0.0,0.0,0.0,0.0,0.0,0.0,0.0,0.0,0.0,0.0,0.0,0.0,0.0,0.0,0.0,0.0,0.0,0.0,0.0,0.0,0.0,0.0,0.0,0.0,0.0,0.0,0.0,0.0,0.0,0.0,0.0,0.0,0.0,0.0,0.0,0.0,0.0,0.0,-0.9298,0.0,0.0,0.0,0.0,0.0,0.0,0.0,0.0,0.0,0.0,0.0,0.0,0.0,0.0,0.0,0.0,0.0,0.0,0.0,0.0,0.0,0.0,0.0,0.0,0.0,0.0,0.0,0.0,0.0,0.0,0.0,0.0,0.0,0.0,0.0,0.0,0.0,0.0,0.0,0.0,0.0,0.0,0.0,0.0,0.0,0.0,0.0,0.0,0.0,0.0,0.0,0.0,0.0,0.0,0.0,0.0,0.0,0.0,0.0,0.0,0.0,0.0,0.0,0.0,0.0,0.0,0.0,0.0,0.0,0.0,0.0,0.0,0.0,0.0,0.0,0.0,0.0,0.0,0.0,0.0,0.0,0.0,0.0,0.0,0.0,0.0,0.0,0.0,0.0,0.0,0.0,0.0,0.0,0.0,0.0,0.0,0.0,0.0,0.0,0.0,0.0,0.0,0.0,0.0,0.0,0.0,0.0,0.0,0.0,0.0,-0.8942,-0.9047,-0.9316,-0.9321,-0.9019,0.0,0.0,0.0,0.0,0.0,0.0,0.0,0.0,0.0,0.0,0.0,0.0,0.0,0.0,0.0,0.0,0.0,0.0,0.0,0.0,0.0,0.0,0.0,0.0,0.0,0.0,0.0,0.0,0.0,0.0,0.0,0.0,0.0,0.0,0.0,0.0,0.0,0.0,0.0,0.0,0.0,0.0,0.0,0.0,0.0,0.0,0.0,0.0,0.0,0.0,0.0,0.0,0.0,0.0,0.0,0.0,0.0,0.0,0.0,0.0,0.0,0.0,0.0,0.0,0.0,0.0,0.0,0.0,0.0,0.0,0.0,0.0,0.0,0.0,0.0,0.0,0.0,0.0,0.0,0.0,0.0,0.0,0.0,0.0,0.0,0.0,0.0,0.0,0.0,0.0,0.0,0.0,0.0,0.0,0.0,0.0,0.0,0.0,0.0,0.0,0.0,0.0,0.0,0.0,0.0,0.0,0.0,0.0,0.0,0.0,0.0,0.0,-0.8844,-0.8944,-0.876,0.0,0.0,0.0,0.0,0.0,0.0,0.0,0.0,0.0,0.0,0.0,0.0,0.0,0.0,0.0,0.0,0.0,0.0,0.0,0.0,0.0,0.0,0.0,0.0,0.0,0.0,0.0,0.0,0.0,0.0,0.0,0.0,0.0,0.0,0.0,0.0,0.0,0.0,0.0,0.0,0.0,0.0,0.0,0.0,0.0,0.0,0.0,0.0,0.0,0.0,0.0,0.0,0.0,0.0,0.0,0.0,0.0,0.0,0.0,0.0,0.0,0.0,0.0,0.0,0.0,0.0,0.0,0.0,0.0,0.0,0.0,0.0,0.0,0.0,0.0,0.0,0.0,0.0,0.0,0.0,0.0,0.0,0.0,0.0,0.0,0.0,0.0,0.0,0.0,0.0,0.0,0.0,0.0,0.0,0.0,0.0,0.0,0.0,0.0,0.0,0.0,0.0,0.0,0.0,0.0,0.0,0.0,0.0,0.0,0.0,-0.8055,-0.8215,-0.8527,0.0,-0.879,0.0,0.0,0.0,0.0,0.0,0.0,0.0,0.0,0.0,0.0,0.0,0.0,0.0,0.0,0.0,0.0,0.0,0.0,0.0,0.0,0.0,0.0,0.0,0.0,0.0,0.0,0.0,0.0,0.0,0.0,0.0,0.0,0.0,0.0,0.0,0.0,0.0,0.0,0.0,0.0,0.0,0.0,0.0,0.0,0.0,0.0,0.0,0.0,0.0,0.0,0.0,0.0,0.0,0.0,0.0,0.0,0.0,0.0,0.0,0.0,0.0,0.0,0.0,0.0,0.0,0.0,0.0,0.0,0.0,0.0,0.0,0.0,0.0,0.0,0.0,0.0,0.0,0.0,0.0,0.0,0.0,0.0,0.0,0.0,0.0,0.0,0.0,0.0,0.0,0.0,0.0,0.0,0.0,0.0,0.0,0.0,0.0,0.0,0.0,0.0,0.0,0.0,0.0,0.0,0.0,0.0,0.0,0.0,0.0,0.0,-0.7681,-0.7788,-0.785,-0.792,0.0,0.0,0.0,0.0,0.0,0.0,0.0,0.0,0.0,0.0,0.0,0.0,0.0,0.0,0.0,0.0,0.0,0.0,0.0,0.0,0.0,0.0,0.0,0.0,0.0,0.0,0.0,0.0,0.0,0.0,0.0,0.0,0.0,0.0,0.0,0.0,0.0,0.0,0.0,0.0,0.0,0.0,0.0,0.0,0.0,0.0,0.0,0.0,0.0,0.0,0.0,0.0,0.0,0.0,0.0,0.0,0.0,0.0,0.0,0.0,0.0,0.0,0.0,0.0,0.0,0.0,0.0,0.0,0.0,0.0,0.0,0.0,0.0,0.0,0.0,0.0,0.0,0.0,0.0,0.0,0.0,0.0,0.0,0.0,0.0,0.0,0.0,0.0,0.0,0.0,0.0,0.0,0.0,0.0,0.0,0.0,0.0,0.0,0.0,0.0,0.0,0.0,0.0,0.0,0.0,0.0,0.0,0.0,0.0,0.0,-0.7359,-0.7467,-0.7509,-0.7385,-0.7347,-0.7246,0.0,0.0,0.0,0.0,0.0,0.0,0.0,0.0,0.0,0.0,0.0,0.0,0.0,0.0,0.0,0.0,0.0,0.0,0.0,0.0,0.0,0.0,0.0,0.0,0.0,0.0,0.0,0.0,0.0,0.0,0.0,0.0,0.0,0.0,0.0,0.0,0.0,0.0,0.0,0.0,0.0,0.0,0.0,0.0,0.0,0.0,0.0,0.0,0.0,0.0,0.0,0.0,0.0,0.0,0.0,0.0,0.0,0.0,0.0,0.0,0.0,0.0,0.0,0.0,0.0,0.0,0.0,0.0,0.0,0.0,0.0,0.0,0.0,0.0,0.0,0.0,0.0,0.0,0.0,0.0,0.0,0.0,0.0,0.0,0.0,0.0,0.0,0.0,0.0,0.0,0.0,0.0,0.0,0.0,0.0,0.0,0.0,0.0,0.0,0.0,0.0,0.0,0.0,0.0,0.0,0.0,0.0,0.0,-0.7139,-0.7252,-0.7365,-0.7461,-0.7281,-0.7098,0.0,0.0,0.0,0.0,0.0,0.0,0.0,0.0,0.0,0.0,0.0,0.0,0.0,0.0,0.0,0.0,0.0,0.0,0.0,0.0,0.0,0.0,0.0,0.0,0.0,0.0,0.0,0.0,0.0,0.0,0.0,0.0,0.0,0.0,0.0,0.0,0.0,0.0,0.0,0.0,0.0,0.0,0.0,0.0,0.0,0.0,0.0,0.0,0.0,0.0,0.0,0.0,0.0,0.0,0.0,0.0,0.0,0.0,0.0,0.0,0.0,0.0,0.0,0.0,0.0,0.0,0.0,0.0,0.0,0.0,0.0,0.0,0.0,0.0,0.0,0.0,0.0,0.0,0.0,0.0,0.0,0.0,0.0,0.0,0.0,0.0,0.0,0.0,0.0,0.0,0.0,0.0,0.0,0.0,0.0,0.0,0.0,0.0,0.0,0.0,0.0,0.0,0.0,0.0,0.0,0.0,0.0,0.0,0.0,-0.6869,-0.6869,-0.6923,-0.6966,-0.6616,-0.6415,0.0,0.0,0.0,0.0,0.0,0.0,0.0,0.0,0.0,0.0,0.0,0.0,0.0,0.0,0.0,0.0,0.0,0.0,0.0,0.0,0.0,0.0,0.0,0.0,0.0,0.0,0.0,0.0,0.0,0.0,0.0,0.0,0.0,0.0,0.0,0.0,0.0,0.0,0.0,0.0,0.0,0.0,0.0,0.0,0.0,0.0,0.0,0.0,0.0,0.0,0.0,0.0,0.0,0.0,0.0,0.0,0.0,0.0,0.0,0.0,0.0,0.0,0.0,0.0,0.0,0.0,0.0,0.0,0.0,0.0,0.0,0.0,0.0,0.0,0.0,0.0,0.0,0.0,0.0,0.0,0.0,0.0,0.0,0.0,0.0,0.0,0.0,0.0,0.0,0.0,0.0,0.0,0.0,0.0,0.0,0.0,0.0,0.0,0.0,0.0,0.0,0.0,0.0,0.0,0.0,0.0,0.0,0.0,0.0,-0.6704,0.0,-0.6718,-0.6639,-0.63,-0.6092,0.0,0.0,0.0,0.0,0.0,0.0,0.0,0.0,0.0,0.0,0.0,0.0,0.0,0.0,0.0,0.0,0.0,0.0,0.0,0.0,0.0,0.0,0.0,0.0,0.0,0.0,0.0,0.0,0.0,0.0,0.0,0.0,0.0,0.0,0.0,0.0,0.0,0.0,0.0,0.0,0.0,0.0,0.0,0.0,0.0,0.0,0.0,0.0,0.0,0.0,0.0,0.0,0.0,0.0,0.0,0.0,0.0,0.0,0.0,0.0,0.0,0.0,0.0,0.0,0.0,0.0,0.0,0.0,0.0,0.0,0.0,0.0,0.0,0.0,0.0,0.0,0.0,0.0,0.0,0.0,0.0,0.0,0.0,0.0,0.0,0.0,0.0,0.0,0.0,0.0,0.0,0.0,0.0,0.0,0.0,0.0,0.0,0.0,0.0,0.0,0.0,0.0,0.0,0.0,0.0,0.0,0.0,0.0,-0.6673,-0.6721,-0.6856,-0.6797,-0.6482,-0.6382,-0.6187,0.0,0.0,0.0,0.0,0.0,0.0,0.0,0.0,0.0,0.0,0.0,0.0,0.0,0.0,0.0,0.0,0.0,0.0,0.0,0.0,0.0,0.0,0.0,0.0,0.0,0.0,0.0,0.0,0.0,0.0,0.0,0.0,0.0,0.0,0.0,0.0,0.0,0.0,0.0,0.0,0.0,0.0,0.0,0.0,0.0,0.0,0.0,0.0,0.0,0.0,0.0,0.0,0.0,0.0,0.0,0.0,0.0,0.0,0.0,0.0,0.0,0.0,0.0,0.0,0.0,0.0,0.0,0.0,0.0,0.0,0.0,0.0,0.0,0.0,0.0,0.0,0.0,0.0,0.0,0.0,0.0,0.0,0.0,0.0,0.0,0.0,0.0,0.0,0.0,0.0,0.0,0.0,0.0,0.0,0.0,0.0,0.0,0.0,0.0,0.0,0.0,0.0,0.0,0.0,0.0,0.0,0.0,0.0,0.0,-0.6415,-0.6471,-0.6405,-0.6149,-0.5976,-0.587,0.0,0.0,0.0,0.0,0.0,0.0,0.0,0.0,0.0,0.0,0.0,0.0,0.0,0.0,0.0,0.0,0.0,0.0,0.0,0.0,0.0,0.0,0.0,0.0,0.0,0.0,0.0,0.0,0.0,0.0,0.0,0.0,0.0,0.0,0.0,0.0,0.0,0.0,0.0,0.0,0.0,0.0,0.0,0.0,0.0,0.0,0.0,0.0,0.0,0.0,0.0,0.0,0.0,0.0,0.0,0.0,0.0,0.0,0.0,0.0,0.0,0.0,0.0,0.0,0.0,0.0,0.0,0.0,0.0,0.0,0.0,0.0,0.0,0.0,0.0,0.0,0.0,0.0,0.0,0.0,0.0,0.0,0.0,0.0,0.0,0.0,0.0,0.0,0.0,0.0,0.0,0.0,0.0,0.0,0.0,0.0,0.0,0.0,0.0,0.0,0.0,0.0,0.0,0.0,0.0,0.0,0.0,0.0,0.0,-0.6272,-0.6368,-0.6271,-0.6071,-0.5936,-0.5715,-0.5458,0.0,0.0,0.0,0.0,0.0,0.0,0.0,0.0,0.0,0.0,0.0,0.0,0.0,0.0,0.0,0.0,0.0,0.0,0.0,0.0,0.0,0.0,0.0,0.0,0.0,0.0,0.0,0.0,0.0,0.0,0.0,0.0,0.0,0.0,0.0,0.0,0.0,0.0,0.0,0.0,0.0,0.0,0.0,0.0,0.0,0.0,0.0,0.0,0.0,0.0,0.0,0.0,0.0,0.0,0.0,0.0,0.0,0.0,0.0,0.0,0.0,0.0,0.0,0.0,0.0,0.0,0.0,0.0,0.0,0.0,0.0,0.0,0.0,0.0,0.0,0.0,0.0,0.0,0.0,0.0,0.0,0.0,0.0,0.0,0.0,0.0,0.0,0.0,0.0,0.0,0.0,0.0,0.0,0.0,0.0,0.0,0.0,0.0,0.0,0.0,0.0,0.0,0.0,0.0,0.0,0.0,0.0,0.0,-0.6229,-0.6478,-0.65,-0.6194,-0.6138,-0.5759,0.0,0.0,0.0,0.0,0.0,0.0,0.0,0.0,0.0,0.0,0.0,0.0,0.0,0.0,0.0,0.0,0.0,0.0,0.0,0.0,0.0,0.0,0.0,0.0,0.0,0.0,0.0,0.0,0.0,0.0,0.0,0.0,0.0,0.0,0.0,0.0,0.0,0.0,0.0,0.0,0.0,0.0,0.0,0.0,0.0,0.0,0.0,0.0,0.0,0.0,0.0,0.0,0.0,0.0,0.0,0.0,0.0,0.0,0.0,0.0,0.0,0.0,0.0,0.0,0.0,0.0,0.0,0.0,0.0,0.0,0.0,0.0,0.0,0.0,0.0,0.0,0.0,0.0,0.0,0.0,0.0,0.0,0.0,0.0,0.0,0.0,0.0,0.0,0.0,0.0,0.0,0.0,0.0,0.0,0.0,0.0,0.0,0.0,0.0,0.0,0.0,0.0,0.0,0.0,0.0,0.0,0.0,0.0,0.0,-0.6456,-0.6603,-0.6557,-0.6405,-0.6039,-0.5693,0.0,0.0,0.0,0.0,0.0,0.0,0.0,0.0,0.0,0.0,0.0,0.0,0.0,0.0,0.0,0.0,0.0,0.0,0.0,0.0,0.0,0.0,0.0,0.0,0.0,0.0,0.0,0.0,0.0,0.0,0.0,0.0,0.0,0.0,0.0,0.0,0.0,0.0,0.0,0.0,0.0,0.0,0.0,0.0,0.0,0.0,0.0,0.0,0.0,0.0,0.0,0.0,0.0,0.0,0.0,0.0,0.0,0.0,0.0,0.0,0.0,0.0,0.0,0.0,0.0,0.0,0.0,0.0,0.0,0.0,0.0,0.0,0.0,0.0,0.0,0.0,0.0,0.0,0.0,0.0,0.0,0.0,0.0,0.0,0.0,0.0,0.0,0.0,0.0,0.0,0.0,0.0,0.0,0.0,0.0,0.0,0.0,0.0,0.0,0.0,0.0,0.0,0.0,0.0,0.0,0.0,0.0,0.0,-0.6002,-0.6517,-0.6583,-0.6716,-0.6828,-0.6287,-0.5776,0.0,0.0,0.0,0.0,0.0,0.0,0.0,0.0,0.0,0.0,0.0,0.0,0.0,0.0,0.0,0.0,0.0,0.0,0.0,0.0,0.0,0.0,0.0,0.0,0.0,0.0,0.0,0.0,0.0,0.0,0.0,0.0,0.0,0.0,0.0,0.0,0.0,0.0,0.0,0.0,0.0,0.0,0.0,0.0,0.0,0.0,0.0,0.0,0.0,0.0,0.0,0.0,0.0,0.0,0.0,0.0,0.0,0.0,0.0,0.0,0.0,0.0,0.0,0.0,0.0,0.0,0.0,0.0,0.0,0.0,0.0,0.0,0.0,0.0,0.0,0.0,0.0,0.0,0.0,0.0,0.0,0.0,0.0,0.0,0.0,0.0,0.0,0.0,0.0,0.0,0.0,0.0,0.0,0.0,0.0,0.0,0.0,0.0,0.0,0.0,0.0,0.0,0.0,0.0,0.0,0.0,0.0,0.0,-0.5986,-0.6295,-0.6521,-0.6796,-0.7097,-0.6547,-0.5883,0.0,0.0,0.0,0.0,0.0,0.0,0.0,0.0,0.0,0.0,0.0,0.0,0.0,0.0,0.0,0.0,0.0,0.0,0.0,0.0,0.0,0.0,0.0,0.0,0.0,0.0,0.0,0.0,0.0,0.0,0.0,0.0,0.0,0.0,0.0,0.0,0.0,0.0,0.0,0.0,0.0,0.0,0.0,0.0,0.0,0.0,0.0,0.0,0.0,0.0,0.0,0.0,0.0,0.0,0.0,0.0,0.0,0.0,0.0,0.0,0.0,0.0,0.0,0.0,0.0,0.0,0.0,0.0,0.0,0.0,0.0,0.0,0.0,0.0,0.0,0.0,0.0,0.0,0.0,0.0,0.0,0.0,0.0,0.0,0.0,0.0,0.0,0.0,0.0,0.0,0.0,0.0,0.0,0.0,0.0,0.0,0.0,0.0,0.0,0.0,0.0,0.0,0.0,0.0,0.0,0.0,0.0,0.0,-0.5966,-0.6526,-0.669,-0.6844,-0.7016,-0.649,-0.6023,0.0,0.0,0.0,0.0,0.0,0.0,0.0,0.0,0.0,0.0,0.0,0.0,0.0,0.0,0.0,0.0,0.0,0.0,0.0,0.0,0.0,0.0,0.0,0.0,0.0,0.0,0.0,0.0,0.0,0.0,0.0,0.0,0.0,0.0,0.0,0.0,0.0,0.0,0.0,0.0,0.0,0.0,0.0,0.0,0.0,0.0,0.0,0.0,-0.4199,0.0,0.0,0.0,0.0,0.0,0.0,0.0,0.0,0.0,0.0,0.0,0.0,0.0,0.0,0.0,0.0,0.0,0.0,0.0,0.0,0.0,0.0,0.0,0.0,0.0,0.0,0.0,0.0,0.0,0.0,0.0,0.0,0.0,0.0,0.0,0.0,0.0,0.0,0.0,0.0,0.0,0.0,0.0,0.0,0.0,0.0,0.0,0.0,0.0,0.0,0.0,0.0,0.0,0.0,0.0,0.0,0.0,0.0,0.0,-0.6132,-0.6605,-0.6796,-0.6945,-0.7043,-0.6649,-0.6233,0.0,0.0,0.0,0.0,0.0,0.0,0.0,0.0,0.0,0.0,0.0,0.0,0.0,0.0,0.0,0.0,0.0,0.0,0.0,0.0,0.0,0.0,0.0,0.0,0.0,0.0,0.0,0.0,0.0,0.0,0.0,0.0,0.0,0.0,0.0,0.0,0.0,0.0,0.0,0.0,0.0,0.0,0.0,0.0,0.0,0.0,0.0,0.0,0.0,0.0,0.0,0.0,0.0,0.0,0.0,0.0,0.0,0.0,0.0,0.0,0.0,0.0,0.0,0.0,0.0,0.0,0.0,0.0,0.0,0.0,0.0,0.0,0.0,0.0,0.0,0.0,0.0,0.0,0.0,0.0,0.0,0.0,0.0,0.0,0.0,0.0,0.0,0.0,0.0,0.0,0.0,0.0,0.0,0.0,0.0,0.0,0.0,0.0,0.0,0.0,0.0,0.0,0.0,0.0,0.0,0.0,0.0,-0.5992,-0.6276,-0.6662,-0.6877,-0.704,-0.7146,-0.6945,-0.6502,-0.5817,0.0,0.0,0.0,0.0,0.0,0.0,0.0,0.0,0.0,0.0,0.0,0.0,0.0,0.0,0.0,0.0,0.0,0.0,0.0,0.0,0.0,0.0,0.0,0.0,0.0,0.0,0.0,0.0,0.0,0.0,0.0,0.0,0.0,0.0,0.0,0.0,0.0,0.0,-0.3175,-0.3553,0.0,0.0,0.0,0.0,0.0,0.0,0.0,0.0,-0.4019,0.0,0.0,0.0,0.0,0.0,0.0,0.0,0.0,0.0,0.0,0.0,0.0,0.0,0.0,0.0,0.0,0.0,0.0,0.0,0.0,0.0,0.0,0.0,0.0,0.0,0.0,0.0,0.0,0.0,0.0,0.0,0.0,0.0,0.0,0.0,0.0,0.0,0.0,0.0,0.0,0.0,0.0,0.0,0.0,0.0,0.0,0.0,0.0,0.0,0.0,0.0,0.0,0.0,0.0,0.0,0.0,-0.6262,-0.6124,-0.6361,-0.691,-0.6964,-0.704,-0.7146,-0.7024,-0.6665,-0.6056,0.0,0.0,0.0,0.0,0.0,0.0,0.0,0.0,0.0,0.0,0.0,0.0,0.0,0.0,0.0,0.0,0.0,0.0,0.0,0.0,0.0,0.0,0.0,0.0,0.0,0.0,0.0,0.0,0.0,0.0,0.0,0.0,0.0,0.0,0.0,0.0,0.0,0.0,0.0,-0.335,-0.3584,0.0,0.0,0.0,0.0,0.0,0.0,0.0,0.0,-0.4074,0.0,0.0,0.0,0.0,0.0,0.0,0.0,0.0,0.0,0.0,0.0,0.0,0.0,0.0,0.0,0.0,0.0,0.0,0.0,0.0,0.0,0.0,0.0,0.0,0.0,0.0,0.0,0.0,0.0,0.0,0.0,0.0,0.0,0.0,0.0,0.0,0.0,0.0,0.0,0.0,0.0,0.0,0.0,0.0,0.0,0.0,0.0,0.0,0.0,0.0,0.0,0.0,0.0,0.0,0.0,-0.6361,-0.6438,-0.6627,-0.6972,-0.7043,-0.7097,-0.7149,-0.6983,-0.6635,0.0,0.0,0.0,0.0,0.0,0.0,0.0,0.0,0.0,0.0,0.0,0.0,0.0,0.0,0.0,0.0,0.0,0.0,0.0,0.0,0.0,0.0,0.0,0.0,0.0,0.0,0.0,0.0,0.0,0.0,0.0,0.0,0.0,0.0,0.0,0.0,0.0,0.0,0.0,0.0,-0.3416,-0.3714,-0.4034,0.0,0.0,0.0,0.0,0.0,0.0,-0.4218,-0.3991,0.0,0.0,0.0,0.0,0.0,0.0,0.0,0.0,0.0,0.0,0.0,0.0,0.0,0.0,0.0,0.0,0.0,0.0,0.0,0.0,0.0,0.0,0.0,0.0,0.0,0.0,0.0,0.0,0.0,0.0,0.0,0.0,0.0,0.0,0.0,0.0,0.0,0.0,0.0,0.0,0.0,0.0,0.0,0.0,0.0,0.0,0.0,0.0,0.0,0.0,0.0,0.0,0.0,0.0,0.0,-0.645,-0.6729,-0.6874,-0.7016,-0.7108,-0.7154,-0.7152,-0.6926,-0.6575,0.0,0.0,0.0,0.0,0.0,0.0,0.0,0.0,0.0,0.0,0.0,0.0,0.0,0.0,0.0,0.0,0.0,0.0,0.0,0.0,0.0,0.0,0.0,0.0,0.0,0.0,0.0,0.0,0.0,0.0,0.0,0.0,0.0,0.0,0.0,0.0,0.0,0.0,0.0,0.0,0.0,-0.3804,-0.4054,-0.4176,0.0,0.0,0.0,0.0,-0.4449,-0.4099,0.0,0.0,0.0,0.0,0.0,0.0,0.0,0.0,0.0,0.0,0.0,0.0,0.0,0.0,0.0,0.0,0.0,0.0,0.0,0.0,0.0,0.0,0.0,0.0,0.0,0.0,0.0,0.0,0.0,0.0,0.0,0.0,0.0,0.0,0.0,0.0,0.0,0.0,0.0,0.0,0.0,0.0,0.0,0.0,0.0,0.0,0.0,0.0,0.0,0.0,0.0,0.0,0.0,0.0,0.0,0.0,-0.6608,-0.6813,-0.6912,-0.7122,-0.7149,-0.7154,-0.7152,-0.6926,-0.6575,0.0,0.0,0.0,0.0,0.0,0.0,0.0,0.0,0.0,0.0,0.0,0.0,0.0,0.0,0.0,0.0,0.0,0.0,0.0,0.0,0.0,0.0,0.0,0.0,0.0,0.0,0.0,0.0,0.0,0.0,0.0,0.0,0.0,0.0,0.0,0.0,0.0,0.0,0.0,0.0,0.0,-0.3738,-0.3938,-0.3989,-0.4022,0.0,0.0,-0.4314,-0.4339,-0.4062,0.0,0.0,0.0,0.0,0.0,0.0,0.0,0.0,0.0,0.0,0.0,0.0,0.0,0.0,0.0,0.0,0.0,0.0,0.0,0.0,0.0,0.0,0.0,0.0,0.0,0.0,0.0,0.0,0.0,0.0,0.0,0.0,0.0,0.0,0.0,0.0,0.0,0.0,0.0,0.0,0.0,0.0,0.0,0.0,0.0,0.0,0.0,0.0,0.0,0.0,0.0,0.0,0.0,0.0,0.0,-0.6026,-0.6665,-0.6891,-0.719,-0.7353,-0.7361,-0.7361,-0.7361,-0.7067,-0.6714,0.0,0.0,0.0,0.0,0.0,0.0,0.0,0.0,0.0,0.0,0.0,0.0,0.0,0.0,0.0,0.0,0.0,0.0,0.0,0.0,0.0,0.0,0.0,0.0,0.0,0.0,0.0,0.0,0.0,0.0,0.0,0.0,0.0,0.0,0.0,0.0,0.0,0.0,0.0,0.0,0.0,0.0,-0.3748,-0.3732,0.0,0.0,0.0,-0.3939,-0.4077,0.0,0.0,0.0,0.0,0.0,0.0,0.0,0.0,0.0,0.0,0.0,0.0,0.0,0.0,0.0,0.0,0.0,0.0,0.0,0.0,0.0,0.0,0.0,0.0,0.0,0.0,0.0,0.0,0.0,0.0,0.0,0.0,0.0,0.0,0.0,0.0,0.0,0.0,0.0,0.0,0.0,0.0,0.0,0.0,0.0,0.0,0.0,0.0,0.0,0.0,0.0,0.0,0.0,0.0,0.0,0.0,0.0,-0.6616,-0.7122,-0.7426,-0.7516,-0.7519,-0.7519,-0.7513,-0.7228,0.0,0.0,0.0,0.0,0.0,0.0,0.0,0.0,0.0,0.0,0.0,0.0,0.0,0.0,0.0,0.0,0.0,0.0,0.0,0.0,0.0,0.0,0.0,0.0,0.0,0.0,0.0,-0.2973,0.0,0.0,0.0,0.0,0.0,0.0,0.0,0.0,0.0,0.0,0.0,0.0,0.0,0.0,-0.3496,-0.3594,-0.3609,-0.3662,0.0,0.0,-0.3587,-0.374,-0.3715,-0.3524,0.0,0.0,0.0,0.0,0.0,0.0,0.0,0.0,0.0,0.0,0.0,0.0,0.0,0.0,0.0,0.0,0.0,0.0,0.0,0.0,0.0,0.0,0.0,0.0,0.0,0.0,0.0,0.0,0.0,0.0,0.0,0.0,0.0,0.0,0.0,0.0,0.0,0.0,0.0,0.0,0.0,0.0,0.0,0.0,0.0,0.0,0.0,0.0,0.0,0.0,0.0,0.0,0.0,0.0,0.0,-0.6624,-0.7203,-0.7513,-0.7519,-0.7519,-0.7519,-0.7516,-0.7385,-0.7092,0.0,0.0,0.0,0.0,0.0,0.0,0.0,0.0,0.0,0.0,0.0,0.0,0.0,0.0,0.0,0.0,0.0,0.0,0.0,0.0,0.0,0.0,0.0,0.0,0.0,0.0,0.0,0.0,0.0,0.0,0.0,0.0,0.0,0.0,0.0,0.0,0.0,0.0,0.0,0.0,0.0,-0.3598,-0.3646,-0.3658,-0.3738,0.0,0.0,-0.3521,-0.3528,-0.3375,-0.325,-0.3061,0.0,0.0,0.0,0.0,0.0,0.0,0.0,0.0,0.0,0.0,0.0,0.0,0.0,0.0,0.0,0.0,0.0,0.0,0.0,0.0,0.0,0.0,0.0,0.0,0.0,0.0,0.0,0.0,0.0,0.0,0.0,0.0,0.0,0.0,0.0,0.0,0.0,0.0,0.0,0.0,0.0,0.0,0.0,0.0,0.0,0.0,0.0,0.0,0.0,0.0,0.0,0.0,0.0,-0.6412,-0.6844,-0.7364,-0.7663,-0.7733,-0.7736,-0.7736,-0.7733,-0.7622,-0.7366,0.0,0.0,0.0,0.0,0.0,0.0,0.0,0.0,0.0,0.0,0.0,0.0,0.0,0.0,0.0,0.0,0.0,0.0,0.0,0.0,0.0,0.0,0.0,0.0,0.0,0.0,0.0,0.0,-0.4371,-0.4512,-0.4575,0.0,0.0,0.0,0.0,0.0,0.0,0.0,0.0,0.0,0.0,-0.3565,-0.3652,-0.3583,0.0,0.0,-0.3296,-0.3296,-0.3296,-0.3215,-0.3181,-0.3037,-0.255,0.0,0.0,0.0,0.0,0.0,0.0,0.0,0.0,0.0,0.0,0.0,0.0,0.0,0.0,0.0,0.0,0.0,0.0,0.0,0.0,0.0,0.0,0.0,0.0,0.0,0.0,0.0,0.0,0.0,0.0,0.0,0.0,0.0,0.0,0.0,0.0,0.0,0.0,0.0,0.0,0.0,0.0,0.0,0.0,0.0,0.0,0.0,0.0,0.0,0.0,0.0,0.0,-0.6575,-0.6983,-0.7491,-0.7793,-0.7872,-0.7872,-0.7872,-0.7869,-0.7793,-0.76,0.0,0.0,0.0,0.0,0.0,0.0,0.0,0.0,0.0,0.0,0.0,0.0,0.0,0.0,0.0,0.0,0.0,0.0,0.0,0.0,0.0,0.0,0.0,0.0,0.0,0.0,0.0,0.0,-0.4828,-0.4917,-0.4727,0.0,0.0,0.0,0.0,0.0,0.0,0.0,0.0,0.0,0.0,-0.361,-0.3735,-0.3461,-0.323,-0.323,-0.323,-0.323,-0.323,-0.323,-0.3202,-0.3116,0.0,0.0,0.0,0.0,0.0,0.0,0.0,0.0,0.0,0.0,0.0,0.0,0.0,0.0,0.0,0.0,0.0,0.0,0.0,0.0,0.0,0.0,0.0,0.0,0.0,0.0,0.0,0.0,0.0,0.0,-0.4129,0.0,0.0,0.0,0.0,0.0,0.0,0.0,0.0,0.0,0.0,0.0,0.0,0.0,0.0,0.0,0.0,0.0,0.0,0.0,0.0,0.0,0.0,-0.6736,-0.6991,-0.7568,-0.7867,-0.7875,-0.7872,-0.7877,-0.7877,-0.7869,-0.7755,-0.751,0.0,0.0,0.0,0.0,0.0,0.0,0.0,0.0,0.0,0.0,0.0,0.0,0.0,0.0,0.0,0.0,0.0,0.0,0.0,0.0,0.0,0.0,0.0,0.0,0.0,0.0,-0.483,-0.5146,-0.5211,0.0,0.0,0.0,0.0,0.0,0.0,0.0,0.0,0.0,0.0,-0.3758,-0.3741,-0.3521,-0.3292,-0.323,-0.3232,-0.3232,-0.323,-0.3233,-0.3232,-0.323,0.0,0.0,0.0,0.0,0.0,0.0,0.0,0.0,0.0,0.0,0.0,0.0,0.0,0.0,0.0,0.0,0.0,0.0,0.0,0.0,0.0,0.0,0.0,0.0,0.0,0.0,0.0,-0.4374,-0.4874,0.0,0.0,0.0,0.0,0.0,0.0,0.0,0.0,0.0,0.0,0.0,-0.6029,-0.6029,0.0,0.0,0.0,0.0,0.0,0.0,0.0,0.0,0.0,0.0,0.0,0.0,-0.6858,-0.7108,-0.7608,-0.791,-0.7989,-0.7992,-0.8032,-0.8108,-0.8035,-0.7842,-0.7527,0.0,0.0,0.0,0.0,0.0,0.0,0.0,0.0,0.0,0.0,0.0,0.0,0.0,0.0,0.0,0.0,0.0,0.0,0.0,0.0,0.0,0.0,0.0,0.0,0.0,-0.527,0.0,0.0,0.0,0.0,0.0,0.0,0.0,0.0,0.0,0.0,0.0,-0.4255,-0.4402,-0.4223,-0.4109,-0.409,-0.372,-0.3448,0.0,0.0,0.0,0.0,0.0,0.0,0.0,0.0,0.0,0.0,0.0,0.0,0.0,0.0,0.1238,0.1241,0.1243,0.1256,0.149,0.0,0.0,0.0,0.0,0.0,0.0,0.0,0.0,0.0,0.0,0.0,0.0,0.0,0.0,-0.5042,0.0,-0.56,0.0,0.0,0.0,0.0,0.0,0.0,0.0,0.0,-0.6382,-0.648,-0.6518,-0.6518,-0.6537,0.0,-0.6456,-0.6279,0.0,0.0,0.0,0.0,0.0,0.0,0.0,0.0,-0.7043,-0.7288,-0.7712,-0.7994,-0.8108,-0.8117,-0.8155,-0.8359,-0.8497,-0.8315,-0.8071,-0.7778,-0.7411,0.0,0.0,0.0,0.0,0.0,0.0,0.0,0.0,0.0,0.0,0.0,0.0,0.0,0.0,0.0,0.0,0.0,0.0,0.0,0.0,0.0,0.0,0.0,-0.5728,0.0,0.0,0.0,0.0,0.0,0.0,0.0,0.0,0.0,-0.445,-0.4485,-0.4563,-0.4674,-0.4526,-0.4461,-0.4415,0.0,0.0,0.0,0.0,0.0,0.0,0.0,-0.3313,-0.3373,-0.3007,-0.236,-0.1253,-0.0817,-0.0597,-0.0098,0.0,0.0,0.1127,0.1286,0.1378,0.1463,0.1548,0.1635,0.1807,0.1979,0.2065,0.0,0.0,0.0,0.0,0.0,0.0,0.0,0.0,-0.5531,-0.5719,0.0,-0.6081,0.0,0.0,0.0,0.0,0.0,-0.6505,0.0,0.0,-0.7032,-0.7097,-0.7002,-0.6999,-0.7056,-0.7154,-0.7046,-0.7114,-0.7296,-0.6654,0.0,0.0,0.0,0.0,0.0,0.0,-0.7285,-0.7524,-0.8,-0.8119,-0.8236,-0.8242,-0.8497,-0.8878,-0.9004,-0.9056,-0.9044,-0.8665,-0.8393,-0.8363,-0.7604,0.0,0.0,0.0,0.0,0.0,0.0,0.0,0.0,0.0,0.0,0.0,0.0,0.0,0.0,0.0,0.0,0.0,0.0,0.0,0.0,-0.616,0.0,0.0,0.0,0.0,0.0,0.0,0.0,0.0,0.0,0.0,-0.4957,-0.4876,-0.4776,-0.4663,0.0,0.0,0.0,0.0,-0.4261,-0.3943,-0.394,-0.3834,-0.3414,-0.3413,-0.3429,-0.3484,0.0,0.0,-0.0428,-0.0,-0.0,-0.0,-0.0,0.0203,0.0755,0.1191,0.1446,0.1444,0.1445,0.1532,0.1712,0.1809,0.1897,-0.5566,0.0,0.0,0.0,0.0,-0.4857,-0.5317,-0.6119,-0.6165,-0.6461,-0.6923,-0.6869,0.0,0.0,0.0,0.0,0.0,0.0,-0.6858,-0.7051,-0.7122,-0.723,-0.7364,-0.7366,-0.7383,-0.7413,-0.7383,-0.7532,-0.7823,-0.7794,-0.7427,-0.6787,0.0,0.0,0.0,0.0,-0.7837,-0.8014,-0.862,-0.9006,-0.9139,-0.9142,-0.9139,-0.9269,-0.9178,-0.9056,-0.905,-0.9089,-0.8863,-0.8512,-0.8412,0.0,0.0,0.0,0.0,0.0,0.0,0.0,0.0,0.0,0.0,0.0,0.0,0.0,0.0,0.0,0.0,0.0,0.0,0.0,-0.6725,-0.6753,-0.6669,0.0,0.0,0.0,0.0,0.0,0.0,0.0,0.0,0.0,-0.5639,-0.5496,-0.5271,0.0,0.0,-0.5002,-0.4896,-0.4682,-0.4489,-0.4226,-0.3972,0.0,0.0,-0.3439,-0.3432,-0.3488,-0.3093,-0.2216,-0.0762,-0.0218,-0.0,-0.0,-0.0,-0.0,-0.0207,0.0707,0.149,0.1571,0.1565,0.1565,0.1663,0.1663,0.1662,-0.7259,-0.651,-0.5686,-0.5477,-0.5812,-0.5722,-0.6146,-0.6902,-0.6874,-0.707,-0.7402,-0.7331,-0.726,-0.7192,-0.7122,0.0,0.0,0.0,-0.719,-0.7369,-0.732,-0.7377,-0.7513,-0.7633,-0.7777,-0.7828,-0.7994,-0.8184,-0.8626,-0.8626,-0.8398,-0.7945,0.0,0.0,-0.7613,-0.8119,-0.8512,-0.8652,-0.9181,-0.9398,-0.9533,-0.967,-0.9773,-0.9714,-0.9631,-0.9487,-0.9424,-0.9532,-0.9379,-0.9084,-0.901,-0.8752,0.0,0.0,0.0,0.0,0.0,0.0,0.0,0.0,0.0,0.0,0.0,-0.5625,0.0,0.0,0.0,0.0,-0.7032,-0.724,-0.7359,-0.7354,0.0,0.0,0.0,0.0,0.0,0.0,0.0,-0.6586,-0.6638,-0.6557,-0.6231,-0.5945,-0.5778,-0.5292,-0.5251,-0.5216,-0.4998,0.0,-0.4689,-0.4191,-0.4051,-0.3819,-0.3636,-0.3504,-0.3493,-0.3529,-0.3342,-0.2908,-0.2105,-0.0891,-0.0,-0.0,-0.0,-0.0219,-0.0643,-0.0106,0.052,0.0914,0.1111,0.1313,0.1313,0.1415,0.1617,-0.8781,-0.8524,-0.6553,-0.6172,-0.6942,-0.663,-0.7147,-0.7947,-0.7633,-0.7546,-0.7548,-0.7548,-0.7548,-0.7546,-0.7546,0.0,-0.7532,-0.7543,-0.7724,-0.7831,-0.7726,-0.7682,-0.769,-0.7928,-0.8222,-0.8345,-0.8705,-0.9019,-0.9255,-0.9268,-0.9274,-0.9404,-0.9283,-0.9082,-0.8831,-0.9057,-0.9255,-0.9395,-0.9531,-0.9664,-0.9791,-1.0047,-1.0116,-0.9996,-1.022,-1.0202,-1.007,-0.991,-0.9943,-0.9933,-0.9679,-0.9456,-0.927,0.0,0.0,0.0,0.0,0.0,0.0,0.0,0.0,0.0,0.0,0.0,0.0,0.0,0.0,0.0,-0.774,0.0,-0.7762,-0.7979,0.0,0.0,0.0,-0.7412,-0.7089,-0.7094,-0.7067,-0.6749,0.0,0.0,-0.6557,-0.6431,-0.6163,-0.5605,-0.5495,-0.527,-0.5043,-0.4925,-0.4706,-0.4255,-0.4036,-0.3923,-0.3804,-0.3691,-0.3691,-0.3698,-0.3927,-0.3924,-0.3477,-0.1906,-0.0,-0.0,-0.0,-0.0444,-0.086,-0.1389,-0.1372,-0.0306,0.0303,0.0707,0.0707,0.1111,0.1516,-0.9045,-0.8772,-0.8244,-0.816,-0.8286,-0.8226,-0.811,-0.8096,-0.8142,-0.8032,-0.7788,-0.7788,-0.7788,-0.7788,-0.7785,-0.7859,-0.8016,-0.8113,-0.8294,-0.8569,-0.8631,-0.8835,-0.8934,-0.8937,-0.8949,-0.8986,-0.9139,-0.9242,-0.9401,-0.9632,-0.9818,-0.9949,-1.0185,-0.9838,-0.9094,-0.9368,-0.965,-0.9796,-1.0195,-1.0419,-1.0452,-1.0474,-1.0454,-1.0531,-1.0173,-1.0144,-1.0215,-1.0703,-1.0789,-1.0543,-1.0714,-1.0661,-1.0026,-0.946,0.0,0.0,0.0,0.0,0.0,0.0,0.0,0.0,0.0,-0.7275,-0.7486,0.0,-0.8267,0.0,-0.8558,-0.8639,-0.8451,-0.8337,0.0,0.0,-0.8122,-0.8004,-0.8073,-0.7877,-0.7639,-0.7529,-0.7348,-0.7003,-0.6672,-0.6589,-0.6495,-0.6163,-0.5717,-0.5382,-0.527,-0.527,-0.5156,-0.4707,-0.4707,-0.4594,-0.4258,-0.4035,-0.3926,-0.4258,-0.4035,-0.3813,-0.4039,-0.3366,-0.2581,-0.2129,-0.2016,-0.2112,-0.2401,-0.2476,-0.2224,-0.1451,-0.051,0.0202,0.0202,0.0606,0.101,-0.9457,-0.9339,-0.9339,-0.929,-0.9219,-0.8862,-0.8621,-0.8509,-0.8581,-0.8488,-0.8363,-0.836,-0.8363,-0.836,-0.836,-0.8447,-0.8509,-0.8578,-0.8766,-0.8949,-0.9013,-0.912,-0.9252,-0.9503,-0.9503,-0.9506,-0.9694,-0.9893,-0.9974,-1.0169,-1.0376,-1.0455,-1.0588,-1.0461,-0.9845,-1.0038,-1.025,-1.0333,-1.0677,-1.0986,-1.0982,-1.0899,-1.0864,-1.1137,-1.0569,-1.0535,-1.0804,-1.1172,-1.1269,-1.1277,-1.1398,-1.1272,-1.0774,-1.0447,-1.0136,0.0,0.0,0.0,0.0,0.0,0.0,0.0,0.0,0.0,0.0,0.0,-0.872,-0.8804,-0.8889,-0.8903,-0.8818,-0.8593,-0.8563,-0.8696,-0.8578,-0.8366,-0.8249,-0.7994,-0.7822,-0.7601,-0.7334,-0.7157,-0.6935,-0.6712,-0.6495,-0.6274,-0.5828,-0.5382,-0.538,-0.5266,-0.5044,-0.4817,-0.4706,-0.4594,-0.4369,-0.4175,-0.4072,-0.4265,-0.4145,-0.4033,-0.4258,-0.4262,-0.3926,-0.3475,-0.3699,-0.3904,-0.3952,-0.356,-0.3179,-0.2706,-0.184,-0.1011,-0.0404,0.0101,0.0404,-0.9869,-0.9852,-0.9869,-0.988,-0.9876,-0.9252,-0.8992,-0.8973,-0.8973,-0.8976,-0.8857,-0.8857,-0.8857,-0.8857,-0.8857,-0.8976,-0.8976,-0.8995,-0.9069,-0.9184,-0.9196,-0.9271,-0.9404,-0.9787,-0.9924,-0.9944,-1.0327,-1.0521,-1.0524,-1.0785,-1.0853,-1.0721,-1.085,-1.0853,-1.0853,-1.0982,-1.085,-1.0721,-1.0982,-1.1251,-1.1247,-1.138,-1.1443,-1.1694,-1.1279,-1.1244,-1.1573,-1.152,-1.1659,-1.1881,-1.1877,-1.1807,-1.1529,-1.1557,-1.1333,0.0,-1.0793,0.0,0.0,0.0,0.0,0.0,0.0,0.0,0.0,-0.8889,-0.8964,-0.8967,-0.895,-0.8937,-0.8937,-0.8937,-0.8937,-0.8823,-0.8826,-0.8605,-0.8045,-0.7934,-0.7712,-0.7268,-0.7265,-0.7154,-0.7157,-0.6717,-0.6383,-0.6274,-0.5828,-0.5489,-0.5485,-0.5152,-0.4931,-0.4594,-0.4601,-0.4616,-0.4397,-0.433,-0.4341,-0.4278,-0.4369,-0.448,-0.4592,-0.4594,-0.4594,-0.4374,-0.4713,-0.525,-0.5284,-0.4539,-0.3921,-0.3759,-0.297,-0.212,-0.1212,-0.0505,-0.0101,-1.012,-1.0019,-1.0141,-1.0195,-1.0185,-0.9938,-0.9568,-0.9217,-0.9217,-0.9095,-0.8857,-0.8857,-0.8857,-0.8857,-0.8857,-0.8976,-0.9223,-0.9338,-0.9653,-0.9807,-1.0052,-1.0186,-1.0317,-1.032,-1.0384,-1.0501,-1.0927,-1.0941,-1.0673,-1.1237,-1.1251,-1.0721,-1.1516,-1.1912,-1.1644,0.0,0.0,0.0,-1.1115,-1.138,-1.1648,-1.1909,-1.2285,-1.2505,-1.2346,0.0,-1.2118,-1.2444,-1.2643,-1.2492,-1.2479,0.0,0.0,0.0,0.0,0.0,0.0,0.0,0.0,0.0,0.0,0.0,-1.0957,-1.041,-0.9171,-0.9096,-0.9113,-0.911,-0.9008,-0.8937,-0.8937,-0.8937,-0.8823,-0.8598,-0.8595,-0.8377,-0.8045,-0.7823,-0.7607,-0.7607,-0.7379,-0.7043,-0.6824,-0.6715,-0.6495,-0.6274,-0.5938,-0.5712,-0.5712,-0.5489,-0.527,-0.5272,-0.5207,-0.5252,-0.5256,-0.5041,-0.4922,-0.5069,-0.4707,-0.4594,-0.4817,-0.4706,-0.4706,-0.4707,-0.4931,-0.4927,-0.4795,-0.4463,-0.4153,-0.3603,-0.3305,-0.2826,-0.222,-0.1313,-0.0606,-1.0093,0.0,-1.0164,-1.0209,0.0,-1.0114,-0.9925,-0.979,-0.9645,-0.9457,-0.9342,-0.9413,-0.9406,-0.9342,-0.9413,-0.9529,-0.9585,-0.9658,-0.9858,-1.0053,-1.0127,-1.0246,-1.0388,-1.0513,-1.0722,-1.0864,-1.113,-1.1304,-1.1247,-1.1909,-1.2165,-1.1769,-1.2692,-1.2964,-1.2828,-1.3218,-1.2955,-1.2297,-1.2433,-1.2565,-1.2828,-1.3095,-1.3486,-1.3604,0.0,0.0,0.0,0.0,0.0,0.0,0.0,0.0,0.0,0.0,0.0,-1.2616,-1.2516,-1.2456,-1.223,-1.2112,-1.1968,-1.1682,-1.1699,-1.1277,-1.0307,-0.9676,-0.9459,-0.9724,-0.9356,-0.9045,-0.9042,-0.8984,-0.8823,-0.8712,-0.8709,-0.8598,-0.8266,-0.7934,-0.7718,-0.7607,-0.7379,-0.7154,-0.6935,-0.6715,-0.6497,-0.6274,-0.5938,-0.5603,-0.5601,-0.5491,-0.5382,-0.5388,-0.5496,-0.5424,-0.5244,-0.5186,-0.5069,-0.5081,-0.4931,-0.4819,-0.5044,-0.5044,-0.4931,-0.5156,-0.5156,-0.5044,-0.5033,-0.4828,-0.4638,-0.4303,-0.4014,-0.3722,-0.3279,-0.2641,-0.1918,-1.011,-1.0307,-1.0209,-1.0243,-1.0348,-1.0195,-1.0188,-1.0263,0.0,0.0,0.0,-1.0005,-0.9981,-0.9873,-0.9964,-0.9941,-0.9943,-0.9822,-1.0012,-1.0132,-1.0132,-1.0215,-1.0489,-1.0745,-1.0948,-1.1095,-1.1383,-1.1728,-1.1995,-1.2676,-1.2947,-1.3083,-1.3739,-1.4137,-1.4263,-1.4263,-1.4137,-1.387,-1.3875,-1.401,-1.401,-1.4403,-1.4665,-1.4665,-1.4498,-1.4519,-1.461,-1.4409,-1.4213,-1.4062,-1.3863,-1.3674,-1.3514,-1.3462,-1.3362,-1.3197,-1.3173,-1.3022,-1.2718,-1.2613,-1.2438,-1.2109,-1.1997,-1.1749,-1.1458,-1.0491,-1.0144,-1.0473,-0.9853,-0.9422,-0.9415,-0.9174,-0.8977,-0.8866,-0.8843,-0.8712,-0.8374,-0.8045,-0.7826,-0.7607,-0.7382,-0.7268,-0.7154,-0.6826,-0.6386,-0.6274,-0.5826,-0.5491,-0.5382,-0.5382,-0.539,-0.5418,-0.552,-0.5444,-0.5125,-0.5171,-0.5207,-0.5071,-0.5043,-0.5044,-0.527,-0.5382,-0.5382,-0.5382,-0.5382,-0.5382,-0.5375,-0.5304,-0.5249,-0.5134,-0.4744,-0.4454,-0.4283,-0.3903,-0.3347,-1.0538,-1.047,-1.0578,-1.0639,-1.0649,-1.0497,-1.0375,-1.028,-1.0232,-1.0215,-1.0209,-1.0346,-1.0287,-1.0012,-1.0145,-1.0207,-1.0183,-1.0183,-1.044,0.0,-1.0701,-1.0793,-1.0948,-1.0952,-1.1036,-1.1198,-1.1717,-1.2185,-1.2483,-1.3274,-1.3744,-1.3875,-1.4791,-1.5308,-1.5429,-1.5574,-1.5709,-1.5834,-1.4926,-1.4272,-1.4403,-1.5052,-1.5443,-1.5709,-1.5679,-1.544,-1.5003,-1.4935,-1.4697,-1.4274,-1.4076,-1.3953,-1.392,-1.3745,-1.3632,-1.3603,-1.3599,-1.3618,-1.3522,-1.3526,-1.354,-1.3439,-1.2964,-1.2333,-1.1803,-1.145,-1.1252,-1.1334,-1.0597,-1.0152,-1.0141,-0.9553,-0.9123,-0.8778,-0.8673,-0.838,-0.7841,-0.7727,-0.7727,-0.7616,-0.7607,-0.7382,-0.7265,-0.7043,-0.6826,-0.6383,-0.6049,-0.5712,-0.5493,-0.5382,-0.5414,-0.5471,-0.5508,-0.5514,-0.537,-0.5388,-0.5376,-0.5288,-0.527,-0.527,-0.5382,-0.5382,-0.5382,-0.5382,-0.5382,-0.5382,-0.538,-0.5308,-0.5263,-0.5251,-0.5078,-0.4904,-0.4874,-0.4796,-0.4309,-1.0287,-1.0368,-1.0361,-1.0402,-1.048,-1.0487,-1.0456,-1.0405,-1.0743,-1.068,-1.0668,-1.0922,-1.0958,-1.0674,-1.0809,-1.0714,-1.0547,-1.0547,-1.0664,-1.0789,-1.0793,-1.083,-1.0897,-1.1027,-1.1241,-1.1408,-1.2328,-1.2846,-1.3217,-1.4433,-1.5052,-1.5052,-1.5964,-1.6348,-1.6343,-1.6483,-1.6623,-1.6644,-1.5979,-1.5583,-1.5583,-1.6099,-1.6359,-1.6234,-1.6488,-1.6317,-1.5827,-1.5583,-1.5214,-1.4736,-1.4304,-1.4057,-1.4156,-1.3863,-1.374,-1.3849,-1.3755,-1.3688,-1.3688,-1.3688,-1.3688,-1.3688,-1.3449,-1.3084,-1.2844,-1.2162,-1.1762,-1.2111,-1.1358,-1.0907,-1.0899,-1.0636,-1.0189,-0.9617,-0.955,-0.9174,-0.86,-0.8198,-0.7936,-0.7927,-0.7647,-0.7379,-0.7265,-0.7046,-0.6824,-0.6492,-0.627,-0.5938,-0.5712,-0.5601,-0.5616,-0.5433,-0.5478,-0.5482,-0.5453,-0.5482,-0.5465,-0.5394,-0.5382,-0.5382,-0.5382,-0.5382,-0.5382,-0.5382,-0.5382,-0.5382,-0.5382,-0.5351,-0.5324,-0.5314,-0.5292,-0.5233,-0.5135,-0.5,-0.4585,-1.0107,-1.0314,-1.0164,-1.0171,-1.0293,-1.0432,-1.049,-1.0637,-1.1176,-1.1246,-1.1177,-1.1497,-1.1498,-1.1124,-1.1321,-1.1196,-1.0936,-1.0906,-1.0914,-1.1035,-1.1035,-1.1035,-1.1273,-1.1514,-1.1708,-1.2098,-1.3017,-1.3564,-1.3988,-1.5248,-1.6058,-1.6224,-1.6742,-1.7001,-1.7001,-1.7001,-1.7017,-1.7044,-1.6769,-1.6629,-1.6504,-1.6882,-1.6882,-1.6623,-1.6753,-1.6748,-1.6488,-1.6075,-1.5593,-1.5189,-1.4591,-1.4342,-1.4355,-1.4033,-1.3906,-1.4038,-1.3877,-1.3736,-1.3693,-1.3688,-1.3688,-1.3688,-1.3688,-1.3688,-1.3444,-1.2479,-1.2113,-1.2582,-1.2111,-1.1676,-1.1537,-1.1399,-1.1057,-1.0477,-1.0319,-0.9939,-0.9364,-0.882,-0.8394,-0.8363,-0.7818,-0.7527,-0.739,-0.7182,-0.698,-0.6758,-0.6624,-0.6381,-0.6044,-0.5933,-0.5822,-0.5613,-0.5552,-0.5451,-0.5396,-0.5431,-0.5443,-0.5388,-0.5382,-0.5382,-0.5382,-0.5382,-0.5382,-0.5382,-0.5382,-0.5382,-0.5382,-0.538,-0.5375,-0.5371,-0.5363,-0.5314,-0.5141,-0.4992,-0.4764,-1.0436,-1.0449,-1.03,-1.0266,-1.029,-1.0426,-1.0739,-1.1023,-1.1571,-1.1901,-1.2084,-1.1976,-1.1683,-1.1389,-1.1502,-1.146,-1.1285,-1.1269,-1.1402,-1.178,-1.1651,-1.201,-1.2487,-1.2603,-1.2848,-1.3389,-1.369,-1.4175,-1.4853,-1.5352,-1.6028,-1.685,-1.7001,-1.7001,-1.7001,-1.7001,-1.7001,-1.7007,-1.7007,-1.6753,-1.6499,-1.6882,-1.7001,-1.7001,-1.6753,-1.6499,-1.6504,-1.6213,-1.5814,-1.5549,-1.5194,-1.4822,-1.4577,-1.4378,-1.426,-1.4274,-1.409,-1.3901,-1.3717,-1.3688,-1.3688,-1.3688,-1.3688,-1.3444,-1.284,-1.247,-1.247,-1.259,-1.2582,-1.232,-1.184,-1.1573,-1.124,-1.076,-1.0412,-0.9957,-0.9165,-0.8907,-0.8852,-0.8713,-0.8461,-0.8408,-0.797,-0.7909,-0.7641,-0.6945,-0.6985,-0.6935,-0.6604,-0.6379,-0.6154,-0.6042,-0.5837,-0.5506,-0.5384,-0.5386,-0.5396,-0.5384,-0.5382,-0.5382,-0.5382,-0.5382,-0.5382,-0.5382,-0.5382,-0.5382,-0.5382,-0.5382,-0.5382,-0.5489,-0.5477,-0.5322,-0.5153,-0.5022,-0.4932,-1.0232,-1.0212,-1.007,-1.0436,-1.1022,-1.1088,-1.1288,-1.1764,-1.2086,-1.2383,-1.2503,-1.2685,-1.2615,-1.2536,-1.2845,-1.2957,-1.2878,-1.2772,-1.2906,-1.313,-1.3139,-1.326,-1.3494,-1.3499,-1.362,-1.3868,-1.4319,-1.4734,-1.5029,-1.5675,-1.6318,-1.678,-1.6802,-1.6872,-1.699,-1.7001,-1.7001,-1.7001,-1.7001,-1.6877,-1.6882,-1.6872,-1.7001,-1.7001,-1.6877,-1.6748,-1.6753,-1.6229,-1.5974,-1.5704,-1.5124,-1.4814,-1.4799,-1.4492,-1.4369,-1.4468,-1.4189,-1.392,-1.3707,-1.3688,-1.3688,-1.3688,-1.3688,-1.3449,-1.2719,-1.2084,-1.1599,-1.1627,-1.1877,-1.2238,-1.223,-1.1935,-1.1531,-1.1283,-1.0867,-1.0231,-0.9523,-0.9206,-0.8984,-0.8852,-0.8638,-0.8426,-0.8088,-0.7871,-0.7682,-0.723,-0.7179,-0.7157,-0.6824,-0.6492,-0.627,-0.6044,-0.5603,-0.5493,-0.5382,-0.5382,-0.5382,-0.5382,-0.5382,-0.5382,-0.5382,-0.5382,-0.5382,-0.5382,-0.5382,-0.5382,-0.5382,-0.5382,-0.538,-0.5594,-0.576,-0.5696,-0.5454,-0.5352,-0.5152,-1.0114,-1.0083,-1.0148,-1.0734,-1.1468,-1.1757,-1.2093,-1.2586,-1.2888,-1.3044,-1.3161,-1.3492,-1.3719,-1.383,-1.3985,-1.4048,-1.3977,-1.3896,-1.3929,-1.4057,-1.4019,-1.4113,-1.4231,-1.4168,-1.4266,-1.4513,-1.4877,-1.516,-1.5349,-1.5873,-1.6334,-1.6538,-1.663,-1.6748,-1.7038,-1.6964,-1.7001,-1.7001,-1.7001,-1.7001,-1.7001,-1.7001,-1.7001,-1.7001,-1.6877,-1.6882,-1.7001,-1.6364,-1.5974,-1.5969,-1.5311,-1.4914,-1.4907,-1.4638,-1.4501,-1.4511,-1.427,-1.3972,-1.3712,-1.3688,-1.3688,-1.3688,-1.3688,-1.3329,-1.247,-1.135,-1.0744,-1.066,-1.0906,-1.1514,-1.1997,-1.1997,-1.176,-1.1514,-1.1031,-1.0547,-0.9926,-0.9473,-0.9347,-0.9059,-0.8829,-0.8483,-0.8242,-0.7973,-0.7621,-0.7547,-0.7519,-0.7487,-0.7157,-0.6937,-0.6606,-0.6267,-0.5824,-0.5493,-0.5382,-0.5382,-0.5382,-0.5382,-0.5382,-0.5382,-0.5382,-0.5382,-0.5382,-0.5382,-0.5382,-0.5365,-0.5341,-0.5341,-0.5596,-0.5804,-0.6081,-0.5985,-0.5665,-0.5563,-0.5357,-1.027,-1.0345,-1.0923,-1.1288,-1.1417,-1.2424,-1.3115,-1.3391,-1.3572,-1.3788,-1.4121,-1.4578,-1.4739,-1.4754,-1.4547,-1.4175,-1.4029,-1.4261,-1.4466,-1.449,-1.4199,-1.4358,-1.4958,-1.4751,-1.4903,-1.5454,-1.5422,-1.5622,-1.5924,-1.5951,-1.6091,-1.6328,-1.6522,-1.6789,-1.6992,-1.7022,-1.6996,-1.7001,-1.7001,-1.7001,-1.7001,-1.7001,-1.7001,-1.7001,-1.6753,-1.6753,-1.6877,-1.6359,-1.5974,-1.5974,-1.5574,-1.5318,-1.4931,-1.4898,-1.4709,-1.4383,-1.4303,-1.4104,-1.3755,-1.3688,-1.3688,-1.3688,-1.3688,-1.3204,-1.2113,-1.0744,-1.0016,-0.9937,-1.0061,-1.0304,-1.091,-1.1273,-1.1394,-1.1031,-1.0789,-1.0425,-0.9819,-0.9805,-0.9673,-0.9449,-0.9221,-0.901,-0.8681,-0.8236,-0.8112,-0.8039,-0.823,-0.8266,-0.8045,-0.7715,-0.7271,-0.6824,-0.6267,-0.5712,-0.5493,-0.5382,-0.5382,-0.5382,-0.5382,-0.5382,-0.5382,-0.5382,-0.5382,-0.5382,-0.5382,-0.5357,-0.53,-0.552,-0.5901,-0.6121,-0.6191,-0.6101,-0.5808,-0.5782,-0.5576,-1.0542,-1.0971,-1.1808,-1.2461,-1.3204,-1.3629,-1.3903,-1.4154,-1.4222,-1.4382,-1.4499,-1.4666,-1.4996,-1.5377,-1.5359,-1.5299,-1.5333,-1.5155,-1.5273,-1.5618,-1.5437,-1.5611,-1.5976,-1.564,-1.5666,-1.5994,-1.5747,-1.5639,-1.5709,-1.5725,-1.5844,-1.6048,-1.6161,-1.648,-1.6894,-1.6881,-1.685,-1.699,-1.7001,-1.7001,-1.7001,-1.7001,-1.7001,-1.7001,-1.6877,-1.6748,-1.6623,-1.6229,-1.5849,-1.5724,-1.5328,-1.5066,-1.4922,-1.4808,-1.4615,-1.434,-1.4194,-1.3991,-1.3736,-1.3688,-1.3688,-1.3688,-1.3688,-1.3324,-1.235,-1.0865,-1.0013,-1.0293,-1.0061,-0.994,-1.0061,-1.0425,-1.055,-1.0789,-1.0425,-1.0061,-0.9819,-0.9815,-0.971,-0.9432,-0.9232,-0.8957,-0.8696,-0.8406,-0.8285,-0.81,-0.8183,-0.8162,-0.7937,-0.7382,-0.7049,-0.6604,-0.6049,-0.5493,-0.5493,-0.5382,-0.5382,-0.5382,-0.5382,-0.5382,-0.5382,-0.5382,-0.5382,-0.5377,-0.538,-0.5552,-0.5484,-0.5784,-0.606,-0.6182,-0.6253,-0.6369,-0.6082,-0.6047,-0.5947,-1.1374,-1.176,-1.2703,-1.3494,-1.4162,-1.4515,-1.4748,-1.4867,-1.4992,-1.4873,-1.4867,-1.4873,-1.5235,-1.5618,-1.5768,-1.5833,-1.5844,-1.5828,-1.6005,-1.6274,-1.6064,-1.6118,-1.6317,-1.6021,-1.5919,-1.6016,-1.5768,-1.5601,-1.5601,-1.5601,-1.5688,-1.5828,-1.5908,-1.6102,-1.6534,-1.6581,-1.6754,-1.6877,-1.6964,-1.7001,-1.7001,-1.7001,-1.7001,-1.7001,-1.7001,-1.6882,-1.6504,-1.6234,-1.5849,-1.5463,-1.5066,-1.4936,-1.4917,-1.4804,-1.4605,-1.434,-1.4185,-1.3981,-1.3736,-1.3688,-1.3688,-1.3688,-1.3688,-1.3444,-1.2715,-1.1238,-1.0759,-1.066,-1.0183,-0.9819,-0.9819,-0.9819,-0.9943,-1.0304,-1.0065,-0.9819,-0.9815,-0.9781,-0.9612,-0.9344,-0.91,-0.8853,-0.8709,-0.8598,-0.8491,-0.8269,-0.8269,-0.8159,-0.7937,-0.7382,-0.6826,-0.6495,-0.6049,-0.5714,-0.5714,-0.5714,-0.5603,-0.5603,-0.5603,-0.5491,-0.5491,-0.5493,-0.5382,-0.5375,-0.545,-0.5615,-0.5787,-0.607,-0.6185,-0.6211,-0.6384,-0.6523,-0.6428,-0.6318,-0.6195,-1.2674,-1.2737,-1.3986,-1.4353,-1.4406,-1.5116,-1.5601,-1.5477,-1.5483,-1.5477,-1.5477,-1.5596,-1.5483,-1.5607,-1.5634,-1.5618,-1.5693,-1.6,-1.6199,-1.6247,-1.6027,-1.5957,-1.6021,-1.5774,-1.5645,-1.5671,-1.5618,-1.5601,-1.5601,-1.5601,-1.5618,-1.565,-1.5828,-1.5951,-1.5719,-1.6295,-1.6651,-1.6615,-1.691,-1.7001,-1.7001,-1.7001,-1.7001,-1.7001,-1.7007,-1.6748,-1.6504,-1.6234,-1.5844,-1.5463,-1.5066,-1.4936,-1.4931,-1.4898,-1.4723,-1.4378,-1.4293,-1.409,-1.3755,-1.3688,-1.3688,-1.3688,-1.3688,-1.332,-1.2719,-1.1868,-1.1265,-1.0785,-1.0183,-0.9819,-0.9819,-0.9819,-0.9822,-0.9822,-0.9822,-0.9819,-0.9798,-0.969,-0.9496,-0.9235,-0.9042,-0.8947,-0.8937,-0.8826,-0.8826,-0.8826,-0.8826,-0.8605,-0.8266,-0.7715,-0.7271,-0.6826,-0.6272,-0.5938,-0.5935,-0.6047,-0.5935,-0.5935,-0.5822,-0.571,-0.5601,-0.5601,-0.5493,-0.5483,-0.582,-0.5973,-0.5989,-0.6278,-0.6219,-0.6263,-0.6575,-0.6636,-0.6536,-0.6417,-0.6391,-1.3354,-1.3448,-1.4674,-1.5093,-1.525,-1.5477,-1.5601,-1.5601,-1.5601,-1.5601,-1.5601,-1.5601,-1.5601,-1.5601,-1.5601,-1.5601,-1.5618,-1.5768,-1.5908,-1.6,-1.5822,-1.5887,-1.6059,-1.5785,-1.5601,-1.5601,-1.5601,-1.5601,-1.5601,-1.5601,-1.5601,-1.5623,-1.5671,-1.5881,-1.6038,-1.6355,-1.6549,-1.6872,-1.6964,-1.7001,-1.7001,-1.7001,-1.7001,-1.7007,-1.6753,-1.6499,-1.6234,-1.6099,-1.5714,-1.5062,-1.4936,-1.4936,-1.4912,-1.4804,-1.4596,-1.434,-1.4175,-1.3991,-1.3745,-1.3688,-1.3688,-1.3564,-1.32,-1.2835,-1.2475,-1.1253,-1.0653,-1.0664,-1.0183,-0.9819,-0.9819,-0.9819,-0.9819,-0.9819,-0.9819,-0.9819,-0.9785,-0.9612,-0.9432,-0.931,-0.9093,-0.8954,-0.894,-0.894,-0.8937,-0.8937,-0.8937,-0.8712,-0.8266,-0.7712,-0.7157,-0.6712,-0.6379,-0.6158,-0.6158,-0.627,-0.627,-0.6158,-0.5933,-0.5822,-0.571,-0.5708,-0.5601,-0.5757,-0.6086,-0.6197,-0.631,-0.6297,-0.624,-0.6315,-0.6514,-0.6524,-0.6386,-0.6406,-0.6498,-1.4038,-1.4314,-1.5044,-1.5455,-1.5612,-1.5601,-1.5601,-1.5601,-1.5601,-1.5601,-1.5601,-1.5601,-1.5601,-1.5601,-1.5601,-1.5601,-1.5601,-1.5601,-1.5677,-1.5785,-1.5682,-1.5779,-1.6005,-1.5763,-1.5601,-1.5601,-1.5601,-1.5601,-1.5601,-1.5601,-1.5601,-1.5601,-1.5601,-1.5785,-1.6156,-1.628,-1.6517,-1.684,-1.6958,-1.7001,-1.7001,-1.7001,-1.7001,-1.7007,-1.6629,-1.6369,-1.5974,-1.5844,-1.5583,-1.5062,-1.4936,-1.4936,-1.4922,-1.4813,-1.4615,-1.435,-1.4189,-1.4005,-1.374,-1.3449,-1.3329,-1.3204,-1.2719,-1.2359,-1.2113,-1.0763,-1.0162,-1.0543,-1.0186,-0.9819,-0.9819,-0.9819,-0.9819,-0.9819,-0.9819,-0.9795,-0.9734,-0.9585,-0.9445,-0.9354,-0.9167,-0.9049,-0.9015,-0.8957,-0.8944,-0.8937,-0.8823,-0.8602,-0.8045,-0.7487,-0.7046,-0.6712,-0.6381,-0.627,-0.6495,-0.6495,-0.6606,-0.6381,-0.6047,-0.5933,-0.5822,-0.5929,-0.5924,-0.5997,-0.63,-0.6076,-0.6085,-0.622,-0.6266,-0.6358,-0.645,-0.6473,-0.6468,-0.6637,-0.6628,-1.4709,-1.4963,-1.5333,-1.556,-1.5612,-1.5601,-1.5601,-1.5601,-1.5601,-1.5601,-1.5601,-1.5601,-1.5601,-1.5601,-1.5601,-1.5601,-1.5601,-1.5601,-1.5607,-1.5628,-1.5601,-1.565,-1.5661,-1.5623,-1.5601,-1.5601,-1.5601,-1.5601,-1.5601,-1.5601,-1.5601,-1.5601,-1.5607,-1.5715,-1.5978,-1.6194,-1.6441,-1.6689,-1.6894,-1.7001,-1.7001,-1.7001,-1.7007,-1.6877,-1.6629,-1.6239,-1.5979,-1.5588,-1.5328,-1.4936,-1.4936,-1.4936,-1.4936,-1.4936,-1.4733,-1.4388,-1.4322,-1.3967,-1.369,-1.3093,-1.2724,-1.2603,-1.2371,-1.2134,-1.1631,-1.0649,-1.0044,-1.0547,-1.0183,-0.9819,-0.9819,-0.994,-0.994,-0.9822,-0.9822,-0.9768,-0.9652,-0.9615,-0.9527,-0.9391,-0.9252,-0.9137,-0.9103,-0.9001,-0.8954,-0.8826,-0.8712,-0.8488,-0.8045,-0.749,-0.6937,-0.6604,-0.6492,-0.6604,-0.6717,-0.6495,-0.6606,-0.6383,-0.6158,-0.6156,-0.6028,-0.6241,-0.6299,-0.6463,-0.6427,-0.609,-0.6014,-0.6146,-0.6213,-0.6205,-0.6275,-0.6437,-0.6526,-0.6677,-0.6703,-1.4495,-1.4741,-1.509,-1.5412,-1.5601,-1.5601,-1.5601,-1.5601,-1.5601,-1.5601,-1.5601,-1.5601,-1.5601,-1.5601,-1.5601,-1.5601,-1.5601,-1.5601,-1.5601,-1.5601,-1.5601,-1.5601,-1.5601,-1.5601,-1.5601,-1.5601,-1.5601,-1.5601,-1.5601,-1.5601,-1.5601,-1.5601,-1.5607,-1.5715,-1.5946,-1.6183,-1.6425,-1.6657,-1.6888,-1.7001,-1.7001,-1.7001,-1.6877,-1.6629,-1.6364,-1.5979,-1.5593,-1.5202,-1.5066,-1.4931,-1.4936,-1.4936,-1.4936,-1.4931,-1.4808,-1.4572,-1.4383,-1.3955,-1.3342,-1.2919,-1.2483,-1.1993,-1.1522,-1.1156,-1.1031,-1.0301,-0.9937,-1.0065,-0.9822,-0.9819,-0.9819,-1.0183,-1.0425,-1.0425,-1.0065,-0.9805,-0.9751,-0.9669,-0.9551,-0.9401,-0.9262,-0.915,-0.9052,-0.8988,-0.8947,-0.894,-0.8716,-0.8602,-0.8045,-0.7604,-0.7049,-0.6935,-0.6824,-0.6935,-0.6826,-0.6606,-0.6495,-0.6383,-0.6383,-0.649,-0.6569,-0.6751,-0.6761,-0.6834,-0.6615,-0.6384,-0.6199,-0.6173,-0.6164,-0.6155,-0.6284,-0.6529,-0.65,-0.6657,-0.66,-1.426,-1.4411,-1.4764,-1.5116,-1.5359,-1.5477,-1.5601,-1.5601,-1.5601,-1.5601,-1.5601,-1.5601,-1.5601,-1.5601,-1.5601,-1.5601,-1.5601,-1.5601,-1.5655,-1.5747,-1.5752,-1.5698,-1.5634,-1.5601,-1.5601,-1.5601,-1.5601,-1.5601,-1.5601,-1.5601,-1.5601,-1.5601,-1.5601,-1.572,-1.5935,-1.6081,-1.6334,-1.6619,-1.6802,-1.6899,-1.6996,-1.6877,-1.6753,-1.6369,-1.6109,-1.5588,-1.5332,-1.5202,-1.5066,-1.4936,-1.4936,-1.4936,-1.4936,-1.4936,-1.4837,-1.4643,-1.4435,-1.3969,-1.3154,-1.2591,-1.2005,-1.1394,-1.0789,-1.0425,-1.0304,-0.994,-0.9819,-0.9822,-0.9819,-0.9819,-0.9822,-1.0186,-1.0304,-1.0304,-1.0061,-0.9819,-0.9819,-0.9751,-0.9666,-0.9557,-0.9435,-0.9286,-0.914,-0.9069,-0.9001,-0.8846,-0.8605,-0.838,-0.8045,-0.7604,-0.7271,-0.7157,-0.7046,-0.6935,-0.6935,-0.6715,-0.6717,-0.6606,-0.6826,-0.6824,-0.6787,-0.7059,-0.6832,-0.6714,-0.67,-0.6589,-0.6297,-0.615,-0.6215,-0.6282,-0.6497,-0.6616,-0.6611,-0.6589,-0.6524,-1.4106,-1.4291,-1.456,-1.4908,-1.525,-1.5536,-1.5677,-1.5607,-1.5645,-1.5634,-1.5607,-1.5601,-1.5628,-1.5628,-1.5628,-1.5634,-1.5698,-1.5693,-1.5806,-1.5908,-1.593,-1.5833,-1.5682,-1.5618,-1.5607,-1.5601,-1.5601,-1.5601,-1.5601,-1.5601,-1.5601,-1.5601,-1.5601,-1.5704,-1.5854,-1.5941,-1.6188,-1.6468,-1.6587,-1.67,-1.669,-1.6594,-1.6487,-1.6291,-1.5774,-1.5231,-1.5091,-1.5096,-1.5096,-1.4855,-1.4903,-1.4931,-1.4936,-1.4936,-1.4832,-1.4515,-1.4304,-1.3719,-1.2908,-1.2105,-1.1394,-1.0789,-1.0186,-0.9822,-0.9819,-0.994,-1.0061,-1.0065,-0.994,-1.0183,-1.0183,-1.0061,-0.9943,-1.0065,-0.994,-0.9819,-0.9819,-0.9819,-0.9815,-0.9791,-0.9669,-0.9547,-0.9384,-0.9242,-0.9096,-0.8954,-0.8605,-0.8266,-0.7934,-0.7604,-0.7382,-0.7157,-0.7046,-0.6935,-0.6935,-0.6824,-0.7049,-0.7049,-0.7382,-0.7374,-0.7017,-0.7056,-0.6719,-0.6497,-0.6492,-0.6277,-0.5969,-0.5964,-0.6199,-0.6318,-0.6444,-0.657,-0.6586,-0.6556,-0.6505,-1.4336,-1.4545,-1.5088,-1.5413,-1.5558,-1.5984,-1.5935,-1.5618,-1.579,-1.5741,-1.5628,-1.5601,-1.5698,-1.586,-1.5698,-1.579,-1.607,-1.5984,-1.6005,-1.6183,-1.6021,-1.5941,-1.5822,-1.5693,-1.5607,-1.5601,-1.5601,-1.5601,-1.5601,-1.5601,-1.5601,-1.5601,-1.5607,-1.5623,-1.5693,-1.5854,-1.5973,-1.6124,-1.6285,-1.6289,-1.6228,-1.626,-1.6208,-1.5824,-1.546,-1.4988,-1.4609,-1.4576,-1.4571,-1.4652,-1.4733,-1.4884,-1.4884,-1.4907,-1.4813,-1.4487,-1.3906,-1.3207,-1.2287,-1.1504,-1.0789,-1.0186,-0.9943,-0.9819,-0.9822,-1.0304,-1.0547,-1.0668,-1.1031,-1.1152,-1.1031,-1.0304,-1.0061,-1.0183,-1.0061,-0.9819,-0.9819,-0.9819,-0.9778,-0.9693,-0.9635,-0.951,-0.9259,-0.9208,-0.9089,-0.886,-0.8602,-0.8266,-0.7934,-0.7604,-0.7379,-0.7265,-0.7154,-0.7046,-0.6935,-0.7046,-0.7271,-0.7382,-0.7715,-0.7712,-0.7354,-0.7188,-0.6859,-0.6624,-0.6284,-0.6072,-0.5861,-0.5942,-0.6168,-0.6279,-0.639,-0.6401,-0.651,-0.6497,-0.6364,-1.4625,-1.467,-1.5137,-1.535,-1.5406,-1.5739,-1.5833,-1.565,-1.572,-1.572,-1.5623,-1.5601,-1.5731,-1.5919,-1.5731,-1.586,-1.6237,-1.6312,-1.6285,-1.6301,-1.6167,-1.6064,-1.5903,-1.5731,-1.5601,-1.5601,-1.5601,-1.5601,-1.5601,-1.5601,-1.5601,-1.5601,-1.5601,-1.5607,-1.5601,-1.5725,-1.5838,-1.5957,-1.6064,-1.6065,-1.6043,-1.6064,-1.5846,-1.5342,-1.511,-1.4794,-1.4471,-1.4577,-1.4447,-1.4369,-1.452,-1.4643,-1.4666,-1.4728,-1.4681,-1.4365,-1.3658,-1.2893,-1.2135,-1.126,-1.0543,-0.9822,-0.9819,-1.0061,-1.0183,-1.0668,-1.0906,-1.1273,-1.1514,-1.1639,-1.1273,-1.0547,-1.0186,-1.0183,-1.0061,-0.9819,-0.9819,-0.9819,-0.9802,-0.971,-0.9659,-0.9507,-0.9347,-0.9208,-0.9086,-0.8967,-0.838,-0.8045,-0.7934,-0.7604,-0.7379,-0.7265,-0.7154,-0.7154,-0.7046,-0.7157,-0.7493,-0.7712,-0.7934,-0.7712,-0.7368,-0.7191,-0.7116,-0.6648,-0.619,-0.6174,-0.5979,-0.6062,-0.6139,-0.6353,-0.6456,-0.6442,-0.6442,-0.6361,-0.631,-1.4937,-1.4655,-1.5038,-1.5266,-1.525,-1.5574,-1.5698,-1.5601,-1.5645,-1.5666,-1.5601,-1.5601,-1.5725,-1.5854,-1.5704,-1.5887,-1.6274,-1.6592,-1.6619,-1.6495,-1.6339,-1.6199,-1.6005,-1.5768,-1.5601,-1.5601,-1.5601,-1.5601,-1.5601,-1.5601,-1.5601,-1.5601,-1.5601,-1.5601,-1.5601,-1.5607,-1.5693,-1.5849,-1.5881,-1.5962,-1.599,-1.5776,-1.5412,-1.4933,-1.4754,-1.4591,-1.4423,-1.4409,-1.4437,-1.4084,-1.4117,-1.4241,-1.4274,-1.4435,-1.4487,-1.4279,-1.3367,-1.2649,-1.1955,-1.1111,-1.0304,-0.9943,-0.994,-1.0304,-1.0789,-1.1152,-1.1511,-1.1635,-1.1877,-1.1635,-1.1031,-1.0304,-0.994,-0.9819,-0.9819,-0.9819,-0.9815,-0.9808,-0.9768,-0.9751,-0.9652,-0.9517,-0.9354,-0.9205,-0.9083,-0.887,-0.8396,-0.7937,-0.7823,-0.7601,-0.7379,-0.7265,-0.7154,-0.7268,-0.7271,-0.749,-0.7712,-0.7934,-0.8156,-0.7823,-0.7368,-0.718,-0.6986,-0.6328,-0.5989,-0.609,-0.6202,-0.6253,-0.6337,-0.6437,-0.6437,-0.6437,-0.6337,-0.6337,-0.6171,-1.5028,-1.5012,-1.5565,-1.5779,-1.5558,-1.6005,-1.593,-1.5666,-1.5785,-1.5768,-1.5612,-1.5607,-1.5725,-1.5838,-1.5704,-1.5876,-1.6312,-1.6667,-1.6861,-1.6727,-1.6615,-1.6355,-1.6124,-1.5779,-1.5612,-1.5601,-1.5601,-1.5601,-1.5601,-1.5601,-1.5601,-1.5601,-1.5601,-1.5601,-1.5601,-1.5601,-1.5618,-1.5693,-1.5698,-1.5616,-1.5408,-1.5304,-1.5063,-1.4726,-1.4597,-1.4334,-1.3961,-1.3923,-1.3792,-1.3807,-1.3967,-1.3948,-1.3939,-1.417,-1.4222,-1.3853,-1.2899,-1.2196,-1.1845,-1.0819,-1.0429,-1.0429,-1.0668,-1.091,-1.1514,-1.1997,-1.2113,-1.2118,-1.1997,-1.1756,-1.1635,-1.0547,-0.994,-0.9819,-0.9819,-0.9819,-0.9802,-0.9751,-0.968,-0.9673,-0.9608,-0.951,-0.9208,-0.9054,-0.895,-0.8752,-0.8279,-0.7937,-0.7826,-0.7601,-0.7265,-0.7154,-0.7154,-0.7379,-0.7496,-0.7712,-0.8045,-0.8156,-0.8152,-0.7934,-0.7572,-0.7163,-0.6851,-0.6445,-0.6243,-0.6243,-0.6358,-0.6372,-0.6337,-0.6437,-0.6437,-0.6437,-0.6337,-0.6234,-0.6182,-1.5353,-1.5369,-1.5725,-1.5704,-1.565,-1.5833,-1.5817,-1.5639,-1.5709,-1.5704,-1.5628,-1.5612,-1.5725,-1.5838,-1.5704,-1.5871,-1.6307,-1.6651,-1.6818,-1.6727,-1.649,-1.6252,-1.6108,-1.5752,-1.5639,-1.5601,-1.5601,-1.5601,-1.5601,-1.5601,-1.5601,-1.5601,-1.5601,-1.5601,-1.5601,-1.5601,-1.5601,-1.5601,-1.5477,-1.524,-1.5116,-1.4997,-1.4769,-1.4565,-1.4375,-1.413,-1.3827,-1.3679,-1.3693,-1.3717,-1.3792,-1.3773,-1.3788,-1.3835,-1.3836,-1.326,-1.2508,-1.1987,-1.1776,-1.1152,-1.1031,-1.1277,-1.1273,-1.1394,-1.1756,-1.1997,-1.2238,-1.2118,-1.2118,-1.1635,-1.1273,-1.0425,-0.994,-0.9819,-0.9819,-0.9819,-0.9805,-0.9751,-0.9683,-0.9595,-0.9439,-0.9215,-0.8997,-0.8874,-0.8795,-0.8526,-0.8162,-0.8045,-0.7826,-0.749,-0.7154,-0.7268,-0.7379,-0.7712,-0.7826,-0.8045,-0.8266,-0.8374,-0.8263,-0.7934,-0.7593,-0.7309,-0.7018,-0.6832,-0.6722,-0.6505,-0.6497,-0.6505,-0.6472,-0.6337,-0.6239,-0.6239,-0.6139,-0.6121,-0.5981,-1.5601,-1.5601,-1.5601,-1.5601,-1.5601,-1.5601,-1.5607,-1.5601,-1.5607,-1.5612,-1.5601,-1.5607,-1.5698,-1.5801,-1.5801,-1.5892,-1.6258,-1.6479,-1.6581,-1.6506,-1.6306,-1.6084,-1.5887,-1.5736,-1.5601,-1.5601,-1.5601,-1.5601,-1.5601,-1.5601,-1.5601,-1.5601,-1.5601,-1.5601,-1.5601,-1.5601,-1.5601,-1.5477,-1.5235,-1.5116,-1.5002,-1.4769,-1.453,-1.453,-1.4291,-1.4052,-1.3918,-1.3684,-1.3688,-1.3688,-1.3703,-1.3693,-1.3688,-1.3569,-1.3204,-1.2724,-1.2238,-1.1997,-1.1997,-1.1756,-1.1635,-1.1997,-1.1997,-1.1997,-1.1997,-1.1997,-1.1877,-1.1756,-1.1635,-1.1394,-1.091,-1.0186,-0.9822,-0.9819,-0.9819,-0.9819,-0.9805,-0.9761,-0.9686,-0.954,-0.931,-0.9195,-0.8921,-0.8825,-0.8752,-0.8517,-0.8156,-0.7937,-0.7715,-0.749,-0.7265,-0.7379,-0.7601,-0.8042,-0.8266,-0.8377,-0.8488,-0.8374,-0.8263,-0.7934,-0.7601,-0.7368,-0.7185,-0.701,-0.6891,-0.6671,-0.6654,-0.6535,-0.6475,-0.6339,-0.6142,-0.6042,-0.6042,-0.5934,-0.581,-1.5601,-1.5601,-1.5601,-1.5601,-1.5601,-1.5601,-1.5601,-1.5601,-1.5601,-1.5601,-1.5601,-1.5601,-1.5623,-1.5682,-1.5849,-1.593,-1.6064,-1.6231,-1.635,-1.6296,-1.6176,-1.6035,-1.5903,-1.5704,-1.5618,-1.5601,-1.5601,-1.5601,-1.5601,-1.5601,-1.5601,-1.5601,-1.5601,-1.5601,-1.5601,-1.5601,-1.5601,-1.5601,-1.5235,-1.4997,-1.4769,-1.4655,-1.465,-1.4411,-1.4172,-1.4052,-1.4047,-1.3928,-1.3688,-1.3688,-1.3688,-1.3688,-1.3569,-1.308,-1.284,-1.2719,-1.2603,-1.2599,-1.2479,-1.2238,-1.2238,-1.2479,-1.2599,-1.2599,-1.2238,-1.1881,-1.1635,-1.1756,-1.1273,-1.091,-1.0668,-1.0183,-0.994,-0.9819,-0.9819,-0.9819,-0.9812,-0.9781,-0.9707,-0.9568,-0.9364,-0.9235,-0.9037,-0.8923,-0.8826,-0.8491,-0.8156,-0.7937,-0.7604,-0.7379,-0.7376,-0.7601,-0.7823,-0.8263,-0.8488,-0.8712,-0.8709,-0.8595,-0.8263,-0.7934,-0.7712,-0.7493,-0.7268,-0.7076,-0.6959,-0.6828,-0.6695,-0.6581,-0.648,-0.6239,-0.6139,-0.6042,-0.6042,-0.5834,-0.5627,-1.5601,-1.5601,-1.5601,-1.5601,-1.5601,-1.5601,-1.5601,-1.5601,-1.5601,-1.5601,-1.5601,-1.5601,-1.5601,-1.5645,-1.5838,-1.5946,-1.5973,-1.6059,-1.6102,-1.6064,-1.5887,-1.5763,-1.5725,-1.565,-1.5607,-1.5601,-1.5601,-1.5601,-1.5601,-1.5601,-1.5601,-1.5601,-1.5601,-1.5601,-1.5601,-1.5601,-1.5601,-1.5477,-1.5235,-1.4883,-1.465,-1.4644,-1.4764,-1.465,-1.452,-1.4406,-1.4286,-1.4172,-1.3928,-1.3813,-1.3688,-1.3688,-1.3688,-1.3444,-1.3324,-1.3329,-1.3329,-1.3084,-1.2719,-1.2719,-1.2964,-1.2964,-1.284,-1.2354,-1.1877,-1.1394,-1.1031,-1.0668,-1.0789,-1.0668,-1.0304,-0.994,-0.9819,-0.9819,-0.9819,-0.9819,-0.9812,-0.9781,-0.9717,-0.9568,-0.9429,-0.9303,-0.9167,-0.8917,-0.8615,-0.8159,-0.7934,-0.7823,-0.7604,-0.7493,-0.7601,-0.7823,-0.8156,-0.8484,-0.8712,-0.8823,-0.8823,-0.8709,-0.8484,-0.8266,-0.7934,-0.7712,-0.7379,-0.7235,-0.7024,-0.6888,-0.6744,-0.663,-0.6532,-0.6279,-0.6039,-0.6039,-0.5942,-0.5641,-0.5432,-1.5601,-1.5601,-1.5601,-1.5601,-1.5601,-1.5601,-1.5601,-1.5601,-1.5601,-1.5601,-1.5601,-1.5601,-1.5601,-1.5628,-1.5758,-1.5833,-1.5849,-1.586,-1.586,-1.579,-1.5709,-1.5628,-1.5623,-1.5601,-1.5601,-1.5601,-1.5601,-1.5601,-1.5601,-1.5601,-1.5601,-1.5601,-1.5601,-1.5601,-1.5601,-1.5601,-1.5601,-1.5359,-1.5353,-1.5002,-1.453,-1.4878,-1.4883,-1.4769,-1.4764,-1.4759,-1.4401,-1.4167,-1.4052,-1.3813,-1.3688,-1.3688,-1.3688,-1.3688,-1.3569,-1.3569,-1.3569,-1.3329,-1.3084,-1.3084,-1.3569,-1.3209,-1.2599,-1.1752,-1.1152,-1.0668,-1.0422,-0.994,-1.0183,-1.0183,-0.9943,-0.9822,-0.9819,-0.9819,-0.9819,-0.9819,-0.9815,-0.9795,-0.9764,-0.9669,-0.9523,-0.9242,-0.9097,-0.893,-0.8517,-0.7832,-0.7715,-0.7712,-0.7712,-0.7604,-0.7823,-0.8156,-0.8377,-0.8709,-0.8823,-0.8937,-0.8937,-0.8823,-0.8598,-0.8377,-0.7937,-0.7715,-0.7493,-0.7334,-0.7067,-0.6989,-0.6869,-0.6725,-0.6584,-0.63,-0.6137,-0.6039,-0.5842,-0.5441,-0.5238,-1.5601,-1.5601,-1.5601,-1.5601,-1.5601,-1.5601,-1.5601,-1.5601,-1.5601,-1.5601,-1.5601,-1.5601,-1.5601,-1.5612,-1.5628,-1.5661,-1.5639,-1.5623,-1.565,-1.5645,-1.5601,-1.5601,-1.5601,-1.5601,-1.5601,-1.5601,-1.5601,-1.5601,-1.5601,-1.5601,-1.5601,-1.5601,-1.5601,-1.5601,-1.5601,-1.5601,-1.5477,-1.5359,-1.5359,-1.524,-1.4888,-1.4883,-1.4997,-1.4769,-1.4655,-1.4535,-1.4291,-1.4172,-1.4052,-1.3688,-1.3688,-1.3688,-1.3688,-1.3688,-1.3688,-1.3688,-1.3569,-1.3204,-1.2964,-1.3084,-1.3204,-1.2599,-1.1756,-1.1027,-1.0668,-1.0186,-0.9822,-0.9822,-0.994,-0.994,-0.9819,-0.9819,-0.9819,-0.9819,-0.9819,-0.9819,-0.9819,-0.9819,-0.9788,-0.9744,-0.9602,-0.9275,-0.9,-0.8828,-0.8517,-0.794,-0.7715,-0.7715,-0.7823,-0.7826,-0.8152,-0.8484,-0.8712,-0.8823,-0.8826,-0.8937,-0.8826,-0.8712,-0.8595,-0.8266,-0.7829,-0.7607,-0.7496,-0.7371,-0.7111,-0.7054,-0.6986,-0.6834,-0.6679,-0.6414,-0.6237,-0.5939,-0.5741,-0.5441,-0.524,-1.5601,-1.5601,-1.5601,-1.5601,-1.5601,-1.5601,-1.5601,-1.5601,-1.5601,-1.5601,-1.5601,-1.5601,-1.5601,-1.5601,-1.5601,-1.5601,-1.5601,-1.5601,-1.5601,-1.5601,-1.5601,-1.5601,-1.5601,-1.5601,-1.5601,-1.5601,-1.5601,-1.5601,-1.5601,-1.5601,-1.5601,-1.5601,-1.5601,-1.5601,-1.5601,-1.5601,-1.5483,-1.5477,-1.5483,-1.5359,-1.5121,-1.524,-1.5235,-1.4997,-1.4883,-1.4769,-1.453,-1.4291,-1.4052,-1.3808,-1.3688,-1.3688,-1.3688,-1.3688,-1.3688,-1.3688,-1.3449,-1.3084,-1.2719,-1.2844,-1.2599,-1.1631,-1.1031,-1.0668,-1.0308,-0.9943,-0.9822,-0.9819,-0.9819,-0.9819,-0.9819,-0.9819,-0.9819,-0.9819,-0.9819,-0.9819,-0.9819,-0.9819,-0.9761,-0.97,-0.954,-0.9235,-0.897,-0.8716,-0.8317,-0.7937,-0.7826,-0.7829,-0.7937,-0.8156,-0.8377,-0.8598,-0.8823,-0.8826,-0.8937,-0.8937,-0.8826,-0.8712,-0.8595,-0.8266,-0.7937,-0.7718,-0.7496,-0.7379,-0.7257,-0.7199,-0.7013,-0.6918,-0.6771,-0.6487,-0.6186,-0.5842,-0.5641,-0.534,-0.524,-1.5601,-1.5601,-1.5601,-1.5601,-1.5601,-1.5601,-1.5601,-1.5601,-1.5601,-1.5601,-1.5601,-1.5601,-1.5601,-1.5601,-1.5601,-1.5601,-1.5601,-1.5601,-1.5601,-1.5601,-1.5601,-1.5601,-1.5601,-1.5601,-1.5601,-1.5601,-1.5601,-1.5601,-1.5601,-1.5601,-1.5601,-1.5601,-1.5601,-1.5601,-1.5601,-1.5601,-1.5601,-1.5601,-1.5601,-1.5477,-1.524,-1.5359,-1.5364,-1.4997,-1.4997,-1.4764,-1.453,-1.4291,-1.4052,-1.3808,-1.3688,-1.3688,-1.3688,-1.3688,-1.3688,-1.3569,-1.3324,-1.284,-1.2479,-1.2118,-1.1752,-1.1027,-1.0543,-1.0183,-0.9943,-0.9819,-0.9819,-0.9819,-0.9819,-0.9819,-0.9819,-0.9819,-0.9819,-0.9819,-0.9819,-0.9819,-0.9819,-0.9815,-0.9727,-0.9642,-0.9476,-0.9211,-0.884,-0.8597,-0.8307,-0.8045,-0.8156,-0.8048,-0.8159,-0.8377,-0.8598,-0.8712,-0.8823,-0.8826,-0.8937,-0.8937,-0.8826,-0.8826,-0.8712,-0.8488,-0.8266,-0.7937,-0.7607,-0.7493,-0.7365,-0.7221,-0.7163,-0.698,-0.6828,-0.6651,-0.6251,-0.5854,-0.5639,-0.5338,-0.5138,-1.5601,-1.5601,-1.5601,-1.5601,-1.5601,-1.5601,-1.5601,-1.5601,-1.5601,-1.5601,-1.5601,-1.5601,-1.5601,-1.5601,-1.5601,-1.5601,-1.5601,-1.5601,-1.5601,-1.5601,-1.5601,-1.5601,-1.5601,-1.5601,-1.5601,-1.5601,-1.5601,-1.5601,-1.5601,-1.5601,-1.5601,-1.5601,-1.5601,-1.5601,-1.5601,-1.5601,-1.5601,-1.5601,-1.5601,-1.5359,-1.5353,-1.5472,-1.5245,-1.5007,-1.4883,-1.4764,-1.4411,-1.4296,-1.4052,-1.3813,-1.3808,-1.3688,-1.3564,-1.3688,-1.3688,-1.3449,-1.3569,-1.2964,-1.1997,-1.1273,-1.0789,-1.0668,-1.0304,-0.994,-0.9819,-0.9819,-0.9819,-0.9819,-0.9819,-0.9819,-0.9819,-0.9819,-0.9819,-0.9819,-0.9819,-0.9819,-0.9819,-0.9819,-0.9737,-0.9622,-0.9473,-0.9208,-0.8717,-0.8367,-0.819,-0.8156,-0.8377,-0.8377,-0.8377,-0.8491,-0.8712,-0.8823,-0.8826,-0.8826,-0.8937,-0.8937,-0.8937,-0.8937,-0.8823,-0.8598,-0.8484,-0.8266,-0.7934,-0.7715,-0.7485,-0.7354,-0.721,-0.7056,-0.6902,-0.6642,-0.6264,-0.5869,-0.5651,-0.5336,-0.5035,-1.5601,-1.5601,-1.5601,-1.5601,-1.5601,-1.5601,-1.5601,-1.5601,-1.5601,-1.5601,-1.5601,-1.5601,-1.5601,-1.5601,-1.5601,-1.5601,-1.5601,-1.5601,-1.5601,-1.5601,-1.5601,-1.5601,-1.5601,-1.5601,-1.5601,-1.5601,-1.5601,-1.5601,-1.5601,-1.5601,-1.5601,-1.5601,-1.5601,-1.5601,-1.5601,-1.5601,-1.5601,-1.5601,-1.5601,-1.5601,-1.5483,-1.5483,-1.5364,-1.4888,-1.4883,-1.4644,-1.4291,-1.4177,-1.4052,-1.3808,-1.3808,-1.3808,-1.3444,-1.3564,-1.3444,-1.3084,-1.284,-1.2599,-1.139,-1.0547,-1.0186,-1.0061,-0.994,-0.9819,-0.9819,-0.9819,-0.9819,-0.9819,-0.9819,-0.9819,-0.9819,-0.9822,-0.9822,-0.9819,-0.9819,-0.9819,-0.9819,-0.9819,-0.9764,-0.9622,-0.9476,-0.9134,-0.8623,-0.8453,-0.8285,-0.8263,-0.8484,-0.8484,-0.8488,-0.8712,-0.8826,-0.8826,-0.8937,-0.8937,-0.8937,-0.8937,-0.8937,-0.8937,-0.8712,-0.8595,-0.8484,-0.8484,-0.8156,-0.7937,-0.7715,-0.7604,-0.7346,-0.7188,-0.688,-0.6528,-0.6157,-0.5819,-0.5471,-0.5151,-0.4935,-1.5601,-1.5601,-1.5601,-1.5601,-1.5601,-1.5601,-1.5601,-1.5601,-1.5601,-1.5601,-1.5601,-1.5601,-1.5601,-1.5601,-1.5601,-1.5601,-1.5601,-1.5601,-1.5601,-1.5601,-1.5601,-1.5601,-1.5601,-1.5601,-1.5601,-1.5601,-1.5601,-1.5601,-1.5601,-1.5601,-1.5601,-1.5601,-1.5601,-1.5601,-1.5601,-1.5601,-1.5601,-1.5601,-1.5601,-1.5601,-1.5601,-1.5483,-1.5364,-1.5007,-1.4769,-1.453,-1.4296,-1.4172,-1.4052,-1.4047,-1.3928,-1.3933,-1.3569,-1.3444,-1.3444,-1.284,-1.1997,-1.1877,-1.091,-1.0183,-0.994,-0.9819,-0.9819,-0.9819,-0.9819,-0.9819,-0.9943,-0.994,-0.994,-0.994,-0.994,-0.9943,-0.9943,-0.994,-0.9819,-0.9819,-0.9819,-0.9819,-0.9758,-0.9615,-0.9435,-0.8974,-0.8677,-0.8638,-0.8488,-0.8484,-0.8595,-0.8595,-0.8598,-0.8823,-0.8937,-0.8937,-0.8937,-0.8937,-0.8937,-0.8937,-0.8937,-0.8937,-0.8823,-0.8598,-0.8598,-0.8602,-0.838,-0.8156,-0.8045,-0.7931,-0.759,-0.7318,-0.6923,-0.6506,-0.6165,-0.5728,-0.5315,-0.5063,-0.4836,-1.5591,-1.5596,-1.5596,-1.5585,-1.5596,-1.5601,-1.5601,-1.5601,-1.5601,-1.5601,-1.5601,-1.5601,-1.5601,-1.5601,-1.5601,-1.5601,-1.5601,-1.5601,-1.5601,-1.5601,-1.5601,-1.5601,-1.5601,-1.5601,-1.5601,-1.5601,-1.5601,-1.5601,-1.5601,-1.5601,-1.5601,-1.5601,-1.5601,-1.5601,-1.5601,-1.5601,-1.5601,-1.5601,-1.5601,-1.5601,-1.5601,-1.5601,-1.5245,-1.4888,-1.465,-1.453,-1.4411,-1.4291,-1.4291,-1.4296,-1.4291,-1.4177,-1.4052,-1.3813,-1.3564,-1.284,-1.1635,-1.1031,-1.0789,-1.0183,-0.9819,-0.9819,-0.9822,-0.9822,-0.9819,-0.9819,-1.0065,-1.0183,-1.0304,-1.0304,-1.0308,-1.0186,-1.0065,-0.9943,-0.9819,-0.9819,-0.9819,-0.9788,-0.9724,-0.9585,-0.9282,-0.9087,-0.8815,-0.8634,-0.8618,-0.8755,-0.8752,-0.8823,-0.8823,-0.8823,-0.8937,-0.9047,-0.9047,-0.8937,-0.8937,-0.8937,-0.8937,-0.8937,-0.8937,-0.8823,-0.8826,-0.8826,-0.8605,-0.8491,-0.8484,-0.826,-0.7703,-0.7357,-0.6995,-0.6565,-0.6148,-0.5695,-0.527,-0.497,-0.4832,-1.5451,-1.558,-1.5418,-1.5445,-1.5585,-1.5601,-1.5601,-1.5601,-1.5601,-1.5601,-1.5601,-1.5601,-1.5575,-1.5601,-1.5601,-1.5601,-1.5601,-1.5601,-1.5601,-1.5601,-1.5601,-1.5601,-1.5601,-1.5601,-1.5601,-1.5601,-1.5601,-1.5601,-1.5601,-1.5601,-1.5601,-1.5601,-1.5601,-1.5601,-1.5601,-1.5601,-1.5601,-1.5601,-1.5601,-1.5601,-1.5601,-1.5601,-1.5245,-1.4888,-1.4883,-1.4644,-1.4411,-1.4644,-1.465,-1.453,-1.4764,-1.4644,-1.3813,-1.3693,-1.3449,-1.2359,-1.1152,-1.0183,-1.0543,-1.0183,-0.9819,-0.994,-1.0065,-0.9943,-0.994,-1.0061,-1.0186,-1.0425,-1.0547,-1.0547,-1.0425,-1.0304,-1.0186,-0.9943,-0.9819,-0.9819,-0.9819,-0.9802,-0.9727,-0.9551,-0.9248,-0.9121,-0.8851,-0.8657,-0.8651,-0.891,-0.9018,-0.9078,-0.9047,-0.8937,-0.9047,-0.9158,-0.9047,-0.8937,-0.9051,-0.9047,-0.8937,-0.8937,-0.8937,-0.8937,-0.8937,-0.8937,-0.8826,-0.8712,-0.8595,-0.8156,-0.7715,-0.7365,-0.7017,-0.6551,-0.6139,-0.5669,-0.5331,-0.5029,-0.4855,-1.5246,-1.5429,-1.5311,-1.5338,-1.5435,-1.5354,-1.5316,-1.5332,-1.5418,-1.5424,-1.5332,-1.5408,-1.5461,-1.5472,-1.5548,-1.5601,-1.5601,-1.5601,-1.5601,-1.5601,-1.5591,-1.5601,-1.5601,-1.5601,-1.5601,-1.5601,-1.5601,-1.5601,-1.5601,-1.5601,-1.5601,-1.5601,-1.5601,-1.5601,-1.5601,-1.5601,-1.5601,-1.5601,-1.5601,-1.5601,-1.5601,-1.5601,-1.5245,-1.5002,-1.4997,-1.4883,-1.4644,-1.4997,-1.5002,-1.4764,-1.4878,-1.4406,-1.3569,-1.3204,-1.2483,-1.1514,-1.0668,-1.0183,-1.0183,-1.0183,-1.0061,-1.0061,-1.0183,-1.0304,-1.0304,-1.0425,-1.0547,-1.0785,-1.0789,-1.0668,-1.0547,-1.0304,-1.0061,-0.9822,-0.9822,-0.9819,-0.9819,-0.9819,-0.9686,-0.9513,-0.9371,-0.9138,-0.903,-0.8835,-0.8772,-0.8883,-0.8988,-0.9071,-0.9047,-0.8937,-0.9047,-0.9268,-0.9047,-0.8937,-0.9047,-0.9161,-0.9051,-0.9047,-0.9158,-0.9158,-0.9047,-0.9047,-0.9044,-0.8823,-0.8595,-0.8159,-0.7718,-0.7493,-0.7146,-0.6679,-0.6196,-0.5737,-0.5393,-0.5081,-0.4922,-1.4999,-1.5225,-1.5219,-1.5208,-1.5187,-1.4999,-1.4902,-1.488,-1.5085,-1.509,-1.4977,-1.516,-1.5262,-1.5268,-1.5413,-1.5478,-1.5445,-1.5424,-1.5418,-1.5553,-1.5521,-1.5515,-1.5531,-1.5585,-1.5601,-1.5601,-1.5601,-1.5601,-1.5601,-1.5601,-1.5601,-1.5601,-1.5601,-1.5601,-1.5601,-1.5601,-1.5601,-1.5601,-1.5601,-1.5601,-1.5601,-1.5601,-1.5477,-1.5116,-1.5116,-1.511,-1.5116,-1.5116,-1.5116,-1.4997,-1.4639,-1.4172,-1.3084,-1.2359,-1.1514,-1.091,-1.0304,-1.0183,-1.0183,-1.0304,-1.0304,-1.0425,-1.0422,-1.0543,-1.0668,-1.0543,-1.0664,-1.0785,-1.0789,-1.0668,-1.0547,-1.0425,-1.0183,-0.994,-0.9819,-0.9819,-0.9819,-0.9788,-0.9799,-0.9634,-0.9501,-0.9387,-0.9218,-0.902,-0.9025,-0.9095,-0.9172,-0.9161,-0.9158,-0.9047,-0.9158,-0.9379,-0.9158,-0.8937,-0.9047,-0.9158,-0.9161,-0.9158,-0.9268,-0.9379,-0.9268,-0.9154,-0.9154,-0.893,-0.8709,-0.8269,-0.7826,-0.7604,-0.7157,-0.6591,-0.6093,-0.5784,-0.5463,-0.5156,-0.4949,-1.4756,-1.4972,-1.4972,-1.4972,-1.4966,-1.4912,-1.4772,-1.4627,-1.4676,-1.4772,-1.4907,-1.5101,-1.5133,-1.502,-1.5219,-1.5273,-1.5144,-1.5208,-1.5079,-1.5208,-1.5305,-1.5435,-1.5402,-1.5542,-1.5585,-1.5601,-1.5601,-1.5601,-1.5601,-1.5601,-1.5601,-1.5601,-1.5601,-1.5601,-1.5601,-1.5601,-1.5601,-1.5601,-1.5601,-1.5601,-1.5601,-1.5601,-1.5477,-1.5353,-1.5235,-1.5353,-1.5353,-1.5353,-1.5477,-1.5359,-1.4873,-1.3794,-1.2354,-1.1877,-1.1273,-1.0664,-1.0425,-1.0425,-1.0425,-1.0547,-1.0668,-1.0789,-1.0785,-1.0785,-1.0785,-1.0664,-1.0664,-1.0789,-1.0789,-1.0668,-1.0547,-1.0425,-1.0183,-1.0061,-0.9819,-0.9819,-0.9819,-0.9868,-0.9905,-0.9776,-0.9634,-0.9557,-0.9391,-0.9415,-0.9423,-0.9349,-0.9296,-0.9382,-0.9268,-0.9268,-0.9158,-0.9268,-0.9047,-0.8937,-0.9047,-0.9158,-0.9161,-0.9158,-0.9265,-0.9375,-0.9379,-0.9265,-0.9154,-0.9044,-0.8709,-0.8266,-0.7826,-0.7715,-0.7268,-0.6599,-0.6248,-0.5953,-0.5676,-0.5375,-0.512,-1.4735,-1.4948,-1.4729,-1.4729,-1.4713,-1.4622,-1.4498,-1.4401,-1.4385,-1.4455,-1.46,-1.4799,-1.4853,-1.4772,-1.4977,-1.5106,-1.4993,-1.5058,-1.5203,-1.5273,-1.5225,-1.5402,-1.5478,-1.5505,-1.5569,-1.5601,-1.5601,-1.5601,-1.5601,-1.5601,-1.5601,-1.5601,-1.5601,-1.5601,-1.5601,-1.5601,-1.5601,-1.5601,-1.5601,-1.5601,-1.5601,-1.5601,-1.5477,-1.5477,-1.5477,-1.5477,-1.5477,-1.5477,-1.5601,-1.5121,-1.4396,-1.2951,-1.1752,-1.1152,-1.0789,-1.0547,-1.0547,-1.0789,-1.0789,-1.091,-1.1031,-1.1031,-1.1277,-1.1281,-1.1031,-1.0906,-1.0668,-1.0789,-1.0789,-1.0668,-1.0668,-1.0547,-1.0425,-1.0183,-1.0061,-1.0061,-1.0058,-1.0148,-1.0056,-0.9947,-0.9938,-0.9841,-0.9767,-0.9646,-0.9648,-0.9429,-0.9496,-0.9382,-0.9379,-0.9379,-0.9268,-0.9268,-0.9158,-0.9158,-0.9268,-0.9158,-0.9161,-0.9158,-0.9375,-0.9596,-0.9706,-0.9375,-0.9151,-0.893,-0.8598,-0.8152,-0.782,-0.7601,-0.716,-0.6492,-0.6265,-0.6132,-0.5854,-0.568,-0.5428,-1.4636,-1.4817,-1.4603,-1.4492,-1.4466,-1.4288,-1.4207,-1.4202,-1.4202,-1.4202,-1.4256,-1.4433,-1.4482,-1.4568,-1.4729,-1.4929,-1.4993,-1.4859,-1.5112,-1.5225,-1.5311,-1.5278,-1.5348,-1.5494,-1.5537,-1.558,-1.5601,-1.5601,-1.5601,-1.5601,-1.5601,-1.5601,-1.5601,-1.5601,-1.5601,-1.5601,-1.5601,-1.5601,-1.5601,-1.5601,-1.5601,-1.5601,-1.5601,-1.5601,-1.5601,-1.5601,-1.5601,-1.5601,-1.5601,-1.4759,-1.3799,-1.2354,-1.1511,-1.091,-1.0789,-1.0668,-1.0914,-1.0914,-1.0796,-1.1156,-1.1277,-1.1398,-1.1647,-1.1647,-1.1277,-1.1031,-1.091,-1.0789,-1.0789,-1.0793,-1.0789,-1.0668,-1.0547,-1.0425,-1.0425,-1.0304,-1.0422,-1.0411,-1.0325,-1.022,-1.0105,-1.0117,-0.9982,-0.9971,-0.9857,-0.9636,-0.9485,-0.9268,-0.9268,-0.9379,-0.9379,-0.9379,-0.9379,-0.9379,-0.9489,-0.9379,-0.9268,-0.9379,-0.9599,-0.9926,-1.0036,-0.9596,-0.9151,-0.8816,-0.8484,-0.8042,-0.7598,-0.7268,-0.6826,-0.6383,-0.6379,-0.6366,-0.621,-0.6025,-0.5824,-1.4321,-1.4375,-1.4261,-1.4261,-1.4256,-1.4207,-1.4196,-1.4196,-1.4196,-1.4196,-1.4207,-1.4218,-1.4261,-1.4277,-1.4498,-1.4632,-1.4595,-1.4562,-1.4444,-1.4444,-1.4859,-1.4945,-1.5101,-1.5392,-1.5456,-1.5531,-1.5601,-1.5601,-1.5601,-1.5601,-1.5601,-1.5601,-1.5601,-1.5601,-1.5601,-1.5601,-1.5601,-1.5601,-1.5601,-1.5601,-1.5601,-1.5601,-1.5601,-1.5601,-1.5601,-1.5601,-1.5601,-1.5601,-1.524,-1.4515,-1.331,-1.2113,-1.139,-1.1031,-1.1031,-1.1031,-1.1277,-1.1281,-1.1405,-1.1526,-1.1647,-1.1647,-1.1772,-1.1526,-1.1277,-1.0906,-1.0789,-1.0668,-1.0668,-1.091,-1.0789,-1.0671,-1.055,-1.0668,-1.0668,-1.0668,-1.0664,-1.0646,-1.0598,-1.0454,-1.0424,-1.0282,-1.0126,-1.0003,-1.0109,-0.9816,-0.9706,-0.9485,-0.9379,-0.9379,-0.9379,-0.9485,-0.9596,-0.9596,-0.9706,-0.9489,-0.9489,-0.9599,-0.982,-1.0036,-1.0036,-0.971,-0.9375,-0.893,-0.8488,-0.8045,-0.7601,-0.7046,-0.6935,-0.6604,-0.6604,-0.6589,-0.6438,-0.6284,-0.6204]},{"header":{"parameterUnit":"m.s-1","parameterCategory":1,"la1":31.0,"la2":29.5877,"lo1":-88.7671,"lo2":-86.6584,"dy":0.0162,"dx":0.0185,"nx":115,"ny":88,"refTime":"2023-08-01T00:00:00:Z","depth":0,"parameterNumber":3,"parameterNumberName":"V-component_of_WINDS"},"data":[0.0,0.0,0.0,0.0,0.0,0.0,0.0,0.0,0.0,0.0,0.0,0.0,0.0,0.0,0.0,0.0,0.0,0.0,0.0,0.0,0.0,0.0,0.0,0.0,0.0,0.0,0.0,0.0,0.0,0.0,0.0,0.0,0.0,0.0,0.0,0.0,0.0,0.0,0.0,0.0,0.0,0.0,0.0,0.0,0.0,0.0,0.0,0.0,0.0,0.0,0.0,0.0,0.0,0.0,0.0,0.0,0.0,0.0,0.0,0.0,0.0,0.0,0.0,0.0,0.0,0.0,0.0,0.0,0.0,0.0,0.0,0.0,0.0,0.0,0.0,0.0,0.0,0.0,0.0,0.0,0.0,0.0,0.0,0.0,0.0,0.0,0.0,0.0,0.0,0.0,0.0,0.0,0.0,0.0,0.0,0.0,0.0,0.0,0.0,0.0,0.0,0.0,0.0,0.0,0.0,0.0,0.0,0.0,0.0,0.0,0.0,0.0,0.0,0.0,0.0,0.0,0.0,0.0,0.0,0.0,0.0,0.0,0.0,0.0,0.0,0.0,0.0,0.0,0.0,0.0,0.0,0.0,0.0,0.0,0.0,0.0,0.0,0.0,0.0,0.0,0.0,0.0,0.0,0.0,0.0,0.0,0.0,0.0,0.0,0.0,0.0,0.0,0.0,0.0,0.0,0.0,0.0,0.0,0.0,0.0,0.0,0.0,0.0,0.0,0.0,0.0,0.0,0.0,0.0,0.0,0.0,0.0,0.0,0.0,0.0,0.0,0.0,0.0,0.0,0.0,0.0,0.0,0.0,0.0,0.0,0.0,0.0,0.0,0.0,0.0,0.0,0.0,0.0,0.0,0.0,0.0,0.0,0.0,0.0,0.0,0.0,0.0,0.0,0.0,0.0,0.0,0.0,0.0,0.0,0.0,0.0,0.0,0.0,0.0,0.0,0.0,0.0,0.0,0.0,0.0,0.0,0.0,0.0,0.0,0.0,0.0,0.0,0.0,0.0,0.0,0.0,0.0,0.0,0.0,0.0,0.0,0.0,0.0,0.0,0.0,0.0,0.0,0.0,0.0,0.0,0.0,0.0,0.0,0.0,0.0,0.0,0.0,0.0,0.0,0.0,0.0,0.0,0.0,0.0,0.0,0.0,0.0,0.0,0.0,0.0,0.0,0.0,0.0,0.0,0.0,0.0,0.0,0.0,0.0,0.0,0.0,0.0,0.0,0.0,0.0,0.0,0.0,0.0,0.0,0.0,0.0,0.0,0.0,0.0,0.0,0.0,0.0,0.0,0.0,0.0,0.0,0.0,0.0,0.0,0.0,0.0,0.0,0.0,0.0,0.0,0.0,0.0,0.0,0.0,0.0,0.0,0.0,0.0,0.0,0.0,0.0,0.0,0.0,0.0,0.0,0.0,0.0,0.0,0.0,0.0,0.0,0.0,0.0,0.0,0.0,0.0,0.0,0.0,0.0,0.0,0.0,0.0,0.0,0.0,0.0,0.0,0.0,0.0,0.0,0.0,0.0,0.0,0.0,0.0,0.0,0.0,0.0,0.0,0.0,0.0,0.0,0.0,0.0,0.0,0.0,0.0,0.0,0.0,0.0,0.0,0.0,0.0,0.0,0.0,0.0,0.0,0.0,0.0,0.0,0.0,0.0,0.0,0.0,0.0,0.0,0.0,0.0,0.0,0.0,0.0,0.0,0.0,0.0,0.0,0.0,0.0,0.0,0.0,0.0,0.0,0.0,0.0,0.0,0.0,0.0,0.0,0.0,0.0,0.0,0.0,0.0,0.0,0.0,0.0,0.0,0.0,0.0,0.0,0.0,0.0,0.0,0.0,0.0,0.0,0.0,0.0,0.0,0.0,0.0,0.0,0.0,0.0,0.0,0.0,0.0,0.0,0.0,0.0,0.0,0.0,0.0,0.0,0.0,0.0,0.0,0.0,0.0,0.0,0.0,0.0,0.0,0.0,0.0,0.0,0.0,0.0,0.0,0.0,0.0,0.0,0.0,0.0,0.0,0.0,0.0,0.0,0.0,0.0,0.0,0.0,0.0,0.0,0.0,0.0,0.0,0.0,0.0,0.0,0.0,0.0,0.0,0.0,0.0,0.0,0.0,0.0,0.0,0.0,0.0,0.0,0.0,0.0,0.0,0.0,0.0,0.0,0.0,0.0,0.0,0.0,0.0,0.0,0.0,0.0,0.0,0.0,0.0,0.0,0.0,0.0,0.0,0.0,0.0,0.0,0.0,0.0,0.0,0.0,0.0,0.0,0.0,0.0,0.0,0.0,0.0,0.0,0.0,0.0,0.0,0.0,0.0,0.0,0.0,0.0,0.0,0.0,0.0,0.0,0.0,0.0,0.0,0.0,0.0,0.0,0.0,0.0,0.0,0.0,0.0,0.0,0.0,0.0,0.0,0.0,0.0,0.0,0.0,0.0,0.0,0.0,0.0,0.0,0.0,0.0,0.0,0.0,0.0,0.0,0.0,0.0,0.0,0.0,0.0,0.0,0.0,0.0,0.0,0.0,0.0,0.0,0.0,0.0,0.0,0.0,0.0,0.0,0.0,0.0,0.0,0.0,0.0,0.0,0.0,0.0,0.0,0.0,0.0,0.0,0.0,0.0,0.0,0.0,0.0,0.0,0.0,0.0,0.0,0.0,0.0,0.0,0.0,0.0,0.0,0.0,0.0,0.0,0.0,0.0,0.0,0.0,0.0,0.0,0.0,0.0,0.0,0.0,0.0,0.0,0.0,0.0,0.0,0.0,0.0,0.0,0.0,0.0,0.0,0.0,0.0,0.0,0.0,0.0,0.0,0.0,0.0,0.0,0.0,0.0,0.0,0.0,0.0,0.0,0.0,0.0,0.0,0.0,0.0,0.0,0.0,0.0,0.0,0.0,0.0,0.0,0.0,0.0,0.0,0.0,0.0,0.0,0.0,0.0,0.0,0.0,0.0,0.0,0.0,0.0,0.0,0.0,0.0,0.0,0.0,0.0,0.0,0.0,0.0,0.0,0.0,0.0,0.0,0.0,0.0,0.0,0.0,0.0,0.0,0.0,0.0,0.0,0.0,0.0,0.0,0.0,0.0,0.0,0.0,0.0,0.0,0.0,0.0,0.0,0.0,0.0,0.0,0.0,0.0,0.0,0.0,0.0,0.0,0.0,0.0,0.0,0.0,0.0,0.0,0.0,0.0,0.0,0.0,0.0,0.0,0.0,0.0,0.0,0.0,0.0,0.0,0.0,0.0,0.0,0.0,0.0,0.0,0.0,0.0,0.0,0.0,0.0,0.0,0.0,0.0,0.0,0.0,0.0,0.0,0.0,0.0,0.0,0.0,0.0,0.0,0.0,0.0,0.0,0.0,0.0,0.0,0.0,0.0,0.0,0.0,0.0,0.0,0.0,0.0,0.0,0.0,0.0,0.0,0.0,0.0,0.0,0.0,0.0,0.0,0.0,0.0,0.0,0.0,0.0,0.0,0.0,0.0,0.0,0.0,0.0,0.0,0.0,0.0,0.0,0.0,0.0,0.0,0.0,0.0,0.0,0.0,0.0,0.0,0.0,0.0,0.0,0.0,0.0,0.0,0.0,0.0,0.0,0.0,0.0,0.0,0.0,0.0,0.0,0.0,0.0,0.0,0.0,0.0,0.0,0.0,0.0,0.0,0.0,0.0,0.0,0.0,0.0,0.0,0.0,0.0,0.0,0.0,0.0,0.0,0.0,0.0,0.0,0.0,0.0,0.0,0.0,0.0,0.0,0.0,0.0,0.0,0.0,0.0,0.0,0.0,0.0,0.0,0.0,0.0,0.0,0.0,0.0,0.0,0.0,0.0,0.0,0.0,0.0,0.0,0.0,0.0,0.0,0.0,0.0,0.0,0.0,0.0,0.0,0.0,0.0,0.0,0.0,0.0,0.0,0.0,0.0,0.0,0.0,0.0,0.0,0.0,0.0,0.0,0.0,0.0,0.0,0.0,0.0,0.0,0.0,0.0,0.0,0.0,0.0,0.0,0.0,0.0,0.0,0.0,0.0,0.0,0.0,0.0,0.0,0.0,0.0,0.0,0.0,0.0,0.0,0.0,0.0,0.0,0.0,0.0,0.0,0.0,0.0,0.0,0.0,0.0,0.0,0.0,0.0,0.0,0.0,0.0,0.0,0.0,0.0,0.0,0.0,0.0,0.0,0.0,0.0,0.0,0.0,0.0,0.0,0.0,0.0,0.0,0.0,0.0,0.0,0.0,0.0,0.0,0.0,0.0,0.0,0.0,-2.2447,0.0,0.0,0.0,0.0,0.0,0.0,0.0,0.0,0.0,0.0,0.0,0.0,0.0,0.0,0.0,0.0,0.0,0.0,0.0,0.0,0.0,0.0,0.0,0.0,0.0,0.0,0.0,0.0,0.0,0.0,0.0,0.0,0.0,0.0,0.0,0.0,0.0,0.0,0.0,0.0,0.0,0.0,0.0,0.0,0.0,0.0,0.0,0.0,0.0,0.0,0.0,0.0,0.0,0.0,0.0,0.0,0.0,0.0,0.0,0.0,0.0,0.0,0.0,0.0,0.0,0.0,0.0,0.0,0.0,0.0,0.0,0.0,0.0,0.0,0.0,0.0,0.0,0.0,0.0,0.0,0.0,0.0,0.0,0.0,0.0,0.0,0.0,0.0,0.0,0.0,0.0,0.0,0.0,0.0,0.0,0.0,0.0,0.0,0.0,0.0,0.0,0.0,0.0,0.0,0.0,0.0,0.0,0.0,0.0,0.0,-2.4077,-2.4037,-2.3955,-2.3513,-2.275,0.0,0.0,0.0,0.0,0.0,0.0,0.0,0.0,0.0,0.0,0.0,0.0,0.0,0.0,0.0,0.0,0.0,0.0,0.0,0.0,0.0,0.0,0.0,0.0,0.0,0.0,0.0,0.0,0.0,0.0,0.0,0.0,0.0,0.0,0.0,0.0,0.0,0.0,0.0,0.0,0.0,0.0,0.0,0.0,0.0,0.0,0.0,0.0,0.0,0.0,0.0,0.0,0.0,0.0,0.0,0.0,0.0,0.0,0.0,0.0,0.0,0.0,0.0,0.0,0.0,0.0,0.0,0.0,0.0,0.0,0.0,0.0,0.0,0.0,0.0,0.0,0.0,0.0,0.0,0.0,0.0,0.0,0.0,0.0,0.0,0.0,0.0,0.0,0.0,0.0,0.0,0.0,0.0,0.0,0.0,0.0,0.0,0.0,0.0,0.0,0.0,0.0,0.0,0.0,0.0,0.0,0.0,0.0,0.0,0.0,0.0,0.0,-2.4134,-2.3763,-2.3123,0.0,0.0,0.0,0.0,0.0,0.0,0.0,0.0,0.0,0.0,0.0,0.0,0.0,0.0,0.0,0.0,0.0,0.0,0.0,0.0,0.0,0.0,0.0,0.0,0.0,0.0,0.0,0.0,0.0,0.0,0.0,0.0,0.0,0.0,0.0,0.0,0.0,0.0,0.0,0.0,0.0,0.0,0.0,0.0,0.0,0.0,0.0,0.0,0.0,0.0,0.0,0.0,0.0,0.0,0.0,0.0,0.0,0.0,0.0,0.0,0.0,0.0,0.0,0.0,0.0,0.0,0.0,0.0,0.0,0.0,0.0,0.0,0.0,0.0,0.0,0.0,0.0,0.0,0.0,0.0,0.0,0.0,0.0,0.0,0.0,0.0,0.0,0.0,0.0,0.0,0.0,0.0,0.0,0.0,0.0,0.0,0.0,0.0,0.0,0.0,0.0,0.0,0.0,0.0,0.0,0.0,0.0,0.0,0.0,0.0,-2.4429,-2.4375,-2.4247,0.0,-2.3987,0.0,0.0,0.0,0.0,0.0,0.0,0.0,0.0,0.0,0.0,0.0,0.0,0.0,0.0,0.0,0.0,0.0,0.0,0.0,0.0,0.0,0.0,0.0,0.0,0.0,0.0,0.0,0.0,0.0,0.0,0.0,0.0,0.0,0.0,0.0,0.0,0.0,0.0,0.0,0.0,0.0,0.0,0.0,0.0,0.0,0.0,0.0,0.0,0.0,0.0,0.0,0.0,0.0,0.0,0.0,0.0,0.0,0.0,0.0,0.0,0.0,0.0,0.0,0.0,0.0,0.0,0.0,0.0,0.0,0.0,0.0,0.0,0.0,0.0,0.0,0.0,0.0,0.0,0.0,0.0,0.0,0.0,0.0,0.0,0.0,0.0,0.0,0.0,0.0,0.0,0.0,0.0,0.0,0.0,0.0,0.0,0.0,0.0,0.0,0.0,0.0,0.0,0.0,0.0,0.0,0.0,0.0,0.0,0.0,0.0,-2.4549,-2.4515,-2.3982,-2.3671,0.0,0.0,0.0,0.0,0.0,0.0,0.0,0.0,0.0,0.0,0.0,0.0,0.0,0.0,0.0,0.0,0.0,0.0,0.0,0.0,0.0,0.0,0.0,0.0,0.0,0.0,0.0,0.0,0.0,0.0,0.0,0.0,0.0,0.0,0.0,0.0,0.0,0.0,0.0,0.0,0.0,0.0,0.0,0.0,0.0,0.0,0.0,0.0,0.0,0.0,0.0,0.0,0.0,0.0,0.0,0.0,0.0,0.0,0.0,0.0,0.0,0.0,0.0,0.0,0.0,0.0,0.0,0.0,0.0,0.0,0.0,0.0,0.0,0.0,0.0,0.0,0.0,0.0,0.0,0.0,0.0,0.0,0.0,0.0,0.0,0.0,0.0,0.0,0.0,0.0,0.0,0.0,0.0,0.0,0.0,0.0,0.0,0.0,0.0,0.0,0.0,0.0,0.0,0.0,0.0,0.0,0.0,0.0,0.0,0.0,-2.4647,-2.4615,-2.4561,-2.3782,-2.3303,-2.3335,0.0,0.0,0.0,0.0,0.0,0.0,0.0,0.0,0.0,0.0,0.0,0.0,0.0,0.0,0.0,0.0,0.0,0.0,0.0,0.0,0.0,0.0,0.0,0.0,0.0,0.0,0.0,0.0,0.0,0.0,0.0,0.0,0.0,0.0,0.0,0.0,0.0,0.0,0.0,0.0,0.0,0.0,0.0,0.0,0.0,0.0,0.0,0.0,0.0,0.0,0.0,0.0,0.0,0.0,0.0,0.0,0.0,0.0,0.0,0.0,0.0,0.0,0.0,0.0,0.0,0.0,0.0,0.0,0.0,0.0,0.0,0.0,0.0,0.0,0.0,0.0,0.0,0.0,0.0,0.0,0.0,0.0,0.0,0.0,0.0,0.0,0.0,0.0,0.0,0.0,0.0,0.0,0.0,0.0,0.0,0.0,0.0,0.0,0.0,0.0,0.0,0.0,0.0,0.0,0.0,0.0,0.0,0.0,-2.4692,-2.4679,-2.4666,-2.4596,-2.3814,-2.34,0.0,0.0,0.0,0.0,0.0,0.0,0.0,0.0,0.0,0.0,0.0,0.0,0.0,0.0,0.0,0.0,0.0,0.0,0.0,0.0,0.0,0.0,0.0,0.0,0.0,0.0,0.0,0.0,0.0,0.0,0.0,0.0,0.0,0.0,0.0,0.0,0.0,0.0,0.0,0.0,0.0,0.0,0.0,0.0,0.0,0.0,0.0,0.0,0.0,0.0,0.0,0.0,0.0,0.0,0.0,0.0,0.0,0.0,0.0,0.0,0.0,0.0,0.0,0.0,0.0,0.0,0.0,0.0,0.0,0.0,0.0,0.0,0.0,0.0,0.0,0.0,0.0,0.0,0.0,0.0,0.0,0.0,0.0,0.0,0.0,0.0,0.0,0.0,0.0,0.0,0.0,0.0,0.0,0.0,0.0,0.0,0.0,0.0,0.0,0.0,0.0,0.0,0.0,0.0,0.0,0.0,0.0,0.0,0.0,-2.4768,-2.4768,-2.4753,-2.47,-2.346,-2.2745,0.0,0.0,0.0,0.0,0.0,0.0,0.0,0.0,0.0,0.0,0.0,0.0,0.0,0.0,0.0,0.0,0.0,0.0,0.0,0.0,0.0,0.0,0.0,0.0,0.0,0.0,0.0,0.0,0.0,0.0,0.0,0.0,0.0,0.0,0.0,0.0,0.0,0.0,0.0,0.0,0.0,0.0,0.0,0.0,0.0,0.0,0.0,0.0,0.0,0.0,0.0,0.0,0.0,0.0,0.0,0.0,0.0,0.0,0.0,0.0,0.0,0.0,0.0,0.0,0.0,0.0,0.0,0.0,0.0,0.0,0.0,0.0,0.0,0.0,0.0,0.0,0.0,0.0,0.0,0.0,0.0,0.0,0.0,0.0,0.0,0.0,0.0,0.0,0.0,0.0,0.0,0.0,0.0,0.0,0.0,0.0,0.0,0.0,0.0,0.0,0.0,0.0,0.0,0.0,0.0,0.0,0.0,0.0,0.0,-2.5238,0.0,-2.5517,-2.5215,-2.3931,-2.2935,0.0,0.0,0.0,0.0,0.0,0.0,0.0,0.0,0.0,0.0,0.0,0.0,0.0,0.0,0.0,0.0,0.0,0.0,0.0,0.0,0.0,0.0,0.0,0.0,0.0,0.0,0.0,0.0,0.0,0.0,0.0,0.0,0.0,0.0,0.0,0.0,0.0,0.0,0.0,0.0,0.0,0.0,0.0,0.0,0.0,0.0,0.0,0.0,0.0,0.0,0.0,0.0,0.0,0.0,0.0,0.0,0.0,0.0,0.0,0.0,0.0,0.0,0.0,0.0,0.0,0.0,0.0,0.0,0.0,0.0,0.0,0.0,0.0,0.0,0.0,0.0,0.0,0.0,0.0,0.0,0.0,0.0,0.0,0.0,0.0,0.0,0.0,0.0,0.0,0.0,0.0,0.0,0.0,0.0,0.0,0.0,0.0,0.0,0.0,0.0,0.0,0.0,0.0,0.0,0.0,0.0,0.0,0.0,-2.5347,-2.6223,-2.6995,-2.7009,-2.6242,-2.5362,-2.4142,0.0,0.0,0.0,0.0,0.0,0.0,0.0,0.0,0.0,0.0,0.0,0.0,0.0,0.0,0.0,0.0,0.0,0.0,0.0,0.0,0.0,0.0,0.0,0.0,0.0,0.0,0.0,0.0,0.0,0.0,0.0,0.0,0.0,0.0,0.0,0.0,0.0,0.0,0.0,0.0,0.0,0.0,0.0,0.0,0.0,0.0,0.0,0.0,0.0,0.0,0.0,0.0,0.0,0.0,0.0,0.0,0.0,0.0,0.0,0.0,0.0,0.0,0.0,0.0,0.0,0.0,0.0,0.0,0.0,0.0,0.0,0.0,0.0,0.0,0.0,0.0,0.0,0.0,0.0,0.0,0.0,0.0,0.0,0.0,0.0,0.0,0.0,0.0,0.0,0.0,0.0,0.0,0.0,0.0,0.0,0.0,0.0,0.0,0.0,0.0,0.0,0.0,0.0,0.0,0.0,0.0,0.0,0.0,0.0,-2.8065,-2.8313,-2.8308,-2.8025,-2.6683,-2.5425,0.0,0.0,0.0,0.0,0.0,0.0,0.0,0.0,0.0,0.0,0.0,0.0,0.0,0.0,0.0,0.0,0.0,0.0,0.0,0.0,0.0,0.0,0.0,0.0,0.0,0.0,0.0,0.0,0.0,0.0,0.0,0.0,0.0,0.0,0.0,0.0,0.0,0.0,0.0,0.0,0.0,0.0,0.0,0.0,0.0,0.0,0.0,0.0,0.0,0.0,0.0,0.0,0.0,0.0,0.0,0.0,0.0,0.0,0.0,0.0,0.0,0.0,0.0,0.0,0.0,0.0,0.0,0.0,0.0,0.0,0.0,0.0,0.0,0.0,0.0,0.0,0.0,0.0,0.0,0.0,0.0,0.0,0.0,0.0,0.0,0.0,0.0,0.0,0.0,0.0,0.0,0.0,0.0,0.0,0.0,0.0,0.0,0.0,0.0,0.0,0.0,0.0,0.0,0.0,0.0,0.0,0.0,0.0,0.0,-3.2267,-3.1651,-3.1172,-3.0874,-2.9506,-2.7778,-2.5676,0.0,0.0,0.0,0.0,0.0,0.0,0.0,0.0,0.0,0.0,0.0,0.0,0.0,0.0,0.0,0.0,0.0,0.0,0.0,0.0,0.0,0.0,0.0,0.0,0.0,0.0,0.0,0.0,0.0,0.0,0.0,0.0,0.0,0.0,0.0,0.0,0.0,0.0,0.0,0.0,0.0,0.0,0.0,0.0,0.0,0.0,0.0,0.0,0.0,0.0,0.0,0.0,0.0,0.0,0.0,0.0,0.0,0.0,0.0,0.0,0.0,0.0,0.0,0.0,0.0,0.0,0.0,0.0,0.0,0.0,0.0,0.0,0.0,0.0,0.0,0.0,0.0,0.0,0.0,0.0,0.0,0.0,0.0,0.0,0.0,0.0,0.0,0.0,0.0,0.0,0.0,0.0,0.0,0.0,0.0,0.0,0.0,0.0,0.0,0.0,0.0,0.0,0.0,0.0,0.0,0.0,0.0,0.0,-3.8246,-3.6738,-3.5504,-3.4686,-3.3525,-3.1072,0.0,0.0,0.0,0.0,0.0,0.0,0.0,0.0,0.0,0.0,0.0,0.0,0.0,0.0,0.0,0.0,0.0,0.0,0.0,0.0,0.0,0.0,0.0,0.0,0.0,0.0,0.0,0.0,0.0,0.0,0.0,0.0,0.0,0.0,0.0,0.0,0.0,0.0,0.0,0.0,0.0,0.0,0.0,0.0,0.0,0.0,0.0,0.0,0.0,0.0,0.0,0.0,0.0,0.0,0.0,0.0,0.0,0.0,0.0,0.0,0.0,0.0,0.0,0.0,0.0,0.0,0.0,0.0,0.0,0.0,0.0,0.0,0.0,0.0,0.0,0.0,0.0,0.0,0.0,0.0,0.0,0.0,0.0,0.0,0.0,0.0,0.0,0.0,0.0,0.0,0.0,0.0,0.0,0.0,0.0,0.0,0.0,0.0,0.0,0.0,0.0,0.0,0.0,0.0,0.0,0.0,0.0,0.0,0.0,-4.0761,-4.1687,-4.1398,-3.9879,-3.6575,-3.4019,0.0,0.0,0.0,0.0,0.0,0.0,0.0,0.0,0.0,0.0,0.0,0.0,0.0,0.0,0.0,0.0,0.0,0.0,0.0,0.0,0.0,0.0,0.0,0.0,0.0,0.0,0.0,0.0,0.0,0.0,0.0,0.0,0.0,0.0,0.0,0.0,0.0,0.0,0.0,0.0,0.0,0.0,0.0,0.0,0.0,0.0,0.0,0.0,0.0,0.0,0.0,0.0,0.0,0.0,0.0,0.0,0.0,0.0,0.0,0.0,0.0,0.0,0.0,0.0,0.0,0.0,0.0,0.0,0.0,0.0,0.0,0.0,0.0,0.0,0.0,0.0,0.0,0.0,0.0,0.0,0.0,0.0,0.0,0.0,0.0,0.0,0.0,0.0,0.0,0.0,0.0,0.0,0.0,0.0,0.0,0.0,0.0,0.0,0.0,0.0,0.0,0.0,0.0,0.0,0.0,0.0,0.0,0.0,-3.9567,-4.2965,-4.4713,-4.5621,-4.5684,-4.0847,-3.6993,0.0,0.0,0.0,0.0,0.0,0.0,0.0,0.0,0.0,0.0,0.0,0.0,0.0,0.0,0.0,0.0,0.0,0.0,0.0,0.0,0.0,0.0,0.0,0.0,0.0,0.0,0.0,0.0,0.0,0.0,0.0,0.0,0.0,0.0,0.0,0.0,0.0,0.0,0.0,0.0,0.0,0.0,0.0,0.0,0.0,0.0,0.0,0.0,0.0,0.0,0.0,0.0,0.0,0.0,0.0,0.0,0.0,0.0,0.0,0.0,0.0,0.0,0.0,0.0,0.0,0.0,0.0,0.0,0.0,0.0,0.0,0.0,0.0,0.0,0.0,0.0,0.0,0.0,0.0,0.0,0.0,0.0,0.0,0.0,0.0,0.0,0.0,0.0,0.0,0.0,0.0,0.0,0.0,0.0,0.0,0.0,0.0,0.0,0.0,0.0,0.0,0.0,0.0,0.0,0.0,0.0,0.0,0.0,-4.1287,-4.4794,-4.6399,-4.8353,-5.05,-4.5153,-3.996,0.0,0.0,0.0,0.0,0.0,0.0,0.0,0.0,0.0,0.0,0.0,0.0,0.0,0.0,0.0,0.0,0.0,0.0,0.0,0.0,0.0,0.0,0.0,0.0,0.0,0.0,0.0,0.0,0.0,0.0,0.0,0.0,0.0,0.0,0.0,0.0,0.0,0.0,0.0,0.0,0.0,0.0,0.0,0.0,0.0,0.0,0.0,0.0,0.0,0.0,0.0,0.0,0.0,0.0,0.0,0.0,0.0,0.0,0.0,0.0,0.0,0.0,0.0,0.0,0.0,0.0,0.0,0.0,0.0,0.0,0.0,0.0,0.0,0.0,0.0,0.0,0.0,0.0,0.0,0.0,0.0,0.0,0.0,0.0,0.0,0.0,0.0,0.0,0.0,0.0,0.0,0.0,0.0,0.0,0.0,0.0,0.0,0.0,0.0,0.0,0.0,0.0,0.0,0.0,0.0,0.0,0.0,0.0,-4.2454,-4.6438,-4.7599,-4.8701,-4.9919,-4.5457,-4.2189,0.0,0.0,0.0,0.0,0.0,0.0,0.0,0.0,0.0,0.0,0.0,0.0,0.0,0.0,0.0,0.0,0.0,0.0,0.0,0.0,0.0,0.0,0.0,0.0,0.0,0.0,0.0,0.0,0.0,0.0,0.0,0.0,0.0,0.0,0.0,0.0,0.0,0.0,0.0,0.0,0.0,0.0,0.0,0.0,0.0,0.0,0.0,0.0,-2.3812,0.0,0.0,0.0,0.0,0.0,0.0,0.0,0.0,0.0,0.0,0.0,0.0,0.0,0.0,0.0,0.0,0.0,0.0,0.0,0.0,0.0,0.0,0.0,0.0,0.0,0.0,0.0,0.0,0.0,0.0,0.0,0.0,0.0,0.0,0.0,0.0,0.0,0.0,0.0,0.0,0.0,0.0,0.0,0.0,0.0,0.0,0.0,0.0,0.0,0.0,0.0,0.0,0.0,0.0,0.0,0.0,0.0,0.0,0.0,-4.3634,-4.6999,-4.8353,-4.9417,-5.0113,-4.7308,-4.4349,0.0,0.0,0.0,0.0,0.0,0.0,0.0,0.0,0.0,0.0,0.0,0.0,0.0,0.0,0.0,0.0,0.0,0.0,0.0,0.0,0.0,0.0,0.0,0.0,0.0,0.0,0.0,0.0,0.0,0.0,0.0,0.0,0.0,0.0,0.0,0.0,0.0,0.0,0.0,0.0,0.0,0.0,0.0,0.0,0.0,0.0,0.0,0.0,0.0,0.0,0.0,0.0,0.0,0.0,0.0,0.0,0.0,0.0,0.0,0.0,0.0,0.0,0.0,0.0,0.0,0.0,0.0,0.0,0.0,0.0,0.0,0.0,0.0,0.0,0.0,0.0,0.0,0.0,0.0,0.0,0.0,0.0,0.0,0.0,0.0,0.0,0.0,0.0,0.0,0.0,0.0,0.0,0.0,0.0,0.0,0.0,0.0,0.0,0.0,0.0,0.0,0.0,0.0,0.0,0.0,0.0,0.0,-4.1326,-4.4659,-4.7405,-4.8933,-5.0094,-5.0848,-4.9417,-4.6264,-4.139,0.0,0.0,0.0,0.0,0.0,0.0,0.0,0.0,0.0,0.0,0.0,0.0,0.0,0.0,0.0,0.0,0.0,0.0,0.0,0.0,0.0,0.0,0.0,0.0,0.0,0.0,0.0,0.0,0.0,0.0,0.0,0.0,0.0,0.0,0.0,0.0,0.0,0.0,-1.9232,-2.2435,0.0,0.0,0.0,0.0,0.0,0.0,0.0,0.0,-2.8152,0.0,0.0,0.0,0.0,0.0,0.0,0.0,0.0,0.0,0.0,0.0,0.0,0.0,0.0,0.0,0.0,0.0,0.0,0.0,0.0,0.0,0.0,0.0,0.0,0.0,0.0,0.0,0.0,0.0,0.0,0.0,0.0,0.0,0.0,0.0,0.0,0.0,0.0,0.0,0.0,0.0,0.0,0.0,0.0,0.0,0.0,0.0,0.0,0.0,0.0,0.0,0.0,0.0,0.0,0.0,0.0,-4.01,-4.2234,-4.5258,-4.9165,-4.9552,-5.0094,-5.0848,-4.9977,-4.7424,-4.3092,0.0,0.0,0.0,0.0,0.0,0.0,0.0,0.0,0.0,0.0,0.0,0.0,0.0,0.0,0.0,0.0,0.0,0.0,0.0,0.0,0.0,0.0,0.0,0.0,0.0,0.0,0.0,0.0,0.0,0.0,0.0,0.0,0.0,0.0,0.0,0.0,0.0,0.0,0.0,-2.4617,-2.7226,0.0,0.0,0.0,0.0,0.0,0.0,0.0,0.0,-3.0944,0.0,0.0,0.0,0.0,0.0,0.0,0.0,0.0,0.0,0.0,0.0,0.0,0.0,0.0,0.0,0.0,0.0,0.0,0.0,0.0,0.0,0.0,0.0,0.0,0.0,0.0,0.0,0.0,0.0,0.0,0.0,0.0,0.0,0.0,0.0,0.0,0.0,0.0,0.0,0.0,0.0,0.0,0.0,0.0,0.0,0.0,0.0,0.0,0.0,0.0,0.0,0.0,0.0,0.0,0.0,-4.133,-4.4399,-4.7154,-4.961,-5.0113,-5.05,-5.0867,-4.9687,-4.7212,0.0,0.0,0.0,0.0,0.0,0.0,0.0,0.0,0.0,0.0,0.0,0.0,0.0,0.0,0.0,0.0,0.0,0.0,0.0,0.0,0.0,0.0,0.0,0.0,0.0,0.0,0.0,0.0,0.0,0.0,0.0,0.0,0.0,0.0,0.0,0.0,0.0,0.0,0.0,0.0,-2.6854,-2.971,-3.2268,0.0,0.0,0.0,0.0,0.0,0.0,-3.4351,-3.31,0.0,0.0,0.0,0.0,0.0,0.0,0.0,0.0,0.0,0.0,0.0,0.0,0.0,0.0,0.0,0.0,0.0,0.0,0.0,0.0,0.0,0.0,0.0,0.0,0.0,0.0,0.0,0.0,0.0,0.0,0.0,0.0,0.0,0.0,0.0,0.0,0.0,0.0,0.0,0.0,0.0,0.0,0.0,0.0,0.0,0.0,0.0,0.0,0.0,0.0,0.0,0.0,0.0,0.0,0.0,-4.2521,-4.6409,-4.8914,-4.9919,-5.0577,-5.0906,-5.0887,-4.9281,-4.6786,0.0,0.0,0.0,0.0,0.0,0.0,0.0,0.0,0.0,0.0,0.0,0.0,0.0,0.0,0.0,0.0,0.0,0.0,0.0,0.0,0.0,0.0,0.0,0.0,0.0,0.0,0.0,0.0,0.0,0.0,0.0,0.0,0.0,0.0,0.0,0.0,0.0,0.0,0.0,0.0,0.0,-3.2139,-3.4902,-3.5281,0.0,0.0,0.0,0.0,-3.7589,-3.6686,0.0,0.0,0.0,0.0,0.0,0.0,0.0,0.0,0.0,0.0,0.0,0.0,0.0,0.0,0.0,0.0,0.0,0.0,0.0,0.0,0.0,0.0,0.0,0.0,0.0,0.0,0.0,0.0,0.0,0.0,0.0,0.0,0.0,0.0,0.0,0.0,0.0,0.0,0.0,0.0,0.0,0.0,0.0,0.0,0.0,0.0,0.0,0.0,0.0,0.0,0.0,0.0,0.0,0.0,0.0,0.0,-4.4216,-4.6989,-4.9184,-5.0674,-5.0867,-5.0906,-5.0887,-4.9281,-4.6786,0.0,0.0,0.0,0.0,0.0,0.0,0.0,0.0,0.0,0.0,0.0,0.0,0.0,0.0,0.0,0.0,0.0,0.0,0.0,0.0,0.0,0.0,0.0,0.0,0.0,0.0,0.0,0.0,0.0,0.0,0.0,0.0,0.0,0.0,0.0,0.0,0.0,0.0,0.0,0.0,0.0,-3.4132,-3.7469,-3.7955,-3.8266,0.0,0.0,-4.0199,-4.0432,-4.0343,0.0,0.0,0.0,0.0,0.0,0.0,0.0,0.0,0.0,0.0,0.0,0.0,0.0,0.0,0.0,0.0,0.0,0.0,0.0,0.0,0.0,0.0,0.0,0.0,0.0,0.0,0.0,0.0,0.0,0.0,0.0,0.0,0.0,0.0,0.0,0.0,0.0,0.0,0.0,0.0,0.0,0.0,0.0,0.0,0.0,0.0,0.0,0.0,0.0,0.0,0.0,0.0,0.0,0.0,0.0,-4.2209,-4.5965,-4.903,-5.1157,-5.2318,-5.2376,-5.2376,-5.2376,-5.0287,-4.7773,0.0,0.0,0.0,0.0,0.0,0.0,0.0,0.0,0.0,0.0,0.0,0.0,0.0,0.0,0.0,0.0,0.0,0.0,0.0,0.0,0.0,0.0,0.0,0.0,0.0,0.0,0.0,0.0,0.0,0.0,0.0,0.0,0.0,0.0,0.0,0.0,0.0,0.0,0.0,0.0,0.0,0.0,-3.8058,-3.9668,0.0,0.0,0.0,-4.1866,-4.2343,0.0,0.0,0.0,0.0,0.0,0.0,0.0,0.0,0.0,0.0,0.0,0.0,0.0,0.0,0.0,0.0,0.0,0.0,0.0,0.0,0.0,0.0,0.0,0.0,0.0,0.0,0.0,0.0,0.0,0.0,0.0,0.0,0.0,0.0,0.0,0.0,0.0,0.0,0.0,0.0,0.0,0.0,0.0,0.0,0.0,0.0,0.0,0.0,0.0,0.0,0.0,0.0,0.0,0.0,0.0,0.0,0.0,-4.7076,-5.0674,-5.284,-5.3478,-5.3498,-5.3498,-5.3459,-5.1428,0.0,0.0,0.0,0.0,0.0,0.0,0.0,0.0,0.0,0.0,0.0,0.0,0.0,0.0,0.0,0.0,0.0,0.0,0.0,0.0,0.0,0.0,0.0,0.0,0.0,0.0,0.0,-2.0824,0.0,0.0,0.0,0.0,0.0,0.0,0.0,0.0,0.0,0.0,0.0,0.0,0.0,0.0,-3.716,-3.9112,-4.1249,-4.293,0.0,0.0,-4.3171,-4.3845,-4.3553,-4.2412,0.0,0.0,0.0,0.0,0.0,0.0,0.0,0.0,0.0,0.0,0.0,0.0,0.0,0.0,0.0,0.0,0.0,0.0,0.0,0.0,0.0,0.0,0.0,0.0,0.0,0.0,0.0,0.0,0.0,0.0,0.0,0.0,0.0,0.0,0.0,0.0,0.0,0.0,0.0,0.0,0.0,0.0,0.0,0.0,0.0,0.0,0.0,0.0,0.0,0.0,0.0,0.0,0.0,0.0,0.0,-4.7134,-5.1254,-5.3459,-5.3498,-5.3498,-5.3498,-5.3478,-5.255,-5.0461,0.0,0.0,0.0,0.0,0.0,0.0,0.0,0.0,0.0,0.0,0.0,0.0,0.0,0.0,0.0,0.0,0.0,0.0,0.0,0.0,0.0,0.0,0.0,0.0,0.0,0.0,0.0,0.0,0.0,0.0,0.0,0.0,0.0,0.0,0.0,0.0,0.0,0.0,0.0,0.0,0.0,-3.9151,-4.1677,-4.2891,-4.3825,0.0,0.0,-4.4744,-4.4822,-4.5422,-4.5059,-4.2448,0.0,0.0,0.0,0.0,0.0,0.0,0.0,0.0,0.0,0.0,0.0,0.0,0.0,0.0,0.0,0.0,0.0,0.0,0.0,0.0,0.0,0.0,0.0,0.0,0.0,0.0,0.0,0.0,0.0,0.0,0.0,0.0,0.0,0.0,0.0,0.0,0.0,0.0,0.0,0.0,0.0,0.0,0.0,0.0,0.0,0.0,0.0,0.0,0.0,0.0,0.0,0.0,0.0,-4.5626,-4.8701,-5.2395,-5.4523,-5.5026,-5.5045,-5.5045,-5.5026,-5.4233,-5.2414,0.0,0.0,0.0,0.0,0.0,0.0,0.0,0.0,0.0,0.0,0.0,0.0,0.0,0.0,0.0,0.0,0.0,0.0,0.0,0.0,0.0,0.0,0.0,0.0,0.0,0.0,0.0,0.0,-3.1101,-3.2106,-3.2551,0.0,0.0,0.0,0.0,0.0,0.0,0.0,0.0,0.0,0.0,-4.0743,-4.2813,-4.4289,0.0,0.0,-4.5702,-4.5702,-4.5702,-4.5981,-4.5494,-4.3429,-4.1699,0.0,0.0,0.0,0.0,0.0,0.0,0.0,0.0,0.0,0.0,0.0,0.0,0.0,0.0,0.0,0.0,0.0,0.0,0.0,0.0,0.0,0.0,0.0,0.0,0.0,0.0,0.0,0.0,0.0,0.0,0.0,0.0,0.0,0.0,0.0,0.0,0.0,0.0,0.0,0.0,0.0,0.0,0.0,0.0,0.0,0.0,0.0,0.0,0.0,0.0,0.0,0.0,-4.6786,-4.9687,-5.3304,-5.5451,-5.6012,-5.6012,-5.6012,-5.5993,-5.5451,-5.4078,0.0,0.0,0.0,0.0,0.0,0.0,0.0,0.0,0.0,0.0,0.0,0.0,0.0,0.0,0.0,0.0,0.0,0.0,0.0,0.0,0.0,0.0,0.0,0.0,0.0,0.0,0.0,0.0,-3.435,-3.4988,-3.3634,0.0,0.0,0.0,0.0,0.0,0.0,0.0,0.0,0.0,0.0,-4.2327,-4.3786,-4.5239,-4.6196,-4.6196,-4.6196,-4.6196,-4.6196,-4.6196,-4.5787,-4.4559,0.0,0.0,0.0,0.0,0.0,0.0,0.0,0.0,0.0,0.0,0.0,0.0,0.0,0.0,0.0,0.0,0.0,0.0,0.0,0.0,0.0,0.0,0.0,0.0,0.0,0.0,0.0,0.0,0.0,0.0,-2.9379,0.0,0.0,0.0,0.0,0.0,0.0,0.0,0.0,0.0,0.0,0.0,0.0,0.0,0.0,0.0,0.0,0.0,0.0,0.0,0.0,0.0,0.0,-4.7927,-4.9745,-5.3846,-5.5973,-5.6031,-5.6012,-5.6051,-5.6051,-5.5993,-5.518,-5.344,0.0,0.0,0.0,0.0,0.0,0.0,0.0,0.0,0.0,0.0,0.0,0.0,0.0,0.0,0.0,0.0,0.0,0.0,0.0,0.0,0.0,0.0,0.0,0.0,0.0,0.0,-3.4369,-3.6613,-3.7077,0.0,0.0,0.0,0.0,0.0,0.0,0.0,0.0,0.0,0.0,-4.1902,-4.3864,-4.4744,-4.5643,-4.6196,-4.6215,-4.6215,-4.6196,-4.6235,-4.6215,-4.6196,0.0,0.0,0.0,0.0,0.0,0.0,0.0,0.0,0.0,0.0,0.0,0.0,0.0,0.0,0.0,0.0,0.0,0.0,0.0,0.0,0.0,0.0,0.0,0.0,0.0,0.0,0.0,-3.112,-3.4679,0.0,0.0,0.0,0.0,0.0,0.0,0.0,0.0,0.0,0.0,0.0,-4.2899,-4.2899,0.0,0.0,0.0,0.0,0.0,0.0,0.0,0.0,0.0,0.0,0.0,0.0,-4.8798,-5.0577,-5.4136,-5.6283,-5.6844,-5.6863,-5.7153,-5.7695,-5.7172,-5.5799,-5.3556,0.0,0.0,0.0,0.0,0.0,0.0,0.0,0.0,0.0,0.0,0.0,0.0,0.0,0.0,0.0,0.0,0.0,0.0,0.0,0.0,0.0,0.0,0.0,0.0,0.0,-3.6911,0.0,0.0,0.0,0.0,0.0,0.0,0.0,0.0,0.0,0.0,0.0,-4.048,-4.2782,-4.386,-4.4714,-4.5598,-4.5982,-4.6395,0.0,0.0,0.0,0.0,0.0,0.0,0.0,0.0,0.0,0.0,0.0,0.0,0.0,0.0,-3.7831,-3.5545,-3.5584,-3.5974,-3.5926,0.0,0.0,0.0,0.0,0.0,0.0,0.0,0.0,0.0,0.0,0.0,0.0,0.0,0.0,-3.5878,0.0,-3.9843,0.0,0.0,0.0,0.0,0.0,0.0,0.0,0.0,-4.5413,-4.6109,-4.638,-4.638,-4.6515,0.0,-4.5935,-4.4678,0.0,0.0,0.0,0.0,0.0,0.0,0.0,0.0,-5.0113,-5.1854,-5.4871,-5.6882,-5.7695,-5.7753,-5.8023,-5.8547,-5.7718,-5.6481,-5.4819,-5.2829,-5.0336,0.0,0.0,0.0,0.0,0.0,0.0,0.0,0.0,0.0,0.0,0.0,0.0,0.0,0.0,0.0,0.0,0.0,0.0,0.0,0.0,0.0,0.0,0.0,-3.9509,0.0,0.0,0.0,0.0,0.0,0.0,0.0,0.0,0.0,-4.0636,-4.1791,-4.3413,-4.5424,-4.5949,-4.6329,-4.6922,0.0,0.0,0.0,0.0,0.0,0.0,0.0,-4.7384,-4.8241,-4.7463,-4.6991,-4.7835,-4.6829,-4.5621,-4.4765,0.0,0.0,-3.971,-3.9295,-3.9449,-3.9426,-3.9403,-3.9419,-3.9412,-3.9403,-3.9399,0.0,0.0,0.0,0.0,0.0,0.0,0.0,0.0,-3.999,-4.0694,0.0,-4.3266,0.0,0.0,0.0,0.0,0.0,-4.6283,0.0,0.0,-5.0035,-5.05,-4.9823,-4.9803,-5.021,-5.0906,-5.0132,-5.0616,-5.1912,-4.7347,0.0,0.0,0.0,0.0,0.0,0.0,-5.1834,-5.3536,-5.6033,-5.7772,-5.8604,-5.8642,-5.8606,-5.853,-5.7661,-5.7178,-5.7101,-5.4709,-5.2992,-5.2067,-4.7342,0.0,0.0,0.0,0.0,0.0,0.0,0.0,0.0,0.0,0.0,0.0,0.0,0.0,0.0,0.0,0.0,0.0,0.0,0.0,0.0,-4.061,0.0,0.0,0.0,0.0,0.0,0.0,0.0,0.0,0.0,0.0,-4.2682,-4.4519,-4.6415,-4.7349,0.0,0.0,0.0,0.0,-4.8701,-4.8747,-4.8708,-4.8716,-4.8826,-4.8806,-4.904,-4.982,0.0,0.0,-4.9061,-4.8262,-4.748,-4.6641,-4.7129,-4.6601,-4.3236,-4.1995,-4.142,-4.1342,-4.1381,-4.13,-4.1273,-4.1425,-4.1382,-3.8388,0.0,0.0,0.0,0.0,-3.4563,-3.7831,-4.3537,-4.3866,-4.5974,-4.9262,-4.8875,0.0,0.0,0.0,0.0,0.0,0.0,-4.8798,-5.0171,-5.0674,-5.1447,-5.2395,-5.2414,-5.2531,-5.2743,-5.2531,-5.3594,-5.5664,-5.3754,-5.1222,-4.8295,0.0,0.0,0.0,0.0,-5.3235,-5.4433,-5.683,-5.851,-5.9379,-5.9398,-5.9379,-5.9359,-5.7949,-5.7178,-5.7139,-5.5808,-5.442,-5.2993,-5.0951,0.0,0.0,0.0,0.0,0.0,0.0,0.0,0.0,0.0,0.0,0.0,0.0,0.0,0.0,0.0,0.0,0.0,0.0,0.0,-4.2459,-4.3878,-4.397,0.0,0.0,0.0,0.0,0.0,0.0,0.0,0.0,0.0,-4.6771,-4.7319,-4.813,0.0,0.0,-4.861,-4.8621,-4.8623,-4.8857,-4.9547,-4.9097,0.0,0.0,-4.9177,-4.9079,-4.9878,-5.0569,-5.0752,-4.9896,-5.0058,-5.0234,-4.9961,-4.9668,-4.8926,-4.7421,-4.6323,-4.5522,-4.4992,-4.4816,-4.4816,-4.4813,-4.4813,-4.4793,-4.7159,-4.3559,-3.9219,-3.8972,-4.1351,-4.0713,-4.373,-4.9107,-4.8914,-5.0306,-5.2666,-5.2163,-5.166,-5.1177,-5.0674,0.0,0.0,0.0,-5.1157,-5.2434,-5.2086,-5.2492,-5.3459,-5.3462,-5.3638,-5.3986,-5.4297,-5.5592,-5.7718,-5.6869,-5.5363,-5.3159,0.0,0.0,-5.0938,-5.3528,-5.5306,-5.6213,-5.7969,-5.9338,-6.0187,-6.0205,-6.001,-5.9644,-5.8331,-5.7464,-5.7079,-5.6209,-5.5304,-5.4284,-5.3128,-5.0933,0.0,0.0,0.0,0.0,0.0,0.0,0.0,0.0,0.0,0.0,0.0,-3.502,0.0,0.0,0.0,0.0,-4.3181,-4.4453,-4.5819,-4.6433,0.0,0.0,0.0,0.0,0.0,0.0,0.0,-4.4733,-4.7231,-4.8977,-4.898,-4.9311,-4.9744,-5.0348,-4.9959,-4.9629,-4.9632,0.0,-4.9838,-5.0432,-5.0071,-4.9913,-5.0416,-5.0112,-4.9956,-5.0463,-5.0984,-5.1206,-5.0757,-5.1066,-5.1367,-5.1348,-5.1016,-5.0292,-4.9136,-4.8457,-4.7712,-4.6553,-4.6295,-4.629,-4.629,-4.6306,-4.63,-5.467,-5.3821,-4.3849,-4.3233,-4.8628,-4.7173,-5.0059,-5.5666,-5.431,-5.3691,-5.371,-5.371,-5.371,-5.3691,-5.3691,0.0,-5.3594,-5.3672,-5.41,-5.4854,-5.4119,-5.381,-5.3868,-5.3853,-5.4204,-5.5015,-5.575,-5.6946,-5.8432,-5.7698,-5.7736,-5.8546,-5.7794,-5.6541,-5.4979,-5.6387,-5.7621,-5.8488,-5.9337,-6.0166,-6.0957,-6.0856,-6.0448,-5.9736,-5.8707,-5.7857,-5.7107,-5.6203,-5.5682,-5.5624,-5.4201,-5.2951,-5.1913,0.0,0.0,0.0,0.0,0.0,0.0,0.0,0.0,0.0,0.0,0.0,0.0,0.0,0.0,0.0,-4.6251,0.0,-4.8326,-4.833,0.0,0.0,0.0,-4.6799,-4.6059,-4.677,-4.7287,-4.7274,0.0,0.0,-4.9804,-5.055,-5.1114,-5.1178,-5.121,-5.1214,-5.1197,-5.115,-5.121,-5.121,-5.1287,-5.1276,-5.1187,-5.1176,-5.1176,-5.1273,-5.1334,-5.1295,-5.1328,-5.1371,-5.1387,-5.1387,-5.1387,-5.0896,-4.9289,-4.8945,-4.8379,-4.6737,-4.6366,-4.6303,-4.6303,-4.6295,-4.6303,-5.5538,-5.5384,-5.2798,-5.2257,-5.3068,-5.2682,-5.347,-5.4993,-5.5302,-5.5397,-5.5412,-5.5412,-5.5412,-5.5412,-5.5393,-5.5047,-5.4452,-5.5109,-5.5497,-5.5672,-5.6078,-5.658,-5.7217,-5.7236,-5.7313,-5.7545,-5.7699,-5.8354,-5.9358,-5.9143,-5.9468,-6.0258,-6.006,-5.8792,-5.6618,-5.7523,-5.8447,-5.9333,-6.0118,-6.0635,-6.0827,-6.0169,-6.0054,-6.0496,-5.8437,-5.753,-5.7934,-5.6376,-5.5504,-5.5531,-5.5121,-5.4215,-5.2807,-5.0429,0.0,0.0,0.0,0.0,0.0,0.0,0.0,0.0,0.0,-4.1258,-4.3006,0.0,-4.7489,0.0,-4.9163,-4.9625,-4.9181,-4.9161,0.0,0.0,-4.789,-4.7831,-4.7601,-4.8367,-4.8919,-4.8916,-4.9911,-5.0631,-5.0676,-5.0903,-5.1053,-5.1114,-5.1166,-5.1202,-5.1214,-5.1214,-5.1206,-5.1229,-5.1229,-5.122,-5.1249,-5.1267,-5.1315,-5.1249,-5.1267,-5.1304,-5.1326,-5.1355,-5.14,-5.1323,-5.1308,-5.0913,-4.9981,-4.9293,-4.8504,-4.7478,-4.6774,-4.6289,-4.6289,-4.6305,-4.6297,-5.5766,-5.5806,-5.5806,-5.5517,-5.5093,-5.5172,-5.521,-5.5286,-5.575,-5.5961,-5.596,-5.5941,-5.596,-5.5941,-5.5941,-5.5691,-5.5286,-5.573,-5.6136,-5.6503,-5.6908,-5.7583,-5.8412,-5.8352,-5.8352,-5.8371,-5.8717,-5.9119,-5.9601,-5.9964,-6.0384,-6.0846,-6.0823,-6.0092,-5.883,-5.9194,-5.9653,-6.0134,-6.055,-6.0753,-6.0734,-6.0272,-6.008,-6.009,-5.8446,-5.754,-5.7589,-5.6165,-5.5389,-5.5427,-5.5402,-5.479,-5.3556,-5.1928,-4.9819,0.0,0.0,0.0,0.0,0.0,0.0,0.0,0.0,0.0,0.0,0.0,-4.9452,-4.9933,-5.0414,-5.0491,-5.001,-5.0009,-4.9836,-4.9317,-4.9278,-4.9335,-4.9295,-4.9772,-5.0096,-5.011,-5.0584,-5.0925,-5.0956,-5.0986,-5.1053,-5.1101,-5.1153,-5.1202,-5.1183,-5.1175,-5.1217,-5.12,-5.121,-5.122,-5.122,-5.1609,-5.1734,-5.1327,-5.1239,-5.1248,-5.1249,-5.1288,-5.1315,-5.1308,-5.1292,-5.1023,-5.0216,-4.9364,-4.8509,-4.7657,-4.6839,-4.6317,-4.6287,-4.6289,-4.6307,-5.5972,-5.5876,-5.5972,-5.603,-5.6011,-5.6038,-5.5982,-5.5866,-5.5866,-5.5885,-5.5924,-5.5924,-5.5924,-5.5924,-5.5924,-5.5885,-5.5885,-5.6001,-5.6464,-5.7177,-5.7254,-5.7717,-5.8546,-5.8484,-5.852,-5.8635,-5.9323,-5.9665,-5.9685,-6.0392,-6.0777,-6.08,-6.0757,-6.0777,-6.0777,-6.0734,-6.0757,-6.08,-6.0734,-6.0704,-6.0685,-6.066,-6.0271,-5.9466,-5.8711,-5.7843,-5.6881,-5.5995,-5.5447,-5.5301,-5.5281,-5.4957,-5.4237,-5.2673,-5.1122,0.0,-4.722,0.0,0.0,0.0,0.0,0.0,0.0,0.0,0.0,-5.0414,-5.0837,-5.0856,-5.076,-5.0683,-5.0683,-5.0683,-5.0683,-5.0683,-5.0702,-5.074,-5.0793,-5.081,-5.0844,-5.0909,-5.089,-5.0906,-5.0925,-5.1024,-5.1067,-5.1101,-5.1153,-5.1152,-5.1113,-5.1167,-5.1208,-5.122,-5.1298,-5.1473,-5.1551,-5.2105,-5.2242,-5.1483,-5.122,-5.1211,-5.1201,-5.122,-5.122,-5.1279,-5.1288,-5.102,-5.027,-4.9401,-4.8474,-4.7762,-4.6879,-4.624,-4.6273,-4.6306,-4.6289,-5.7396,-5.6819,-5.7511,-5.7819,-5.7761,-5.7091,-5.6421,-5.5826,-5.5826,-5.5846,-5.5924,-5.5924,-5.5924,-5.5924,-5.5924,-5.5885,-5.5865,-5.6558,-5.6922,-5.7074,-5.7745,-5.8514,-5.9265,-5.9284,-5.965,-6.0323,-6.0426,-6.0503,-6.0531,-6.0628,-6.0704,-6.08,-6.0655,-6.0578,-6.061,0.0,0.0,0.0,-6.071,-6.066,-6.0629,-6.0559,-6.0384,-6.0119,-5.9354,0.0,-5.7626,-5.6717,-5.5873,-5.5206,-5.5149,0.0,0.0,0.0,0.0,0.0,0.0,0.0,0.0,0.0,0.0,0.0,-5.0465,-5.06,-5.1355,-5.1587,-5.1683,-5.1664,-5.1087,-5.0683,-5.0683,-5.0683,-5.0683,-5.0702,-5.0682,-5.0739,-5.0793,-5.0827,-5.0899,-5.0899,-5.0893,-5.0921,-5.0971,-5.1005,-5.1053,-5.1101,-5.1121,-5.1127,-5.1127,-5.1152,-5.1214,-5.1233,-5.1711,-5.2158,-5.2197,-5.2355,-5.2308,-5.147,-5.1229,-5.122,-5.12,-5.121,-5.121,-5.1229,-5.1208,-5.1169,-5.0966,-4.9761,-4.869,-4.8479,-4.7267,-4.6203,-4.6216,-4.627,-4.6305,-5.7242,0.0,-5.7646,-5.7896,0.0,-5.7357,-5.7014,-5.6977,-5.613,-5.5766,-5.5825,-5.6249,-5.621,-5.5825,-5.6249,-5.619,-5.5784,-5.6207,-5.6629,-5.7011,-5.7434,-5.8107,-5.8915,-5.8873,-5.9292,-6.008,-6.0051,-6.0257,-6.0685,-6.0559,-6.0468,-6.0546,-6.036,-6.0342,-6.0351,-6.0246,-6.0304,-6.0441,-6.0433,-6.0406,-6.0351,-6.0313,-6.0207,-6.0121,0.0,0.0,0.0,0.0,0.0,0.0,0.0,0.0,0.0,0.0,0.0,-5.255,-5.2132,-5.1885,-5.1939,-5.1946,-5.236,-5.3245,-5.3321,-5.3053,-5.2414,-5.2852,-5.297,-5.2466,-5.1739,-5.1298,-5.1279,-5.0952,-5.0683,-5.0702,-5.0683,-5.0702,-5.0757,-5.081,-5.0883,-5.0899,-5.0893,-5.0906,-5.0956,-5.1005,-5.1073,-5.1101,-5.1121,-5.1159,-5.1139,-5.1171,-5.1202,-5.126,-5.229,-5.271,-5.208,-5.2655,-5.2647,-5.1586,-5.1208,-5.1219,-5.1217,-5.1217,-5.1208,-5.1206,-5.1206,-5.1217,-5.11,-5.0139,-4.9294,-4.9187,-4.831,-4.7295,-4.6897,-4.6507,-4.6249,-5.7338,-5.8454,-5.7896,-5.8088,-5.8684,-5.7819,-5.778,-5.8204,0.0,0.0,0.0,-5.6742,-5.6607,-5.5992,-5.6511,-5.6376,-5.5682,-5.5703,-5.6066,-5.6739,-5.6739,-5.72,-5.8004,-5.7977,-5.8357,-5.9144,-5.9248,-5.9639,-6.0303,-6.0283,-6.0265,-6.0256,-6.011,-6.0038,-5.9988,-5.9988,-6.0038,-6.008,-6.0099,-6.0087,-6.0087,-5.9994,-5.9931,-5.9931,-5.9248,-5.878,-5.8597,-5.7258,-5.6481,-5.6398,-5.5602,-5.4844,-5.42,-5.3992,-5.3594,-5.293,-5.2836,-5.3215,-5.4011,-5.4096,-5.4417,-5.5191,-5.5255,-5.469,-5.3334,-5.397,-5.4076,-5.3257,-5.2521,-5.2104,-5.2066,-5.1375,-5.0914,-5.0933,-5.0798,-5.0702,-5.072,-5.0793,-5.0846,-5.0899,-5.0913,-5.0909,-5.0906,-5.099,-5.1087,-5.1101,-5.1134,-5.1171,-5.1202,-5.1202,-5.128,-5.1552,-5.2523,-5.2904,-5.2033,-5.25,-5.2869,-5.1489,-5.1197,-5.1217,-5.1214,-5.1202,-5.1202,-5.1202,-5.1202,-5.1202,-5.1144,-5.0464,-4.994,-4.9893,-4.9264,-4.8468,-4.7757,-4.6967,-4.6403,-5.9762,-5.9377,-5.9992,-6.0339,-6.0396,-5.9531,-5.8838,-5.83,-5.803,-5.7934,-5.7896,-5.7216,-5.689,-5.678,-5.6102,-5.5753,-5.5618,-5.5618,-5.565,0.0,-5.57,-5.618,-5.6985,-5.7004,-5.7445,-5.8289,-5.8904,-5.9228,-5.9366,-5.9874,-6.0129,-6.0099,-5.988,-5.973,-5.9658,-5.9681,-5.9666,-5.9613,-5.9866,-6.0026,-5.9994,-5.9815,-5.9715,-5.9666,-5.9553,-5.9171,-5.8538,-5.8273,-5.787,-5.7251,-5.6455,-5.5962,-5.583,-5.5129,-5.4674,-5.456,-5.4541,-5.4617,-5.4741,-5.476,-5.4817,-5.4922,-5.5057,-5.5061,-5.4938,-5.4454,-5.4096,-5.3899,-5.3273,-5.2842,-5.2785,-5.2179,-5.1741,-5.1761,-5.1145,-5.0758,-5.0943,-5.0941,-5.0941,-5.0957,-5.0899,-5.0913,-5.089,-5.0921,-5.099,-5.1067,-5.1108,-5.1127,-5.119,-5.1202,-5.1513,-5.2057,-5.2407,-5.2465,-5.2185,-5.236,-5.2244,-5.1389,-5.1214,-5.1214,-5.1202,-5.1202,-5.1202,-5.1202,-5.1202,-5.1202,-5.1183,-5.0503,-5.0076,-4.9959,-4.9349,-4.8699,-4.8407,-4.763,-4.6892,-5.8338,-5.88,-5.8761,-5.8992,-5.9435,-5.9473,-5.93,-5.9011,-5.9407,-5.9062,-5.827,-5.8223,-5.7719,-5.6898,-5.6932,-5.6433,-5.5551,-5.5551,-5.5508,-5.5504,-5.5523,-5.5715,-5.606,-5.6074,-5.651,-5.7353,-5.8001,-5.8549,-5.9007,-5.9545,-5.9815,-5.9815,-5.9578,-5.9453,-5.9434,-5.9436,-5.9438,-5.9513,-5.9634,-5.9719,-5.9719,-5.9562,-5.9491,-5.9545,-5.9455,-5.934,-5.9068,-5.8669,-5.8301,-5.8021,-5.6841,-5.6379,-5.6777,-5.5602,-5.511,-5.5546,-5.5166,-5.4901,-5.4901,-5.4901,-5.4901,-5.4901,-5.496,-5.5028,-5.5085,-5.4859,-5.4747,-5.4631,-5.4014,-5.3609,-5.357,-5.2866,-5.2417,-5.2525,-5.216,-5.2029,-5.2088,-5.1757,-5.1561,-5.1503,-5.117,-5.0893,-5.089,-5.0941,-5.0971,-5.1034,-5.1062,-5.1121,-5.1127,-5.1139,-5.1275,-5.1688,-5.2115,-5.2154,-5.1882,-5.2154,-5.1999,-5.1319,-5.1202,-5.1202,-5.1202,-5.1202,-5.1202,-5.1202,-5.1202,-5.1202,-5.1202,-5.0911,-5.0658,-5.0561,-5.0348,-4.9784,-4.8852,-4.757,-4.6552,-5.7319,-5.8492,-5.7646,-5.7684,-5.8377,-5.9165,-5.9492,-5.9565,-6.0301,-5.995,-5.887,-5.9147,-5.847,-5.7229,-5.7569,-5.6937,-5.5614,-5.5461,-5.5499,-5.5476,-5.5476,-5.5476,-5.5408,-5.5358,-5.5677,-5.6313,-5.6949,-5.7604,-5.8266,-5.8959,-5.9411,-5.9508,-5.9364,-5.929,-5.929,-5.929,-5.9347,-5.944,-5.9458,-5.9457,-5.9512,-5.9365,-5.9365,-5.9438,-5.9401,-5.9383,-5.9455,-5.8961,-5.8706,-5.8732,-5.7453,-5.6993,-5.7573,-5.6285,-5.5773,-5.6304,-5.5659,-5.5091,-5.492,-5.4901,-5.4901,-5.4901,-5.4901,-5.4901,-5.4941,-5.5149,-5.521,-5.5045,-5.4631,-5.4346,-5.4276,-5.3626,-5.3159,-5.3276,-5.3088,-5.2982,-5.3106,-5.2705,-5.226,-5.2067,-5.1539,-5.1128,-5.0971,-5.1099,-5.1285,-5.1334,-5.1175,-5.1048,-5.1069,-5.1082,-5.1095,-5.1256,-5.1734,-5.1863,-5.1338,-5.1668,-5.1785,-5.126,-5.1202,-5.1202,-5.1202,-5.1202,-5.1202,-5.1202,-5.1202,-5.1202,-5.1202,-5.1183,-5.1144,-5.1105,-5.1027,-5.0561,-4.891,-4.7492,-4.6298,-5.9184,-5.9261,-5.8415,-5.8223,-5.8357,-5.9127,-5.9388,-5.9475,-6.0227,-6.052,-6.0066,-5.953,-5.8732,-5.7914,-5.7175,-5.6326,-5.5465,-5.5389,-5.5421,-5.5422,-5.5409,-5.5313,-5.5187,-5.514,-5.5104,-5.5236,-5.5947,-5.633,-5.6417,-5.78,-5.8792,-5.9252,-5.929,-5.929,-5.929,-5.929,-5.929,-5.9309,-5.9309,-5.9401,-5.9493,-5.9365,-5.929,-5.929,-5.9401,-5.9493,-5.9512,-5.947,-5.9537,-5.9587,-5.8751,-5.8362,-5.8464,-5.7668,-5.7194,-5.7251,-5.6512,-5.5754,-5.5015,-5.4901,-5.4901,-5.4901,-5.4901,-5.4941,-5.5066,-5.5111,-5.5111,-5.5083,-5.5045,-5.5004,-5.511,-5.4448,-5.4039,-5.4096,-5.3568,-5.3078,-5.3339,-5.3225,-5.2897,-5.2069,-5.1952,-5.1624,-5.1042,-5.1387,-5.1901,-5.1881,-5.1324,-5.0956,-5.102,-5.1029,-5.1037,-5.105,-5.1231,-5.1307,-5.1222,-5.1241,-5.1338,-5.1222,-5.1202,-5.1202,-5.1202,-5.1202,-5.1202,-5.1202,-5.1202,-5.1202,-5.1202,-5.1202,-5.1202,-5.1152,-5.1035,-5.0639,-4.9027,-4.7784,-4.6929,-5.803,-5.7915,-5.7107,-5.7002,-5.7369,-5.7714,-5.8073,-5.8477,-5.875,-5.8888,-5.8822,-5.8424,-5.8099,-5.7737,-5.6768,-5.6121,-5.5779,-5.5322,-5.5351,-5.576,-5.5798,-5.5769,-5.5673,-5.5692,-5.5662,-5.5621,-5.587,-5.5964,-5.6088,-5.7005,-5.786,-5.852,-5.8596,-5.884,-5.9253,-5.929,-5.929,-5.929,-5.929,-5.9346,-5.9365,-5.9327,-5.929,-5.929,-5.9346,-5.9383,-5.9401,-5.9526,-5.9616,-5.9647,-5.9011,-5.8868,-5.9355,-5.8123,-5.763,-5.8028,-5.691,-5.583,-5.4977,-5.4901,-5.4901,-5.4901,-5.4901,-5.496,-5.5094,-5.5076,-5.5161,-5.5295,-5.5281,-5.5203,-5.5164,-5.4969,-5.4836,-5.4847,-5.4633,-5.4537,-5.4705,-5.4283,-5.3687,-5.2897,-5.2319,-5.174,-5.1063,-5.1136,-5.1402,-5.1447,-5.108,-5.0925,-5.0971,-5.1034,-5.1062,-5.1069,-5.1159,-5.119,-5.1202,-5.1202,-5.1202,-5.1202,-5.1202,-5.1202,-5.1202,-5.1202,-5.1202,-5.1202,-5.1202,-5.1202,-5.1202,-5.1202,-5.1183,-5.1081,-5.0552,-4.9989,-4.8817,-4.7905,-4.7043,-5.7357,-5.7184,-5.6121,-5.5873,-5.6365,-5.6524,-5.6893,-5.7366,-5.7539,-5.7644,-5.7577,-5.73,-5.7146,-5.7059,-5.6618,-5.6341,-5.6057,-5.5735,-5.5868,-5.6379,-5.6228,-5.6083,-5.6034,-5.5787,-5.5662,-5.5618,-5.5522,-5.5607,-5.5819,-5.6281,-5.6962,-5.7676,-5.7995,-5.8408,-5.8934,-5.9159,-5.929,-5.929,-5.929,-5.929,-5.929,-5.929,-5.929,-5.929,-5.9346,-5.9365,-5.929,-5.951,-5.9616,-5.9597,-5.9204,-5.9265,-5.9791,-5.871,-5.8161,-5.8199,-5.7232,-5.6038,-5.4996,-5.4901,-5.4901,-5.4901,-5.4901,-5.499,-5.5111,-5.5173,-5.5274,-5.5489,-5.5461,-5.5358,-5.5255,-5.5255,-5.5326,-5.5358,-5.5456,-5.5551,-5.5585,-5.5129,-5.4398,-5.3417,-5.2762,-5.2087,-5.1315,-5.1061,-5.0996,-5.1264,-5.107,-5.0858,-5.0925,-5.0975,-5.1039,-5.1042,-5.1114,-5.119,-5.1202,-5.1202,-5.1202,-5.1202,-5.1202,-5.1202,-5.1202,-5.1202,-5.1202,-5.1202,-5.1202,-5.1047,-5.0814,-5.0814,-5.1101,-5.094,-5.0435,-4.964,-4.8774,-4.7901,-4.702,-5.8242,-5.7931,-5.6194,-5.5484,-5.5498,-5.6042,-5.6245,-5.632,-5.708,-5.743,-5.7168,-5.6368,-5.5983,-5.6039,-5.6759,-5.6853,-5.6266,-5.6671,-5.6961,-5.7056,-5.6424,-5.6021,-5.5824,-5.505,-5.4665,-5.4796,-5.4683,-5.4931,-5.5535,-5.5629,-5.6117,-5.6943,-5.7619,-5.8071,-5.8297,-5.8878,-5.9271,-5.929,-5.929,-5.929,-5.929,-5.929,-5.929,-5.929,-5.9401,-5.9401,-5.9346,-5.9491,-5.9616,-5.9616,-5.9681,-5.9767,-5.9885,-5.9753,-5.8995,-5.7687,-5.7365,-5.6569,-5.5166,-5.4901,-5.4901,-5.4901,-5.4901,-5.5,-5.521,-5.5274,-5.5391,-5.5643,-5.564,-5.5596,-5.548,-5.5408,-5.5383,-5.5456,-5.5504,-5.5573,-5.5684,-5.5607,-5.4857,-5.3587,-5.2973,-5.2435,-5.1876,-5.1276,-5.1217,-5.1485,-5.1238,-5.0757,-5.0793,-5.0863,-5.0929,-5.0971,-5.1042,-5.1127,-5.119,-5.1202,-5.1202,-5.1202,-5.1202,-5.1202,-5.1202,-5.1202,-5.1202,-5.1202,-5.1202,-5.0969,-5.0425,-5.0402,-5.0811,-5.0765,-5.0422,-4.9685,-4.9071,-4.7953,-4.7112,-5.7578,-5.6443,-5.6155,-5.5633,-5.5,-5.5177,-5.525,-5.5227,-5.5492,-5.5612,-5.5561,-5.5214,-5.5004,-5.498,-5.5856,-5.6116,-5.5762,-5.5588,-5.6022,-5.6798,-5.6139,-5.6293,-5.7124,-5.592,-5.5548,-5.5779,-5.4916,-5.454,-5.4784,-5.4841,-5.5254,-5.5967,-5.6361,-5.7001,-5.7959,-5.839,-5.8764,-5.9253,-5.929,-5.929,-5.929,-5.929,-5.929,-5.929,-5.9346,-5.9383,-5.9438,-5.9526,-5.9669,-5.9723,-5.9805,-5.9872,-5.9847,-5.9393,-5.8616,-5.7516,-5.6929,-5.6114,-5.5091,-5.4901,-5.4901,-5.4901,-5.4901,-5.4971,-5.5138,-5.525,-5.5371,-5.5538,-5.564,-5.5662,-5.564,-5.5573,-5.557,-5.5504,-5.5573,-5.564,-5.5684,-5.5665,-5.5068,-5.3491,-5.2356,-5.1453,-5.1279,-5.0912,-5.0873,-5.114,-5.0948,-5.0813,-5.0829,-5.0913,-5.096,-5.102,-5.1108,-5.119,-5.119,-5.1202,-5.1202,-5.1202,-5.1202,-5.1202,-5.1202,-5.1202,-5.1202,-5.1163,-5.1183,-5.0693,-5.0072,-4.9802,-5.0261,-5.0344,-5.0021,-5.0065,-4.953,-4.8373,-4.7579,-5.718,-5.5925,-5.6139,-5.5673,-5.4761,-5.4648,-5.4565,-5.4533,-5.4519,-5.4552,-5.4533,-5.4552,-5.4472,-5.4465,-5.4991,-5.5216,-5.5254,-5.5197,-5.5817,-5.6756,-5.6023,-5.6211,-5.6906,-5.5873,-5.5516,-5.5854,-5.4991,-5.4409,-5.4409,-5.4409,-5.4709,-5.5197,-5.5479,-5.6155,-5.7189,-5.7826,-5.8427,-5.8858,-5.9159,-5.929,-5.929,-5.929,-5.929,-5.929,-5.929,-5.9365,-5.9512,-5.9545,-5.9669,-5.9791,-5.9872,-5.9904,-5.9828,-5.9374,-5.8578,-5.7516,-5.6891,-5.6076,-5.5091,-5.4901,-5.4901,-5.4901,-5.4901,-5.4941,-5.5075,-5.5235,-5.5351,-5.5489,-5.5618,-5.5684,-5.5684,-5.5684,-5.5682,-5.5596,-5.566,-5.5684,-5.5665,-5.5472,-5.4511,-5.2991,-5.1606,-5.0856,-5.0683,-5.0702,-5.074,-5.0776,-5.0776,-5.0794,-5.0829,-5.0913,-5.099,-5.1053,-5.1108,-5.1146,-5.1146,-5.1146,-5.1159,-5.1159,-5.1159,-5.1171,-5.1171,-5.119,-5.1202,-5.1144,-5.0783,-5.0254,-4.9821,-4.9433,-4.9478,-4.9691,-5.0181,-5.04,-4.9664,-4.8811,-4.7862,-5.7167,-5.6292,-5.6095,-5.5498,-5.4717,-5.4505,-5.4409,-5.4424,-5.4443,-5.4424,-5.4424,-5.439,-5.4443,-5.4428,-5.4521,-5.4465,-5.4728,-5.5798,-5.6493,-5.6662,-5.5892,-5.5648,-5.5873,-5.501,-5.4559,-5.4653,-5.4465,-5.4409,-5.4409,-5.4409,-5.4465,-5.4578,-5.5197,-5.5629,-5.5736,-5.7298,-5.807,-5.8425,-5.8971,-5.929,-5.929,-5.929,-5.929,-5.929,-5.9309,-5.9383,-5.9512,-5.9545,-5.965,-5.9791,-5.9872,-5.9904,-5.9885,-5.9753,-5.9051,-5.7668,-5.7327,-5.6512,-5.5166,-5.4901,-5.4901,-5.4901,-5.4901,-5.4952,-5.5094,-5.5243,-5.5369,-5.5485,-5.5618,-5.5684,-5.5684,-5.5684,-5.5703,-5.5703,-5.5703,-5.5684,-5.5568,-5.4953,-5.3857,-5.2375,-5.1279,-5.0741,-5.0683,-5.0702,-5.0702,-5.0702,-5.0702,-5.074,-5.0757,-5.0863,-5.0929,-5.099,-5.1081,-5.1121,-5.1102,-5.1089,-5.1102,-5.1102,-5.1095,-5.1108,-5.1139,-5.1139,-5.119,-5.1093,-5.0112,-4.9543,-4.8774,-4.8502,-4.8883,-4.9232,-4.994,-5.0405,-4.965,-4.8739,-4.7738,-5.6711,-5.5483,-5.5737,-5.5362,-5.4529,-5.4424,-5.4409,-5.4409,-5.4409,-5.4409,-5.4409,-5.4409,-5.4409,-5.4409,-5.4409,-5.4409,-5.4465,-5.4991,-5.5479,-5.5798,-5.5179,-5.5404,-5.6005,-5.5047,-5.4409,-5.4409,-5.4409,-5.4409,-5.4409,-5.4409,-5.4409,-5.4484,-5.4653,-5.5385,-5.6396,-5.7037,-5.7713,-5.884,-5.9159,-5.929,-5.929,-5.929,-5.929,-5.9309,-5.9401,-5.9493,-5.9545,-5.9562,-5.9685,-5.9853,-5.9904,-5.9904,-5.9809,-5.9374,-5.854,-5.7516,-5.6853,-5.6114,-5.5129,-5.4901,-5.4901,-5.4912,-5.4981,-5.5047,-5.513,-5.5312,-5.5451,-5.5508,-5.5618,-5.5684,-5.5684,-5.5684,-5.5684,-5.5684,-5.5684,-5.5684,-5.5491,-5.4511,-5.3491,-5.2799,-5.1568,-5.0779,-5.0702,-5.0702,-5.0683,-5.0683,-5.0683,-5.0702,-5.0757,-5.0844,-5.0925,-5.0986,-5.1029,-5.1075,-5.1075,-5.1062,-5.1062,-5.1075,-5.1082,-5.1095,-5.1108,-5.1088,-5.1139,-5.0532,-4.9569,-4.8709,-4.7926,-4.7829,-4.8211,-4.8792,-4.9475,-4.9553,-4.9334,-4.8662,-4.7743,-5.6304,-5.5347,-5.5659,-5.5262,-5.4446,-5.4409,-5.4409,-5.4409,-5.4409,-5.4409,-5.4409,-5.4409,-5.4409,-5.4409,-5.4409,-5.4409,-5.4409,-5.4409,-5.4672,-5.5047,-5.469,-5.5028,-5.5817,-5.4972,-5.4409,-5.4409,-5.4409,-5.4409,-5.4409,-5.4409,-5.4409,-5.4409,-5.4409,-5.5047,-5.6343,-5.6774,-5.76,-5.8727,-5.914,-5.929,-5.929,-5.929,-5.929,-5.9309,-5.9457,-5.9529,-5.9616,-5.965,-5.9719,-5.9853,-5.9904,-5.9904,-5.9847,-5.9412,-5.8616,-5.7554,-5.691,-5.6171,-5.511,-5.496,-5.499,-5.5,-5.5094,-5.5176,-5.521,-5.537,-5.5503,-5.5531,-5.5638,-5.5684,-5.5684,-5.5684,-5.5684,-5.5684,-5.5684,-5.5549,-5.5203,-5.4357,-5.3568,-5.3049,-5.1991,-5.1318,-5.1125,-5.0798,-5.0721,-5.0683,-5.0683,-5.0721,-5.0793,-5.0858,-5.0941,-5.0986,-5.1048,-5.1062,-5.1053,-5.1053,-5.1039,-5.1048,-5.1089,-5.1082,-5.1095,-5.1043,-5.1005,-4.9737,-4.8676,-4.7759,-4.701,-4.7248,-4.7597,-4.8294,-4.8991,-4.9165,-4.9127,-4.8769,-4.7923,-5.5869,-5.5842,-5.5762,-5.5172,-5.4446,-5.4409,-5.4409,-5.4409,-5.4409,-5.4409,-5.4409,-5.4409,-5.4409,-5.4409,-5.4409,-5.4409,-5.4409,-5.4409,-5.4428,-5.4503,-5.4409,-5.4578,-5.4615,-5.4484,-5.4409,-5.4409,-5.4409,-5.4409,-5.4409,-5.4409,-5.4409,-5.4409,-5.4428,-5.4803,-5.5723,-5.6474,-5.7338,-5.8201,-5.8915,-5.929,-5.929,-5.929,-5.9309,-5.9346,-5.9457,-5.9564,-5.9634,-5.9738,-5.9805,-5.9904,-5.9904,-5.9904,-5.9904,-5.9904,-5.9089,-5.7706,-5.7441,-5.6543,-5.5424,-5.5066,-5.5113,-5.514,-5.5233,-5.5305,-5.5314,-5.5431,-5.5544,-5.5551,-5.5618,-5.5684,-5.5684,-5.5662,-5.5662,-5.5703,-5.5703,-5.5395,-5.4741,-5.453,-5.403,-5.326,-5.2472,-5.1818,-5.1625,-5.1048,-5.0779,-5.0702,-5.0702,-5.072,-5.0793,-5.0877,-5.0975,-5.102,-5.1034,-5.102,-5.1024,-5.1053,-5.1039,-5.1067,-5.1075,-5.1056,-5.0933,-5.0829,-5.0389,-4.9088,-4.8009,-4.7049,-4.6468,-4.6687,-4.719,-4.794,-4.8482,-4.8894,-4.8745,-4.8271,-4.7695,-5.5057,-5.5012,-5.4877,-5.4646,-5.4409,-5.4409,-5.4409,-5.4409,-5.4409,-5.4409,-5.4409,-5.4409,-5.4409,-5.4409,-5.4409,-5.4409,-5.4409,-5.4409,-5.4409,-5.4409,-5.4409,-5.4409,-5.4409,-5.4409,-5.4409,-5.4409,-5.4409,-5.4409,-5.4409,-5.4409,-5.4409,-5.4409,-5.4428,-5.4803,-5.561,-5.6436,-5.7281,-5.8089,-5.8896,-5.929,-5.929,-5.929,-5.9346,-5.9457,-5.951,-5.9634,-5.9757,-5.9857,-5.9872,-5.9885,-5.9904,-5.9904,-5.9904,-5.9885,-5.9393,-5.8445,-5.7687,-5.7028,-5.6111,-5.5408,-5.5168,-5.5236,-5.5396,-5.5451,-5.5456,-5.5577,-5.5643,-5.566,-5.5703,-5.5684,-5.5684,-5.5618,-5.5573,-5.5573,-5.566,-5.5607,-5.5299,-5.4838,-5.4164,-5.3318,-5.2529,-5.1895,-5.1337,-5.0971,-5.0741,-5.0702,-5.0721,-5.0721,-5.0793,-5.088,-5.096,-5.0956,-5.0971,-5.0956,-5.099,-5.1039,-5.1053,-5.1067,-5.1067,-5.1015,-5.0748,-5.0429,-4.9679,-4.8624,-4.7826,-4.6911,-4.6306,-4.6112,-4.6822,-4.7552,-4.7733,-4.7976,-4.7763,-4.7366,-4.696,-5.5139,-5.4736,-5.4622,-5.4505,-5.4458,-5.4424,-5.4409,-5.4409,-5.4409,-5.4409,-5.4409,-5.4409,-5.4409,-5.4409,-5.4409,-5.4409,-5.4409,-5.4409,-5.4597,-5.4916,-5.4934,-5.4747,-5.4521,-5.4409,-5.4409,-5.4409,-5.4409,-5.4409,-5.4409,-5.4409,-5.4409,-5.4409,-5.4409,-5.4822,-5.5573,-5.608,-5.6962,-5.7957,-5.8596,-5.8933,-5.9271,-5.9346,-5.9401,-5.9529,-5.9599,-5.9738,-5.9824,-5.9857,-5.9872,-5.9904,-5.9904,-5.9904,-5.9904,-5.9904,-5.9506,-5.8729,-5.7895,-5.7085,-5.6416,-5.5644,-5.5294,-5.5383,-5.5504,-5.5573,-5.5596,-5.5662,-5.5684,-5.5703,-5.5684,-5.5684,-5.5703,-5.5638,-5.5596,-5.5596,-5.564,-5.5684,-5.5684,-5.5299,-5.4818,-5.4203,-5.351,-5.2664,-5.1837,-5.1433,-5.1048,-5.0818,-5.074,-5.0758,-5.0793,-5.088,-5.0929,-5.0925,-5.0941,-5.0956,-5.0956,-5.1005,-5.1024,-5.1039,-5.099,-5.0971,-5.07,-5.0229,-4.9393,-4.8542,-4.7676,-4.6883,-4.6273,-4.5938,-4.6422,-4.6925,-4.6975,-4.7076,-4.7038,-4.6883,-4.6419,-5.5541,-5.4767,-5.4818,-5.4684,-5.4529,-5.4631,-5.4672,-5.4428,-5.4559,-5.4521,-5.4428,-5.4409,-5.4503,-5.4503,-5.4503,-5.4521,-5.4747,-5.4728,-5.5122,-5.5479,-5.5554,-5.5216,-5.469,-5.4465,-5.4428,-5.4409,-5.4409,-5.4409,-5.4409,-5.4409,-5.4409,-5.4409,-5.4409,-5.4766,-5.5291,-5.5592,-5.6455,-5.7431,-5.7845,-5.8239,-5.8688,-5.8837,-5.8949,-5.9246,-5.9386,-5.9427,-5.9422,-5.9441,-5.9441,-5.9582,-5.9772,-5.9885,-5.9904,-5.9904,-5.9487,-5.8761,-5.7908,-5.7146,-5.6473,-5.5752,-5.5383,-5.5504,-5.5638,-5.5703,-5.5684,-5.5662,-5.564,-5.566,-5.5662,-5.5618,-5.5618,-5.564,-5.5682,-5.566,-5.5662,-5.5684,-5.5684,-5.5684,-5.5665,-5.553,-5.4838,-5.4145,-5.3222,-5.2414,-5.1587,-5.0779,-5.074,-5.0757,-5.081,-5.088,-5.0913,-5.0925,-5.0941,-5.0956,-5.0956,-5.0971,-5.096,-5.096,-5.0913,-5.0855,-5.0728,-5.021,-4.9369,-4.8532,-4.7705,-4.6886,-4.6119,-4.608,-4.6306,-4.6427,-4.6588,-4.6748,-4.6864,-4.6651,-4.6283,-5.4938,-5.4761,-5.5343,-5.5112,-5.4706,-5.5742,-5.5573,-5.4465,-5.5066,-5.4897,-5.4503,-5.4409,-5.4747,-5.531,-5.4747,-5.5066,-5.6042,-5.5742,-5.5817,-5.6436,-5.5873,-5.5592,-5.5179,-5.4728,-5.4428,-5.4409,-5.4409,-5.4409,-5.4409,-5.4409,-5.4409,-5.4409,-5.4428,-5.4484,-5.4728,-5.5291,-5.5704,-5.623,-5.6793,-5.7279,-5.754,-5.7653,-5.7952,-5.8544,-5.8721,-5.8481,-5.8053,-5.7921,-5.7902,-5.8224,-5.9089,-5.9696,-5.9696,-5.9791,-5.9412,-5.8647,-5.7924,-5.7206,-5.6591,-5.5919,-5.5504,-5.5638,-5.5682,-5.5684,-5.5703,-5.5596,-5.5551,-5.5527,-5.5456,-5.5432,-5.5456,-5.5596,-5.564,-5.5618,-5.564,-5.5684,-5.5684,-5.5684,-5.5453,-5.4972,-5.4645,-5.3933,-5.251,-5.2222,-5.1548,-5.0895,-5.0721,-5.0757,-5.081,-5.088,-5.0893,-5.089,-5.0906,-5.0941,-5.0956,-5.0941,-5.0929,-5.0913,-5.0863,-5.0844,-5.072,-5.0349,-4.9586,-4.8672,-4.7733,-4.6913,-4.6074,-4.5906,-4.6073,-4.6137,-4.6201,-4.6278,-4.6322,-4.6225,-4.6007,-5.5063,-5.4748,-5.5047,-5.4886,-5.4627,-5.5344,-5.5216,-5.4578,-5.4822,-5.4822,-5.4484,-5.4409,-5.4859,-5.5516,-5.4859,-5.531,-5.6624,-5.6887,-5.6793,-5.6849,-5.638,-5.6023,-5.546,-5.4859,-5.4409,-5.4409,-5.4409,-5.4409,-5.4409,-5.4409,-5.4409,-5.4409,-5.4409,-5.4428,-5.4409,-5.4841,-5.5235,-5.5648,-5.6023,-5.649,-5.6882,-5.6958,-5.714,-5.7763,-5.7905,-5.7724,-5.7504,-5.7397,-5.7409,-5.763,-5.8237,-5.8729,-5.8824,-5.907,-5.8881,-5.8154,-5.7441,-5.6977,-5.6484,-5.5968,-5.5531,-5.5703,-5.5684,-5.564,-5.5618,-5.5527,-5.5461,-5.5408,-5.5358,-5.5352,-5.5408,-5.5551,-5.5638,-5.5618,-5.564,-5.5684,-5.5684,-5.5684,-5.5588,-5.5068,-5.478,-5.3914,-5.301,-5.2222,-5.1529,-5.0856,-5.0758,-5.0793,-5.081,-5.088,-5.0893,-5.089,-5.0906,-5.0906,-5.0941,-5.0925,-5.0897,-5.0844,-5.081,-5.0844,-5.0816,-5.0368,-4.9846,-4.8846,-4.7824,-4.69,-4.6197,-4.6048,-4.586,-4.593,-4.5935,-4.5838,-4.5838,-4.5988,-4.562,-5.5263,-5.4692,-5.4689,-5.4585,-5.4529,-5.4762,-5.4747,-5.4409,-5.4559,-5.4634,-5.4409,-5.4409,-5.4841,-5.5291,-5.4766,-5.5404,-5.6756,-5.7863,-5.7957,-5.7525,-5.6981,-5.6493,-5.5817,-5.4991,-5.4409,-5.4409,-5.4409,-5.4409,-5.4409,-5.4409,-5.4409,-5.4409,-5.4409,-5.4409,-5.4409,-5.4428,-5.4728,-5.5272,-5.5385,-5.5667,-5.6227,-5.6409,-5.653,-5.6719,-5.7049,-5.6929,-5.6791,-5.6734,-5.6848,-5.7017,-5.7149,-5.7118,-5.7251,-5.7895,-5.8104,-5.727,-5.6768,-5.6472,-5.6243,-5.5859,-5.5596,-5.5682,-5.5662,-5.5596,-5.5504,-5.5432,-5.5339,-5.5333,-5.5281,-5.5333,-5.5456,-5.5596,-5.5662,-5.5684,-5.5684,-5.5684,-5.5665,-5.5626,-5.5395,-5.5299,-5.4741,-5.3972,-5.3049,-5.2202,-5.151,-5.0952,-5.0854,-5.0829,-5.0827,-5.0861,-5.0893,-5.089,-5.0906,-5.0909,-5.0929,-5.0877,-5.0844,-5.081,-5.0775,-5.0827,-5.0816,-5.0291,-4.9707,-4.8889,-4.7908,-4.7049,-4.6325,-4.5944,-4.5814,-4.58,-4.58,-4.58,-4.5814,-4.5814,-4.5344,-5.4651,-5.4595,-5.5191,-5.5028,-5.4706,-5.5817,-5.5554,-5.4634,-5.5047,-5.4991,-5.4446,-5.4428,-5.4841,-5.5235,-5.4766,-5.5366,-5.6887,-5.8126,-5.8802,-5.8333,-5.747,-5.657,-5.623,-5.5028,-5.4446,-5.4409,-5.4409,-5.4409,-5.4409,-5.4409,-5.4409,-5.4409,-5.4409,-5.4409,-5.4409,-5.4409,-5.4465,-5.4728,-5.4747,-5.4912,-5.5093,-5.5183,-5.5249,-5.5441,-5.5939,-5.5927,-5.5477,-5.5326,-5.5318,-5.5375,-5.6019,-5.5943,-5.5906,-5.6834,-5.7043,-5.6611,-5.6435,-5.6172,-5.5728,-5.5657,-5.5593,-5.5593,-5.5527,-5.548,-5.5358,-5.5255,-5.521,-5.5229,-5.5255,-5.5307,-5.5333,-5.5551,-5.5662,-5.5684,-5.5684,-5.5684,-5.5588,-5.5299,-5.4895,-5.4857,-5.4491,-5.3933,-5.2896,-5.2011,-5.1414,-5.0933,-5.0834,-5.0829,-5.0846,-5.0861,-5.089,-5.0906,-5.0906,-5.0893,-5.0916,-5.0844,-5.0793,-5.0775,-5.0756,-5.081,-5.0668,-5.0175,-4.9528,-4.8952,-4.823,-4.7423,-4.6718,-4.6065,-4.5814,-4.58,-4.58,-4.58,-4.5814,-4.5808,-4.5421,-5.4439,-5.4495,-5.4841,-5.4766,-5.4578,-5.5216,-5.516,-5.454,-5.4784,-5.4766,-5.4503,-5.4446,-5.4841,-5.5235,-5.4766,-5.5348,-5.6868,-5.807,-5.8652,-5.8333,-5.7039,-5.6213,-5.6174,-5.4934,-5.454,-5.4409,-5.4409,-5.4409,-5.4409,-5.4409,-5.4409,-5.4409,-5.4409,-5.4409,-5.4409,-5.4409,-5.4409,-5.4409,-5.4424,-5.4491,-5.4505,-5.4538,-5.4641,-5.4837,-5.5089,-5.5132,-5.4947,-5.4863,-5.492,-5.5015,-5.5318,-5.5242,-5.5299,-5.5489,-5.6012,-5.5769,-5.5843,-5.5797,-5.5403,-5.5432,-5.5456,-5.5427,-5.5408,-5.5383,-5.5307,-5.5255,-5.5203,-5.5229,-5.5229,-5.5333,-5.5408,-5.5573,-5.5662,-5.5684,-5.5684,-5.5684,-5.5607,-5.5299,-5.4914,-5.4414,-5.353,-5.2934,-5.2358,-5.1645,-5.1183,-5.0952,-5.0813,-5.0793,-5.0846,-5.0877,-5.0906,-5.0909,-5.0893,-5.0844,-5.0846,-5.0793,-5.0757,-5.072,-5.0738,-5.081,-5.0803,-5.041,-4.9939,-4.9393,-4.86,-4.7801,-4.6975,-4.6283,-4.6051,-4.5814,-4.5847,-4.5847,-4.586,-4.5725,-4.5428,-5.4409,-5.4409,-5.4409,-5.4409,-5.4409,-5.4409,-5.4428,-5.4409,-5.4428,-5.4446,-5.4409,-5.4428,-5.4747,-5.5103,-5.5103,-5.5423,-5.6699,-5.7469,-5.7826,-5.7563,-5.6401,-5.5632,-5.5404,-5.4878,-5.4409,-5.4409,-5.4409,-5.4409,-5.4409,-5.4409,-5.4409,-5.4409,-5.4409,-5.4409,-5.4409,-5.4409,-5.4409,-5.4424,-5.4472,-5.4505,-5.4557,-5.4641,-5.4705,-5.4705,-5.4767,-5.4829,-5.4803,-5.4882,-5.4901,-5.4901,-5.4958,-5.492,-5.4901,-5.4931,-5.5,-5.5113,-5.5203,-5.5255,-5.5255,-5.5307,-5.5333,-5.5255,-5.5255,-5.5255,-5.5255,-5.5255,-5.5281,-5.5307,-5.5333,-5.5383,-5.548,-5.5638,-5.5703,-5.5684,-5.5684,-5.5684,-5.5607,-5.5357,-5.4934,-5.4107,-5.2799,-5.2145,-5.1915,-5.1357,-5.0933,-5.0894,-5.0775,-5.0829,-5.0863,-5.0877,-5.089,-5.0893,-5.0861,-5.0773,-5.0757,-5.0739,-5.072,-5.072,-5.0738,-5.081,-5.0861,-5.0816,-5.0329,-4.9881,-4.903,-4.8232,-4.7347,-4.6496,-4.6071,-4.5833,-4.588,-4.5893,-4.5893,-4.5848,-4.5667,-5.4409,-5.4409,-5.4409,-5.4409,-5.4409,-5.4409,-5.4409,-5.4409,-5.4409,-5.4409,-5.4409,-5.4409,-5.4484,-5.469,-5.5272,-5.5554,-5.6023,-5.6605,-5.7018,-5.6831,-5.5951,-5.5463,-5.546,-5.4766,-5.4465,-5.4409,-5.4409,-5.4409,-5.4409,-5.4409,-5.4409,-5.4409,-5.4409,-5.4409,-5.4409,-5.4409,-5.4409,-5.4409,-5.4472,-5.4538,-5.4641,-5.4692,-5.4673,-5.4736,-5.4799,-5.4829,-5.481,-5.4841,-5.4901,-5.4901,-5.4901,-5.4901,-5.4931,-5.5009,-5.5066,-5.5094,-5.514,-5.5121,-5.5149,-5.5203,-5.5203,-5.5149,-5.5121,-5.5121,-5.5203,-5.5301,-5.5333,-5.5307,-5.5408,-5.548,-5.5527,-5.5618,-5.5662,-5.5684,-5.5684,-5.5684,-5.5645,-5.5472,-5.5049,-5.426,-5.3106,-5.2375,-5.1914,-5.126,-5.0702,-5.074,-5.0775,-5.0829,-5.088,-5.0893,-5.0874,-5.0861,-5.0827,-5.0738,-5.072,-5.0702,-5.0683,-5.0682,-5.0738,-5.081,-5.0844,-5.0897,-5.0909,-5.0345,-4.9513,-4.8585,-4.7637,-4.6825,-4.6109,-4.5847,-4.586,-4.5893,-4.5893,-4.5861,-4.5828,-5.4409,-5.4409,-5.4409,-5.4409,-5.4409,-5.4409,-5.4409,-5.4409,-5.4409,-5.4409,-5.4409,-5.4409,-5.4409,-5.4559,-5.5235,-5.561,-5.5704,-5.6005,-5.6155,-5.6023,-5.5404,-5.4972,-5.4841,-5.4578,-5.4428,-5.4409,-5.4409,-5.4409,-5.4409,-5.4409,-5.4409,-5.4409,-5.4409,-5.4409,-5.4409,-5.4409,-5.4409,-5.4424,-5.4472,-5.459,-5.4673,-5.4654,-5.4622,-5.4673,-5.4667,-5.4717,-5.4749,-5.4799,-5.4841,-5.489,-5.4901,-5.4901,-5.4901,-5.4941,-5.4971,-5.499,-5.499,-5.5028,-5.5094,-5.5094,-5.5057,-5.5057,-5.5066,-5.5157,-5.5281,-5.5383,-5.5456,-5.5527,-5.5504,-5.5527,-5.5596,-5.5662,-5.5684,-5.5684,-5.5684,-5.5684,-5.5645,-5.5472,-5.5107,-5.426,-5.3472,-5.276,-5.1991,-5.1222,-5.0798,-5.0794,-5.081,-5.0827,-5.088,-5.0897,-5.0861,-5.0827,-5.0775,-5.0701,-5.0702,-5.0683,-5.0683,-5.0683,-5.0701,-5.0757,-5.081,-5.0844,-5.0893,-5.0677,-4.9977,-4.901,-4.7985,-4.7173,-4.6477,-4.6137,-4.5874,-4.5874,-4.5906,-4.5944,-4.5891,-5.4409,-5.4409,-5.4409,-5.4409,-5.4409,-5.4409,-5.4409,-5.4409,-5.4409,-5.4409,-5.4409,-5.4409,-5.4409,-5.4503,-5.4953,-5.5216,-5.5272,-5.531,-5.531,-5.5066,-5.4784,-5.4503,-5.4484,-5.4409,-5.4409,-5.4409,-5.4409,-5.4409,-5.4409,-5.4409,-5.4409,-5.4409,-5.4409,-5.4409,-5.4409,-5.4409,-5.4409,-5.4458,-5.4439,-5.4557,-5.4705,-5.4571,-5.459,-5.4641,-5.4622,-5.4603,-5.4698,-5.478,-5.4829,-5.489,-5.4901,-5.4901,-5.4901,-5.4901,-5.4931,-5.4931,-5.4931,-5.499,-5.5028,-5.5028,-5.4931,-5.5019,-5.5121,-5.5288,-5.5432,-5.5527,-5.5554,-5.5662,-5.5618,-5.5618,-5.5682,-5.5703,-5.5684,-5.5684,-5.5684,-5.5684,-5.5665,-5.5549,-5.5376,-5.4838,-5.401,-5.3088,-5.2261,-5.1299,-5.0894,-5.0885,-5.0863,-5.0844,-5.0844,-5.088,-5.0827,-5.0775,-5.0739,-5.0683,-5.0683,-5.0683,-5.0683,-5.0683,-5.0702,-5.0739,-5.0829,-5.0863,-5.0897,-5.0584,-5.0287,-4.9726,-4.8875,-4.785,-4.6844,-4.6292,-4.5841,-4.5874,-4.5919,-4.5968,-4.5972,-5.4409,-5.4409,-5.4409,-5.4409,-5.4409,-5.4409,-5.4409,-5.4409,-5.4409,-5.4409,-5.4409,-5.4409,-5.4409,-5.4446,-5.4503,-5.4615,-5.454,-5.4484,-5.4578,-5.4559,-5.4409,-5.4409,-5.4409,-5.4409,-5.4409,-5.4409,-5.4409,-5.4409,-5.4409,-5.4409,-5.4409,-5.4409,-5.4409,-5.4409,-5.4409,-5.4409,-5.4424,-5.4458,-5.4458,-5.4491,-5.4608,-5.459,-5.4538,-5.4641,-5.4692,-5.4723,-5.4767,-5.4799,-5.4829,-5.4901,-5.4901,-5.4901,-5.4901,-5.4901,-5.4901,-5.4901,-5.4931,-5.5,-5.5057,-5.5028,-5.5,-5.5121,-5.5307,-5.5437,-5.5527,-5.5638,-5.5703,-5.5703,-5.5662,-5.5662,-5.5684,-5.5684,-5.5684,-5.5684,-5.5684,-5.5684,-5.5684,-5.5684,-5.5511,-5.5261,-5.4453,-5.3281,-5.2377,-5.1376,-5.0894,-5.0849,-5.0863,-5.0863,-5.0827,-5.0846,-5.0756,-5.0701,-5.0702,-5.0683,-5.0702,-5.0683,-5.0702,-5.0702,-5.0682,-5.0757,-5.0866,-5.0899,-5.0916,-5.0835,-5.0596,-5.019,-4.9707,-4.8624,-4.7521,-4.6375,-4.5827,-4.5887,-4.5932,-4.5968,-4.5991,-5.4409,-5.4409,-5.4409,-5.4409,-5.4409,-5.4409,-5.4409,-5.4409,-5.4409,-5.4409,-5.4409,-5.4409,-5.4409,-5.4409,-5.4409,-5.4409,-5.4409,-5.4409,-5.4409,-5.4409,-5.4409,-5.4409,-5.4409,-5.4409,-5.4409,-5.4409,-5.4409,-5.4409,-5.4409,-5.4409,-5.4409,-5.4409,-5.4409,-5.4409,-5.4409,-5.4409,-5.4443,-5.4424,-5.4443,-5.4458,-5.4524,-5.4491,-5.4472,-5.4538,-5.459,-5.4641,-5.4705,-5.4767,-5.4829,-5.4871,-5.4901,-5.4901,-5.4901,-5.4901,-5.4901,-5.4901,-5.496,-5.5028,-5.5094,-5.5085,-5.5121,-5.5314,-5.5456,-5.5527,-5.5615,-5.5682,-5.5703,-5.5684,-5.5684,-5.5684,-5.5684,-5.5684,-5.5684,-5.5684,-5.5684,-5.5684,-5.5684,-5.5684,-5.5357,-5.5011,-5.4107,-5.305,-5.2204,-5.1395,-5.1065,-5.0829,-5.0846,-5.0866,-5.0829,-5.0775,-5.0739,-5.0702,-5.0683,-5.0702,-5.0683,-5.0683,-5.0702,-5.0702,-5.0682,-5.0757,-5.0829,-5.0883,-5.0916,-5.0893,-5.0832,-5.0426,-4.99,-4.9223,-4.8179,-4.6897,-4.6209,-4.5919,-4.5944,-4.598,-4.5991,-5.4409,-5.4409,-5.4409,-5.4409,-5.4409,-5.4409,-5.4409,-5.4409,-5.4409,-5.4409,-5.4409,-5.4409,-5.4409,-5.4409,-5.4409,-5.4409,-5.4409,-5.4409,-5.4409,-5.4409,-5.4409,-5.4409,-5.4409,-5.4409,-5.4409,-5.4409,-5.4409,-5.4409,-5.4409,-5.4409,-5.4409,-5.4409,-5.4409,-5.4409,-5.4409,-5.4409,-5.4409,-5.4409,-5.4409,-5.4424,-5.4491,-5.4458,-5.4476,-5.4538,-5.4538,-5.4622,-5.4705,-5.4767,-5.4829,-5.4871,-5.4901,-5.4901,-5.4901,-5.4901,-5.4901,-5.4931,-5.4971,-5.5066,-5.5149,-5.5229,-5.5288,-5.5437,-5.5531,-5.5618,-5.5682,-5.5684,-5.5684,-5.5684,-5.5684,-5.5684,-5.5684,-5.5684,-5.5684,-5.5684,-5.5684,-5.5684,-5.5684,-5.5665,-5.5164,-5.4684,-5.3741,-5.2915,-5.2127,-5.1375,-5.1008,-5.0793,-5.0775,-5.0812,-5.0794,-5.0739,-5.0702,-5.0702,-5.0683,-5.0702,-5.0683,-5.0683,-5.0702,-5.0702,-5.0702,-5.072,-5.0757,-5.0829,-5.0899,-5.0897,-5.0797,-5.0581,-5.0175,-4.9668,-4.8585,-4.7328,-4.6693,-4.6016,-4.5925,-4.596,-4.5983,-5.4409,-5.4409,-5.4409,-5.4409,-5.4409,-5.4409,-5.4409,-5.4409,-5.4409,-5.4409,-5.4409,-5.4409,-5.4409,-5.4409,-5.4409,-5.4409,-5.4409,-5.4409,-5.4409,-5.4409,-5.4409,-5.4409,-5.4409,-5.4409,-5.4409,-5.4409,-5.4409,-5.4409,-5.4409,-5.4409,-5.4409,-5.4409,-5.4409,-5.4409,-5.4409,-5.4409,-5.4409,-5.4409,-5.4409,-5.4458,-5.4439,-5.4405,-5.451,-5.4576,-5.459,-5.4622,-5.4736,-5.4786,-5.4829,-5.489,-5.4871,-5.4901,-5.4912,-5.4901,-5.4901,-5.496,-5.4931,-5.5057,-5.5255,-5.5408,-5.5504,-5.5527,-5.5596,-5.5662,-5.5684,-5.5684,-5.5684,-5.5684,-5.5684,-5.5684,-5.5684,-5.5684,-5.5684,-5.5684,-5.5684,-5.5684,-5.5684,-5.5684,-5.5222,-5.4568,-5.3722,-5.2896,-5.2088,-5.1374,-5.0987,-5.0775,-5.0739,-5.0739,-5.0739,-5.074,-5.0702,-5.0683,-5.0702,-5.0702,-5.0683,-5.0683,-5.0683,-5.0683,-5.0683,-5.0702,-5.0701,-5.0757,-5.081,-5.0863,-5.0839,-5.072,-5.0503,-5.021,-4.9107,-4.8019,-4.679,-4.6132,-4.6021,-4.5941,-4.5975,-5.4409,-5.4409,-5.4409,-5.4409,-5.4409,-5.4409,-5.4409,-5.4409,-5.4409,-5.4409,-5.4409,-5.4409,-5.4409,-5.4409,-5.4409,-5.4409,-5.4409,-5.4409,-5.4409,-5.4409,-5.4409,-5.4409,-5.4409,-5.4409,-5.4409,-5.4409,-5.4409,-5.4409,-5.4409,-5.4409,-5.4409,-5.4409,-5.4409,-5.4409,-5.4409,-5.4409,-5.4409,-5.4409,-5.4409,-5.4409,-5.4443,-5.4443,-5.4476,-5.4608,-5.459,-5.4654,-5.4767,-5.4817,-5.4829,-5.4871,-5.4871,-5.4871,-5.4941,-5.4912,-5.4941,-5.5028,-5.5066,-5.5121,-5.5364,-5.5551,-5.5638,-5.564,-5.5662,-5.5684,-5.5684,-5.5684,-5.5684,-5.5684,-5.5684,-5.5684,-5.5684,-5.5703,-5.5703,-5.5684,-5.5684,-5.5684,-5.5684,-5.5684,-5.5376,-5.4568,-5.3741,-5.2472,-5.1529,-5.1201,-5.0873,-5.0738,-5.0701,-5.0701,-5.072,-5.0702,-5.0702,-5.0702,-5.0683,-5.0683,-5.0683,-5.0683,-5.0683,-5.0683,-5.0702,-5.0682,-5.0701,-5.0701,-5.0775,-5.0829,-5.0863,-5.088,-5.0662,-5.0349,-4.9741,-4.8764,-4.7572,-4.6552,-4.622,-4.61,-4.5986,-5.4409,-5.4409,-5.4409,-5.4409,-5.4409,-5.4409,-5.4409,-5.4409,-5.4409,-5.4409,-5.4409,-5.4409,-5.4409,-5.4409,-5.4409,-5.4409,-5.4409,-5.4409,-5.4409,-5.4409,-5.4409,-5.4409,-5.4409,-5.4409,-5.4409,-5.4409,-5.4409,-5.4409,-5.4409,-5.4409,-5.4409,-5.4409,-5.4409,-5.4409,-5.4409,-5.4409,-5.4409,-5.4409,-5.4409,-5.4409,-5.4409,-5.4443,-5.4476,-5.4576,-5.4641,-5.4705,-5.4786,-5.4799,-5.4829,-5.481,-5.4841,-5.486,-5.4931,-5.4941,-5.4941,-5.5066,-5.5255,-5.5281,-5.548,-5.5618,-5.5662,-5.5684,-5.5684,-5.5684,-5.5684,-5.5684,-5.5682,-5.5662,-5.5662,-5.5662,-5.5662,-5.5682,-5.5682,-5.5662,-5.5684,-5.5684,-5.5684,-5.5684,-5.5338,-5.453,-5.351,-5.2223,-5.1164,-5.0933,-5.072,-5.0701,-5.0682,-5.0682,-5.0702,-5.0683,-5.0683,-5.0683,-5.0683,-5.0683,-5.0683,-5.0683,-5.0683,-5.0683,-5.0683,-5.0702,-5.0702,-5.0721,-5.0758,-5.0775,-5.0793,-5.0791,-5.0784,-5.0468,-5.0051,-4.9417,-4.8457,-4.7507,-4.6651,-4.6227,-4.6016,-5.4371,-5.439,-5.439,-5.4352,-5.439,-5.4409,-5.4409,-5.4409,-5.4409,-5.4409,-5.4409,-5.4409,-5.4409,-5.4409,-5.4409,-5.4409,-5.4409,-5.4409,-5.4409,-5.4409,-5.4409,-5.4409,-5.4409,-5.4409,-5.4409,-5.4409,-5.4409,-5.4409,-5.4409,-5.4409,-5.4409,-5.4409,-5.4409,-5.4409,-5.4409,-5.4409,-5.4409,-5.4409,-5.4409,-5.4409,-5.4409,-5.4409,-5.451,-5.4608,-5.4673,-5.4705,-5.4736,-5.4767,-5.4767,-5.4786,-5.4767,-5.4817,-5.4829,-5.489,-5.4912,-5.5066,-5.5333,-5.5456,-5.5504,-5.5618,-5.5684,-5.5684,-5.5703,-5.5703,-5.5684,-5.5684,-5.566,-5.5618,-5.5596,-5.5596,-5.5615,-5.5638,-5.566,-5.5682,-5.5684,-5.5684,-5.5684,-5.5511,-5.5145,-5.4357,-5.3319,-5.2203,-5.1299,-5.0914,-5.0817,-5.0952,-5.0933,-5.0683,-5.0683,-5.0683,-5.0683,-5.0663,-5.0663,-5.0683,-5.0683,-5.0683,-5.0683,-5.0683,-5.0683,-5.0683,-5.0702,-5.0702,-5.074,-5.074,-5.0701,-5.0718,-5.0786,-5.0739,-5.0573,-4.9863,-4.9187,-4.8121,-4.7167,-4.6316,-4.5977,-5.3883,-5.4334,-5.377,-5.3864,-5.4352,-5.4409,-5.4409,-5.4409,-5.4409,-5.4409,-5.4409,-5.4409,-5.4315,-5.4409,-5.4409,-5.4409,-5.4409,-5.4409,-5.4409,-5.4409,-5.4409,-5.4409,-5.4409,-5.4409,-5.4409,-5.4409,-5.4409,-5.4409,-5.4409,-5.4409,-5.4409,-5.4409,-5.4409,-5.4409,-5.4409,-5.4409,-5.4409,-5.4409,-5.4409,-5.4409,-5.4409,-5.4409,-5.451,-5.4608,-5.459,-5.4654,-5.4736,-5.4654,-5.4673,-5.4705,-5.4622,-5.4654,-5.489,-5.492,-5.496,-5.5176,-5.5432,-5.5618,-5.5531,-5.5618,-5.5684,-5.5662,-5.566,-5.5682,-5.5662,-5.564,-5.5638,-5.5573,-5.5551,-5.5551,-5.5573,-5.5596,-5.5638,-5.5682,-5.5684,-5.5684,-5.5684,-5.5588,-5.5164,-5.4164,-5.3127,-5.2396,-5.1511,-5.1048,-5.101,-5.1183,-5.1144,-5.0836,-5.0663,-5.0683,-5.0663,-5.0643,-5.0663,-5.0683,-5.0682,-5.0663,-5.0683,-5.0683,-5.0683,-5.0683,-5.0683,-5.0683,-5.0702,-5.0702,-5.0682,-5.0775,-5.0863,-5.0797,-5.0728,-5.0613,-4.9996,-4.8812,-4.7711,-4.686,-4.6191,-5.317,-5.3808,-5.3395,-5.3489,-5.3827,-5.3545,-5.3414,-5.347,-5.377,-5.3789,-5.347,-5.3733,-5.3921,-5.3958,-5.4221,-5.4409,-5.4409,-5.4409,-5.4409,-5.4409,-5.4371,-5.4409,-5.4409,-5.4409,-5.4409,-5.4409,-5.4409,-5.4409,-5.4409,-5.4409,-5.4409,-5.4409,-5.4409,-5.4409,-5.4409,-5.4409,-5.4409,-5.4409,-5.4409,-5.4409,-5.4409,-5.4409,-5.451,-5.4557,-5.4538,-5.459,-5.4654,-5.4538,-5.4557,-5.4622,-5.4571,-5.4717,-5.4931,-5.5,-5.5168,-5.5358,-5.5527,-5.5618,-5.5618,-5.5618,-5.564,-5.564,-5.5618,-5.5596,-5.5596,-5.5573,-5.5551,-5.5485,-5.5504,-5.5527,-5.5551,-5.5596,-5.564,-5.5703,-5.5703,-5.5684,-5.5684,-5.5684,-5.4934,-5.3953,-5.3145,-5.2492,-5.1876,-5.1414,-5.1049,-5.1029,-5.0971,-5.0798,-5.0663,-5.0683,-5.0663,-5.0623,-5.0663,-5.0683,-5.0663,-5.0663,-5.0682,-5.0663,-5.0643,-5.0643,-5.0663,-5.0663,-5.0644,-5.0683,-5.0682,-5.0794,-5.0883,-5.0897,-5.0848,-5.0734,-5.0461,-4.9394,-4.8274,-4.7345,-4.6832,-5.2306,-5.3095,-5.3076,-5.3038,-5.2963,-5.2306,-5.1968,-5.1893,-5.2606,-5.2625,-5.2231,-5.2869,-5.3226,-5.3245,-5.3752,-5.3977,-5.3864,-5.3789,-5.377,-5.424,-5.4127,-5.4108,-5.4165,-5.4352,-5.4409,-5.4409,-5.4409,-5.4409,-5.4409,-5.4409,-5.4409,-5.4409,-5.4409,-5.4409,-5.4409,-5.4409,-5.4409,-5.4409,-5.4409,-5.4409,-5.4409,-5.4409,-5.4424,-5.4505,-5.4505,-5.4486,-5.4505,-5.4505,-5.4505,-5.4538,-5.4635,-5.4799,-5.5028,-5.5176,-5.5358,-5.548,-5.5596,-5.5618,-5.5618,-5.5596,-5.5596,-5.5573,-5.5554,-5.5531,-5.5527,-5.5531,-5.5508,-5.5485,-5.5504,-5.5527,-5.5551,-5.5573,-5.5618,-5.5662,-5.5684,-5.5684,-5.5684,-5.5511,-5.4874,-5.3951,-5.3201,-5.2567,-5.2279,-5.1818,-5.1183,-5.0932,-5.072,-5.0663,-5.0643,-5.0663,-5.0643,-5.0603,-5.0643,-5.0683,-5.0663,-5.0643,-5.0663,-5.0643,-5.0623,-5.0603,-5.0623,-5.0624,-5.0624,-5.0644,-5.0683,-5.0776,-5.0846,-5.088,-5.0925,-5.0923,-5.0532,-4.9802,-4.8895,-4.8044,-4.7084,-5.1461,-5.2212,-5.2212,-5.2212,-5.2193,-5.2006,-5.1518,-5.1011,-5.118,-5.1518,-5.1987,-5.2663,-5.2775,-5.2381,-5.3076,-5.3264,-5.2813,-5.3038,-5.2588,-5.3038,-5.3376,-5.3827,-5.3714,-5.4202,-5.4352,-5.4409,-5.4409,-5.4409,-5.4409,-5.4409,-5.4409,-5.4409,-5.4409,-5.4409,-5.4409,-5.4409,-5.4409,-5.4409,-5.4409,-5.4409,-5.4409,-5.4409,-5.4424,-5.4439,-5.4472,-5.4439,-5.4439,-5.4439,-5.4424,-5.4458,-5.4552,-5.4814,-5.5157,-5.5281,-5.5408,-5.5508,-5.5573,-5.5573,-5.5573,-5.5551,-5.5527,-5.5504,-5.5485,-5.5485,-5.5485,-5.5508,-5.5508,-5.5504,-5.5504,-5.5527,-5.5551,-5.5573,-5.5618,-5.564,-5.5684,-5.5684,-5.5684,-5.5259,-5.4776,-5.4064,-5.3276,-5.2854,-5.2586,-5.2066,-5.1469,-5.1065,-5.0777,-5.0622,-5.0623,-5.0623,-5.0643,-5.0623,-5.0663,-5.0683,-5.0663,-5.0643,-5.0663,-5.0643,-5.0604,-5.0584,-5.0603,-5.0604,-5.0624,-5.0644,-5.0683,-5.0757,-5.0846,-5.0863,-5.0909,-5.0981,-5.0887,-5.0293,-4.9814,-4.9081,-4.7714,-5.0553,-5.1284,-5.1367,-5.1367,-5.1311,-5.0992,-5.056,-5.0222,-5.0166,-5.041,-5.0917,-5.1611,-5.1799,-5.1518,-5.2231,-5.2682,-5.2287,-5.2513,-5.3019,-5.3264,-5.3095,-5.3714,-5.3977,-5.4071,-5.4296,-5.4409,-5.4409,-5.4409,-5.4409,-5.4409,-5.4409,-5.4409,-5.4409,-5.4409,-5.4409,-5.4409,-5.4409,-5.4409,-5.4409,-5.4409,-5.4409,-5.4409,-5.4424,-5.4424,-5.4424,-5.4424,-5.4424,-5.4424,-5.4409,-5.4524,-5.468,-5.5,-5.5288,-5.5432,-5.5504,-5.5551,-5.5551,-5.5504,-5.5504,-5.548,-5.5456,-5.5456,-5.5427,-5.5446,-5.5456,-5.5461,-5.5527,-5.5504,-5.5504,-5.5527,-5.5527,-5.5551,-5.5573,-5.5618,-5.564,-5.564,-5.5621,-5.5426,-5.4927,-5.4331,-5.3618,-5.3099,-5.2696,-5.2043,-5.1427,-5.0872,-5.0621,-5.0622,-5.0603,-5.0603,-5.0623,-5.0623,-5.0643,-5.0643,-5.0623,-5.0643,-5.0663,-5.0643,-5.0584,-5.0542,-5.0521,-5.0584,-5.0605,-5.0644,-5.0702,-5.0756,-5.0808,-5.0861,-5.0945,-5.1034,-5.1023,-5.0862,-5.0403,-4.9853,-4.8584,-4.9808,-5.0427,-5.0509,-5.0541,-5.0447,-4.9828,-4.9546,-4.9527,-4.9527,-4.9527,-4.9715,-5.0335,-5.0504,-5.0804,-5.1367,-5.2062,-5.2287,-5.1818,-5.27,-5.3095,-5.3395,-5.3282,-5.3526,-5.4033,-5.4183,-5.4334,-5.4409,-5.4409,-5.4409,-5.4409,-5.4409,-5.4409,-5.4409,-5.4409,-5.4409,-5.4409,-5.4409,-5.4409,-5.4409,-5.4409,-5.4409,-5.4409,-5.4409,-5.4409,-5.4409,-5.4409,-5.4409,-5.4409,-5.4409,-5.4603,-5.4833,-5.5157,-5.5339,-5.548,-5.5504,-5.5527,-5.5499,-5.5499,-5.5542,-5.5451,-5.5427,-5.5402,-5.539,-5.539,-5.5427,-5.5456,-5.548,-5.5504,-5.5504,-5.5523,-5.5504,-5.5527,-5.5551,-5.5573,-5.5573,-5.5596,-5.5554,-5.5497,-5.5036,-5.4479,-5.3865,-5.3286,-5.2576,-5.1902,-5.1308,-5.0753,-5.0563,-5.0623,-5.0623,-5.0603,-5.0603,-5.0603,-5.0603,-5.0603,-5.0582,-5.0603,-5.0623,-5.0603,-5.0562,-5.0478,-5.0457,-5.0542,-5.0605,-5.0645,-5.0701,-5.0773,-5.0841,-5.0909,-5.099,-5.1067,-5.1029,-5.0932,-5.0577,-4.997,-4.9207,-4.9534,-4.9721,-4.9734,-4.9734,-4.9715,-4.9546,-4.9509,-4.9509,-4.9509,-4.9509,-4.9546,-4.9584,-4.9734,-4.979,-5.056,-5.1029,-5.0898,-5.0785,-5.0372,-5.0372,-5.1818,-5.2118,-5.2663,-5.3677,-5.3902,-5.4165,-5.4409,-5.4409,-5.4409,-5.4409,-5.4409,-5.4409,-5.4409,-5.4409,-5.4409,-5.4409,-5.4409,-5.4409,-5.4409,-5.4409,-5.4409,-5.4409,-5.4409,-5.4409,-5.4409,-5.4409,-5.4409,-5.4409,-5.4491,-5.4648,-5.4914,-5.521,-5.5364,-5.5456,-5.5456,-5.5456,-5.5427,-5.5446,-5.544,-5.5415,-5.539,-5.539,-5.5384,-5.5415,-5.5427,-5.5461,-5.5504,-5.5527,-5.5527,-5.548,-5.5504,-5.5547,-5.557,-5.5527,-5.5527,-5.5527,-5.5508,-5.5412,-5.5163,-5.4415,-5.3625,-5.2897,-5.2091,-5.1459,-5.0821,-5.05,-5.0521,-5.0563,-5.0603,-5.0603,-5.0603,-5.0563,-5.0542,-5.0542,-5.0521,-5.0582,-5.0582,-5.0562,-5.0519,-5.0457,-5.0457,-5.054,-5.0584,-5.0644,-5.072,-5.0793,-5.0861,-5.0941,-5.0956,-5.102,-5.102,-5.0903,-5.0608,-5.0273,-4.9633]}]]